[[{"header":{"parameterUnit":"m.s-1","parameterCategory":1,"la1":31.0,"la2":29.5877,"lo1":-88.7671,"lo2":-86.6584,"dy":0.0162,"dx":0.0185,"nx":115,"ny":88,"refTime":"2024-06-10T00:00:00:Z","depth":0,"parameterNumber":2,"parameterNumberName":"U-component_of_WINDS"},"data":[0.0,0.0,0.0,0.0,0.0,0.0,0.0,0.0,0.0,0.0,0.0,0.0,0.0,0.0,0.0,0.0,0.0,0.0,0.0,0.0,0.0,0.0,0.0,0.0,0.0,0.0,0.0,0.0,0.0,0.0,0.0,0.0,0.0,0.0,0.0,0.0,0.0,0.0,0.0,0.0,0.0,0.0,0.0,0.0,0.0,0.0,0.0,0.0,0.0,0.0,0.0,0.0,0.0,0.0,0.0,0.0,0.0,0.0,0.0,0.0,0.0,0.0,0.0,0.0,0.0,0.0,0.0,0.0,0.0,0.0,0.0,0.0,0.0,0.0,0.0,0.0,0.0,0.0,0.0,0.0,0.0,0.0,0.0,0.0,0.0,0.0,0.0,0.0,0.0,0.0,0.0,0.0,0.0,0.0,0.0,0.0,0.0,0.0,0.0,0.0,0.0,0.0,0.0,0.0,0.0,0.0,0.0,0.0,0.0,0.0,0.0,0.0,0.0,0.0,0.0,0.0,0.0,0.0,0.0,0.0,0.0,0.0,0.0,0.0,0.0,0.0,0.0,0.0,0.0,0.0,0.0,0.0,0.0,0.0,0.0,0.0,0.0,0.0,0.0,0.0,0.0,0.0,0.0,0.0,0.0,0.0,0.0,0.0,0.0,0.0,0.0,0.0,0.0,0.0,0.0,0.0,0.0,0.0,0.0,0.0,0.0,0.0,0.0,0.0,0.0,0.0,0.0,0.0,0.0,0.0,0.0,0.0,0.0,0.0,0.0,0.0,0.0,0.0,0.0,0.0,0.0,0.0,0.0,0.0,0.0,0.0,0.0,0.0,0.0,0.0,0.0,0.0,0.0,0.0,0.0,0.0,0.0,0.0,0.0,0.0,0.0,0.0,0.0,0.0,0.0,0.0,0.0,0.0,0.0,0.0,0.0,0.0,0.0,0.0,0.0,0.0,0.0,0.0,0.0,0.0,0.0,0.0,0.0,0.0,0.0,0.0,0.0,0.0,0.0,0.0,0.0,0.0,0.0,0.0,0.0,0.0,0.0,0.0,0.0,0.0,0.0,0.0,0.0,0.0,0.0,0.0,0.0,0.0,0.0,0.0,0.0,0.0,0.0,0.0,0.0,0.0,0.0,0.0,0.0,0.0,0.0,0.0,0.0,0.0,0.0,0.0,0.0,0.0,0.0,0.0,0.0,0.0,0.0,0.0,0.0,0.0,0.0,0.0,0.0,0.0,0.0,0.0,0.0,0.0,0.0,0.0,0.0,0.0,0.0,0.0,0.0,0.0,0.0,0.0,0.0,0.0,0.0,0.0,0.0,0.0,0.0,0.0,0.0,0.0,0.0,0.0,0.0,0.0,0.0,0.0,0.0,0.0,0.0,0.0,0.0,0.0,0.0,0.0,0.0,0.0,0.0,0.0,0.0,0.0,0.0,0.0,0.0,0.0,0.0,0.0,0.0,0.0,0.0,0.0,0.0,0.0,0.0,0.0,0.0,0.0,0.0,0.0,0.0,0.0,0.0,0.0,0.0,0.0,0.0,0.0,0.0,0.0,0.0,0.0,0.0,0.0,0.0,0.0,0.0,0.0,0.0,0.0,0.0,0.0,0.0,0.0,0.0,0.0,0.0,0.0,0.0,0.0,0.0,0.0,0.0,0.0,0.0,0.0,0.0,0.0,0.0,0.0,0.0,0.0,0.0,0.0,0.0,0.0,0.0,0.0,0.0,0.0,0.0,0.0,0.0,0.0,0.0,0.0,0.0,0.0,0.0,0.0,0.0,0.0,0.0,0.0,0.0,0.0,0.0,0.0,0.0,0.0,0.0,0.0,0.0,0.0,0.0,0.0,0.0,0.0,0.0,0.0,0.0,0.0,0.0,0.0,0.0,0.0,0.0,0.0,0.0,0.0,0.0,0.0,0.0,0.0,0.0,0.0,0.0,0.0,0.0,0.0,0.0,0.0,0.0,0.0,0.0,0.0,0.0,0.0,0.0,0.0,0.0,0.0,0.0,0.0,0.0,0.0,0.0,0.0,0.0,0.0,0.0,0.0,0.0,0.0,0.0,0.0,0.0,0.0,0.0,0.0,0.0,0.0,0.0,0.0,0.0,0.0,0.0,0.0,0.0,0.0,0.0,0.0,0.0,0.0,0.0,0.0,0.0,0.0,0.0,0.0,0.0,0.0,0.0,0.0,0.0,0.0,0.0,0.0,0.0,0.0,0.0,0.0,0.0,0.0,0.0,0.0,0.0,0.0,0.0,0.0,0.0,0.0,0.0,0.0,0.0,0.0,0.0,0.0,0.0,0.0,0.0,0.0,0.0,0.0,0.0,0.0,0.0,0.0,0.0,0.0,0.0,0.0,0.0,0.0,0.0,0.0,0.0,0.0,0.0,0.0,0.0,0.0,0.0,0.0,0.0,0.0,0.0,0.0,0.0,0.0,0.0,0.0,0.0,0.0,0.0,0.0,0.0,0.0,0.0,0.0,0.0,0.0,0.0,0.0,0.0,0.0,0.0,0.0,0.0,0.0,0.0,0.0,0.0,0.0,0.0,0.0,0.0,0.0,0.0,0.0,0.0,0.0,0.0,0.0,0.0,0.0,0.0,0.0,0.0,0.0,0.0,0.0,0.0,0.0,0.0,0.0,0.0,0.0,0.0,0.0,0.0,0.0,0.0,0.0,0.0,0.0,0.0,0.0,0.0,0.0,0.0,0.0,0.0,0.0,0.0,0.0,0.0,0.0,0.0,0.0,0.0,0.0,0.0,0.0,0.0,0.0,0.0,0.0,0.0,0.0,0.0,0.0,0.0,0.0,0.0,0.0,0.0,0.0,0.0,0.0,0.0,0.0,0.0,0.0,0.0,0.0,0.0,0.0,0.0,0.0,0.0,0.0,0.0,0.0,0.0,0.0,0.0,0.0,0.0,0.0,0.0,0.0,0.0,0.0,0.0,0.0,0.0,0.0,0.0,0.0,0.0,0.0,0.0,0.0,0.0,0.0,0.0,0.0,0.0,0.0,0.0,0.0,0.0,0.0,0.0,0.0,0.0,0.0,0.0,0.0,0.0,0.0,0.0,0.0,0.0,0.0,0.0,0.0,0.0,0.0,0.0,0.0,0.0,0.0,0.0,0.0,0.0,0.0,0.0,0.0,0.0,0.0,0.0,0.0,0.0,0.0,0.0,0.0,0.0,0.0,0.0,0.0,0.0,0.0,0.0,0.0,0.0,0.0,0.0,0.0,0.0,0.0,0.0,0.0,0.0,0.0,0.0,0.0,0.0,0.0,0.0,0.0,0.0,0.0,0.0,0.0,0.0,0.0,0.0,0.0,0.0,0.0,0.0,0.0,0.0,0.0,0.0,0.0,0.0,0.0,0.0,0.0,0.0,0.0,0.0,0.0,0.0,0.0,0.0,0.0,0.0,0.0,0.0,0.0,0.0,0.0,0.0,0.0,0.0,0.0,0.0,0.0,0.0,0.0,0.0,0.0,0.0,0.0,0.0,0.0,0.0,0.0,0.0,0.0,0.0,0.0,0.0,0.0,0.0,0.0,0.0,0.0,0.0,0.0,0.0,0.0,0.0,0.0,0.0,0.0,0.0,0.0,0.0,0.0,0.0,0.0,0.0,0.0,0.0,0.0,0.0,0.0,0.0,0.0,0.0,0.0,0.0,0.0,0.0,0.0,0.0,0.0,0.0,0.0,0.0,0.0,0.0,0.0,0.0,0.0,0.0,0.0,0.0,0.0,0.0,0.0,0.0,0.0,0.0,0.0,0.0,0.0,0.0,0.0,0.0,0.0,0.0,0.0,0.0,0.0,0.0,0.0,0.0,0.0,0.0,0.0,0.0,0.0,0.0,0.0,0.0,0.0,0.0,0.0,0.0,0.0,0.0,0.0,0.0,0.0,0.0,0.0,0.0,0.0,0.0,0.0,0.0,0.0,0.0,0.0,0.0,0.0,0.0,0.0,0.0,0.0,0.0,0.0,0.0,0.0,0.0,0.0,0.0,0.0,0.0,0.0,0.0,0.0,0.0,0.0,0.0,0.0,0.0,0.0,0.0,0.0,0.0,0.0,0.0,0.0,0.0,0.0,0.0,0.0,0.0,0.0,0.0,0.0,0.0,0.0,0.0,0.0,0.0,0.0,0.0,0.0,0.0,0.0,0.0,0.0,0.0,0.0,0.0,0.0,0.0,0.0,0.0,0.0,0.0,0.0,0.0,0.0,0.0,0.0,0.0,0.0,0.0,0.0,0.0,0.0,0.0,0.0,0.0,0.0,-0.8195,0.0,0.0,0.0,0.0,0.0,0.0,0.0,0.0,0.0,0.0,0.0,0.0,0.0,0.0,0.0,0.0,0.0,0.0,0.0,0.0,0.0,0.0,0.0,0.0,0.0,0.0,0.0,0.0,0.0,0.0,0.0,0.0,0.0,0.0,0.0,0.0,0.0,0.0,0.0,0.0,0.0,0.0,0.0,0.0,0.0,0.0,0.0,0.0,0.0,0.0,0.0,0.0,0.0,0.0,0.0,0.0,0.0,0.0,0.0,0.0,0.0,0.0,0.0,0.0,0.0,0.0,0.0,0.0,0.0,0.0,0.0,0.0,0.0,0.0,0.0,0.0,0.0,0.0,0.0,0.0,0.0,0.0,0.0,0.0,0.0,0.0,0.0,0.0,0.0,0.0,0.0,0.0,0.0,0.0,0.0,0.0,0.0,0.0,0.0,0.0,0.0,0.0,0.0,0.0,0.0,0.0,0.0,0.0,0.0,0.0,-0.8835,-0.9033,-0.8792,-0.875,-0.8883,0.0,0.0,0.0,0.0,0.0,0.0,0.0,0.0,0.0,0.0,0.0,0.0,0.0,0.0,0.0,0.0,0.0,0.0,0.0,0.0,0.0,0.0,0.0,0.0,0.0,0.0,0.0,0.0,0.0,0.0,0.0,0.0,0.0,0.0,0.0,0.0,0.0,0.0,0.0,0.0,0.0,0.0,0.0,0.0,0.0,0.0,0.0,0.0,0.0,0.0,0.0,0.0,0.0,0.0,0.0,0.0,0.0,0.0,0.0,0.0,0.0,0.0,0.0,0.0,0.0,0.0,0.0,0.0,0.0,0.0,0.0,0.0,0.0,0.0,0.0,0.0,0.0,0.0,0.0,0.0,0.0,0.0,0.0,0.0,0.0,0.0,0.0,0.0,0.0,0.0,0.0,0.0,0.0,0.0,0.0,0.0,0.0,0.0,0.0,0.0,0.0,0.0,0.0,0.0,0.0,0.0,0.0,0.0,0.0,0.0,0.0,0.0,-1.0197,-1.0211,-1.0166,0.0,0.0,0.0,0.0,0.0,0.0,0.0,0.0,0.0,0.0,0.0,0.0,0.0,0.0,0.0,0.0,0.0,0.0,0.0,0.0,0.0,0.0,0.0,0.0,0.0,0.0,0.0,0.0,0.0,0.0,0.0,0.0,0.0,0.0,0.0,0.0,0.0,0.0,0.0,0.0,0.0,0.0,0.0,0.0,0.0,0.0,0.0,0.0,0.0,0.0,0.0,0.0,0.0,0.0,0.0,0.0,0.0,0.0,0.0,0.0,0.0,0.0,0.0,0.0,0.0,0.0,0.0,0.0,0.0,0.0,0.0,0.0,0.0,0.0,0.0,0.0,0.0,0.0,0.0,0.0,0.0,0.0,0.0,0.0,0.0,0.0,0.0,0.0,0.0,0.0,0.0,0.0,0.0,0.0,0.0,0.0,0.0,0.0,0.0,0.0,0.0,0.0,0.0,0.0,0.0,0.0,0.0,0.0,0.0,0.0,-1.0557,-1.1983,-1.2282,0.0,-1.2395,0.0,0.0,0.0,0.0,0.0,0.0,0.0,0.0,0.0,0.0,0.0,0.0,0.0,0.0,0.0,0.0,0.0,0.0,0.0,0.0,0.0,0.0,0.0,0.0,0.0,0.0,0.0,0.0,0.0,0.0,0.0,0.0,0.0,0.0,0.0,0.0,0.0,0.0,0.0,0.0,0.0,0.0,0.0,0.0,0.0,0.0,0.0,0.0,0.0,0.0,0.0,0.0,0.0,0.0,0.0,0.0,0.0,0.0,0.0,0.0,0.0,0.0,0.0,0.0,0.0,0.0,0.0,0.0,0.0,0.0,0.0,0.0,0.0,0.0,0.0,0.0,0.0,0.0,0.0,0.0,0.0,0.0,0.0,0.0,0.0,0.0,0.0,0.0,0.0,0.0,0.0,0.0,0.0,0.0,0.0,0.0,0.0,0.0,0.0,0.0,0.0,0.0,0.0,0.0,0.0,0.0,0.0,0.0,0.0,0.0,0.0,-1.2982,-1.2995,-1.2995,0.0,0.0,0.0,0.0,0.0,0.0,0.0,0.0,0.0,0.0,0.0,0.0,0.0,0.0,0.0,0.0,0.0,0.0,0.0,0.0,0.0,0.0,0.0,0.0,0.0,0.0,0.0,0.0,0.0,0.0,0.0,0.0,0.0,0.0,0.0,0.0,0.0,0.0,0.0,0.0,0.0,0.0,0.0,0.0,0.0,0.0,0.0,0.0,0.0,0.0,0.0,0.0,0.0,0.0,0.0,0.0,0.0,0.0,0.0,0.0,0.0,0.0,0.0,0.0,0.0,0.0,0.0,0.0,0.0,0.0,0.0,0.0,0.0,0.0,0.0,0.0,0.0,0.0,0.0,0.0,0.0,0.0,0.0,0.0,0.0,0.0,0.0,0.0,0.0,0.0,0.0,0.0,0.0,0.0,0.0,0.0,0.0,0.0,0.0,0.0,0.0,0.0,0.0,0.0,0.0,0.0,0.0,0.0,0.0,0.0,-1.3752,0.0,-1.4427,-1.4158,-1.3785,-1.3361,0.0,0.0,0.0,0.0,0.0,0.0,0.0,0.0,0.0,0.0,0.0,0.0,0.0,0.0,0.0,0.0,0.0,0.0,0.0,0.0,0.0,0.0,0.0,0.0,0.0,0.0,0.0,0.0,0.0,0.0,0.0,0.0,0.0,0.0,0.0,0.0,0.0,0.0,0.0,0.0,0.0,0.0,0.0,0.0,0.0,0.0,0.0,0.0,0.0,0.0,0.0,0.0,0.0,0.0,0.0,0.0,0.0,0.0,0.0,0.0,0.0,0.0,0.0,0.0,0.0,0.0,0.0,0.0,0.0,0.0,0.0,0.0,0.0,0.0,0.0,0.0,0.0,0.0,0.0,0.0,0.0,0.0,0.0,0.0,0.0,0.0,0.0,0.0,0.0,0.0,0.0,0.0,0.0,0.0,0.0,0.0,0.0,0.0,0.0,0.0,0.0,0.0,0.0,0.0,0.0,0.0,0.0,0.0,0.0,-1.5404,-1.536,-1.6761,-1.6249,-1.5244,0.0,0.0,0.0,0.0,0.0,0.0,0.0,0.0,0.0,0.0,0.0,0.0,0.0,0.0,0.0,0.0,0.0,0.0,0.0,0.0,0.0,0.0,0.0,0.0,0.0,0.0,0.0,0.0,0.0,0.0,0.0,0.0,0.0,0.0,0.0,0.0,0.0,0.0,0.0,0.0,0.0,0.0,0.0,0.0,0.0,0.0,0.0,0.0,0.0,0.0,0.0,0.0,0.0,0.0,0.0,0.0,0.0,0.0,0.0,0.0,0.0,0.0,0.0,0.0,0.0,0.0,0.0,0.0,0.0,0.0,0.0,0.0,0.0,0.0,0.0,0.0,0.0,0.0,0.0,0.0,0.0,0.0,0.0,0.0,0.0,0.0,0.0,0.0,0.0,0.0,0.0,0.0,0.0,0.0,0.0,0.0,0.0,0.0,0.0,0.0,0.0,0.0,0.0,0.0,0.0,0.0,0.0,0.0,0.0,-1.39,-1.4307,-1.5866,-1.8498,-1.6199,-1.5071,0.0,0.0,0.0,0.0,0.0,0.0,0.0,0.0,0.0,0.0,0.0,0.0,0.0,0.0,0.0,0.0,0.0,0.0,0.0,0.0,0.0,0.0,0.0,0.0,0.0,0.0,0.0,0.0,0.0,0.0,0.0,0.0,0.0,0.0,0.0,0.0,0.0,0.0,0.0,0.0,0.0,0.0,0.0,0.0,0.0,0.0,0.0,0.0,0.0,0.0,0.0,0.0,0.0,0.0,0.0,0.0,0.0,0.0,0.0,0.0,0.0,0.0,0.0,0.0,0.0,0.0,0.0,0.0,0.0,0.0,0.0,0.0,0.0,0.0,0.0,0.0,0.0,0.0,0.0,0.0,0.0,0.0,0.0,0.0,0.0,0.0,0.0,0.0,0.0,0.0,0.0,0.0,0.0,0.0,0.0,0.0,0.0,0.0,0.0,0.0,0.0,0.0,0.0,0.0,0.0,0.0,0.0,0.0,0.0,-1.43,0.0,-1.7543,0.0,-1.6702,-1.5194,0.0,0.0,0.0,0.0,0.0,0.0,0.0,0.0,0.0,0.0,0.0,0.0,0.0,0.0,0.0,0.0,0.0,0.0,0.0,0.0,0.0,0.0,0.0,0.0,0.0,0.0,0.0,0.0,0.0,0.0,0.0,0.0,0.0,0.0,0.0,0.0,0.0,0.0,0.0,0.0,0.0,0.0,0.0,0.0,0.0,0.0,0.0,0.0,0.0,0.0,0.0,0.0,0.0,0.0,0.0,0.0,0.0,0.0,0.0,0.0,0.0,0.0,0.0,0.0,0.0,0.0,0.0,0.0,0.0,0.0,0.0,0.0,0.0,0.0,0.0,0.0,0.0,0.0,0.0,0.0,0.0,0.0,0.0,0.0,0.0,0.0,0.0,0.0,0.0,0.0,0.0,0.0,0.0,0.0,0.0,0.0,0.0,0.0,0.0,0.0,0.0,0.0,0.0,0.0,0.0,0.0,0.0,0.0,-1.4951,-1.8647,-2.0412,-2.0276,-1.8439,-1.7851,-1.5742,0.0,0.0,0.0,0.0,0.0,0.0,0.0,0.0,0.0,0.0,0.0,0.0,0.0,0.0,0.0,0.0,0.0,0.0,0.0,0.0,0.0,0.0,0.0,0.0,0.0,0.0,0.0,0.0,0.0,0.0,0.0,0.0,0.0,0.0,0.0,0.0,0.0,0.0,0.0,0.0,0.0,0.0,0.0,0.0,0.0,0.0,0.0,0.0,0.0,0.0,0.0,0.0,0.0,0.0,0.0,0.0,0.0,0.0,0.0,0.0,0.0,0.0,0.0,0.0,0.0,0.0,0.0,0.0,0.0,0.0,0.0,0.0,0.0,0.0,0.0,0.0,0.0,0.0,0.0,0.0,0.0,0.0,0.0,0.0,0.0,0.0,0.0,0.0,0.0,0.0,0.0,0.0,0.0,0.0,0.0,0.0,0.0,0.0,0.0,0.0,0.0,0.0,0.0,0.0,0.0,0.0,0.0,0.0,0.0,-1.7721,-1.8534,-1.9453,-2.0285,-1.71,-1.5482,0.0,0.0,0.0,0.0,0.0,0.0,0.0,0.0,0.0,0.0,0.0,0.0,0.0,0.0,0.0,0.0,0.0,0.0,0.0,0.0,0.0,0.0,0.0,0.0,0.0,0.0,0.0,0.0,0.0,0.0,0.0,0.0,0.0,0.0,0.0,0.0,0.0,0.0,0.0,0.0,0.0,0.0,0.0,0.0,0.0,0.0,0.0,0.0,0.0,0.0,0.0,0.0,0.0,0.0,0.0,0.0,0.0,0.0,0.0,0.0,0.0,0.0,0.0,0.0,0.0,0.0,0.0,0.0,0.0,0.0,0.0,0.0,0.0,0.0,0.0,0.0,0.0,0.0,0.0,0.0,0.0,0.0,0.0,0.0,0.0,0.0,0.0,0.0,0.0,0.0,0.0,0.0,0.0,0.0,0.0,0.0,0.0,0.0,0.0,0.0,0.0,0.0,0.0,0.0,0.0,0.0,0.0,0.0,0.0,-2.0127,-2.1003,-2.1675,-2.2114,-1.8886,-1.6927,-1.6407,0.0,0.0,0.0,0.0,0.0,0.0,0.0,0.0,0.0,0.0,0.0,0.0,0.0,0.0,0.0,0.0,0.0,0.0,0.0,0.0,0.0,0.0,0.0,0.0,0.0,0.0,0.0,0.0,0.0,0.0,0.0,0.0,0.0,0.0,0.0,0.0,0.0,0.0,0.0,0.0,0.0,0.0,0.0,0.0,0.0,0.0,0.0,0.0,0.0,0.0,0.0,0.0,0.0,0.0,0.0,0.0,0.0,0.0,0.0,0.0,0.0,0.0,0.0,0.0,0.0,0.0,0.0,0.0,0.0,0.0,0.0,0.0,0.0,0.0,0.0,0.0,0.0,0.0,0.0,0.0,0.0,0.0,0.0,0.0,0.0,0.0,0.0,0.0,0.0,0.0,0.0,0.0,0.0,0.0,0.0,0.0,0.0,0.0,0.0,0.0,0.0,0.0,0.0,0.0,0.0,0.0,0.0,0.0,-2.5022,-2.6919,-2.6532,-2.3745,-2.2614,-1.9763,0.0,0.0,0.0,0.0,0.0,0.0,0.0,0.0,0.0,0.0,0.0,0.0,0.0,0.0,0.0,0.0,0.0,0.0,0.0,0.0,0.0,0.0,0.0,0.0,0.0,0.0,0.0,0.0,0.0,0.0,0.0,0.0,0.0,0.0,0.0,0.0,0.0,0.0,0.0,0.0,0.0,0.0,0.0,0.0,0.0,0.0,0.0,0.0,0.0,0.0,0.0,0.0,0.0,0.0,0.0,0.0,0.0,0.0,0.0,0.0,0.0,0.0,0.0,0.0,0.0,0.0,0.0,0.0,0.0,0.0,0.0,0.0,0.0,0.0,0.0,0.0,0.0,0.0,0.0,0.0,0.0,0.0,0.0,0.0,0.0,0.0,0.0,0.0,0.0,0.0,0.0,0.0,0.0,0.0,0.0,0.0,0.0,0.0,0.0,0.0,0.0,0.0,0.0,0.0,0.0,0.0,0.0,0.0,0.0,-2.6578,-2.9487,-2.9892,-2.7534,-2.3588,-2.0798,0.0,0.0,0.0,0.0,0.0,0.0,0.0,0.0,0.0,0.0,0.0,0.0,0.0,0.0,0.0,0.0,0.0,0.0,0.0,0.0,0.0,0.0,0.0,0.0,0.0,0.0,0.0,0.0,0.0,0.0,0.0,0.0,0.0,0.0,0.0,0.0,0.0,0.0,0.0,0.0,0.0,0.0,0.0,0.0,0.0,0.0,0.0,0.0,0.0,0.0,0.0,0.0,0.0,0.0,0.0,0.0,0.0,0.0,0.0,0.0,0.0,0.0,0.0,0.0,0.0,0.0,0.0,0.0,0.0,0.0,0.0,0.0,0.0,0.0,0.0,0.0,0.0,0.0,0.0,0.0,0.0,0.0,0.0,0.0,0.0,0.0,0.0,0.0,0.0,0.0,0.0,0.0,0.0,0.0,0.0,0.0,0.0,0.0,0.0,0.0,0.0,0.0,0.0,0.0,0.0,0.0,0.0,0.0,-2.5628,-2.8064,-3.1423,-3.2298,-3.0516,-2.6243,-2.2907,0.0,0.0,0.0,0.0,0.0,0.0,0.0,0.0,0.0,0.0,0.0,0.0,0.0,0.0,0.0,0.0,0.0,0.0,0.0,0.0,0.0,0.0,0.0,0.0,0.0,0.0,0.0,0.0,0.0,0.0,0.0,0.0,0.0,0.0,0.0,0.0,0.0,0.0,0.0,0.0,0.0,0.0,0.0,0.0,0.0,0.0,0.0,0.0,0.0,0.0,0.0,0.0,0.0,0.0,0.0,0.0,0.0,0.0,0.0,0.0,0.0,0.0,0.0,0.0,0.0,0.0,0.0,0.0,0.0,0.0,0.0,0.0,0.0,0.0,0.0,0.0,0.0,0.0,0.0,0.0,0.0,0.0,0.0,0.0,0.0,0.0,0.0,0.0,0.0,0.0,0.0,0.0,0.0,0.0,0.0,0.0,0.0,0.0,0.0,0.0,0.0,0.0,0.0,0.0,0.0,0.0,0.0,0.0,-2.7337,-2.9275,-3.2722,-3.3897,-3.2576,-2.9354,-2.5387,0.0,0.0,0.0,0.0,0.0,0.0,0.0,0.0,0.0,0.0,0.0,0.0,0.0,0.0,0.0,0.0,0.0,0.0,0.0,0.0,0.0,0.0,0.0,0.0,0.0,0.0,0.0,0.0,0.0,0.0,0.0,0.0,0.0,0.0,0.0,0.0,0.0,0.0,0.0,0.0,0.0,0.0,0.0,0.0,0.0,0.0,0.0,0.0,0.0,0.0,0.0,0.0,0.0,0.0,0.0,0.0,0.0,0.0,0.0,0.0,0.0,0.0,0.0,0.0,0.0,0.0,0.0,0.0,0.0,0.0,0.0,0.0,0.0,0.0,0.0,0.0,0.0,0.0,0.0,0.0,0.0,0.0,0.0,0.0,0.0,0.0,0.0,0.0,0.0,0.0,0.0,0.0,0.0,0.0,0.0,0.0,0.0,0.0,0.0,0.0,0.0,0.0,0.0,0.0,0.0,0.0,0.0,0.0,-2.7812,-2.9312,-3.2807,-3.4255,-3.339,-2.9283,-2.5747,0.0,0.0,0.0,0.0,0.0,0.0,0.0,0.0,0.0,0.0,0.0,0.0,0.0,0.0,0.0,0.0,0.0,0.0,0.0,0.0,0.0,0.0,0.0,0.0,0.0,0.0,0.0,0.0,0.0,0.0,0.0,0.0,0.0,0.0,0.0,0.0,0.0,0.0,0.0,0.0,0.0,0.0,0.0,0.0,0.0,0.0,0.0,0.0,-0.7758,0.0,0.0,0.0,0.0,0.0,0.0,0.0,0.0,0.0,0.0,0.0,0.0,0.0,0.0,0.0,0.0,0.0,0.0,0.0,0.0,0.0,0.0,0.0,0.0,0.0,0.0,0.0,0.0,0.0,0.0,0.0,0.0,0.0,0.0,0.0,0.0,0.0,0.0,0.0,0.0,0.0,0.0,0.0,0.0,0.0,0.0,0.0,0.0,0.0,0.0,0.0,0.0,0.0,0.0,0.0,0.0,0.0,0.0,0.0,-2.8331,-3.0344,-3.2937,-3.3928,-3.3102,-2.9777,-2.6812,0.0,0.0,0.0,0.0,0.0,0.0,0.0,0.0,0.0,0.0,0.0,0.0,0.0,0.0,0.0,0.0,0.0,0.0,0.0,0.0,0.0,0.0,0.0,0.0,0.0,0.0,0.0,0.0,0.0,0.0,0.0,0.0,0.0,0.0,0.0,0.0,0.0,0.0,0.0,0.0,0.0,0.0,0.0,0.0,0.0,0.0,0.0,0.0,0.0,0.0,0.0,0.0,0.0,0.0,0.0,0.0,0.0,0.0,0.0,0.0,0.0,0.0,0.0,0.0,0.0,0.0,0.0,0.0,0.0,0.0,0.0,0.0,0.0,0.0,0.0,0.0,0.0,0.0,0.0,0.0,0.0,0.0,0.0,0.0,0.0,0.0,0.0,0.0,0.0,0.0,0.0,0.0,0.0,0.0,0.0,0.0,0.0,0.0,0.0,0.0,0.0,0.0,0.0,0.0,0.0,0.0,0.0,-2.5347,-2.8657,-3.1499,-3.2928,-3.3326,-3.2702,-3.0462,-2.7918,-2.5159,0.0,0.0,0.0,0.0,0.0,0.0,0.0,0.0,0.0,0.0,0.0,0.0,0.0,0.0,0.0,0.0,0.0,0.0,0.0,0.0,0.0,0.0,0.0,0.0,0.0,0.0,0.0,0.0,0.0,0.0,0.0,0.0,0.0,0.0,0.0,0.0,0.0,0.0,-0.1829,-0.272,0.0,0.0,0.0,0.0,0.0,0.0,0.0,0.0,-0.9408,0.0,0.0,0.0,0.0,0.0,0.0,0.0,0.0,0.0,0.0,0.0,0.0,0.0,0.0,0.0,0.0,0.0,0.0,0.0,0.0,0.0,0.0,0.0,0.0,0.0,0.0,0.0,0.0,0.0,0.0,0.0,0.0,0.0,0.0,0.0,0.0,0.0,0.0,0.0,0.0,0.0,0.0,0.0,0.0,0.0,0.0,0.0,0.0,0.0,0.0,0.0,0.0,0.0,0.0,0.0,0.0,-2.4348,-2.5847,-2.8194,-3.1499,-3.2431,-3.2834,-3.2652,-3.0534,-2.8116,-2.5364,0.0,0.0,0.0,0.0,0.0,0.0,0.0,0.0,0.0,0.0,0.0,0.0,0.0,0.0,0.0,0.0,0.0,0.0,0.0,0.0,0.0,0.0,0.0,0.0,0.0,0.0,0.0,0.0,0.0,0.0,0.0,0.0,0.0,0.0,0.0,0.0,0.0,0.0,0.0,-0.3357,-0.4055,0.0,0.0,0.0,0.0,0.0,0.0,0.0,0.0,-1.1721,0.0,0.0,0.0,0.0,0.0,0.0,0.0,0.0,0.0,0.0,0.0,0.0,0.0,0.0,0.0,0.0,0.0,0.0,0.0,0.0,0.0,0.0,0.0,0.0,0.0,0.0,0.0,0.0,0.0,0.0,0.0,0.0,0.0,0.0,0.0,0.0,0.0,0.0,0.0,0.0,0.0,0.0,0.0,0.0,0.0,0.0,0.0,0.0,0.0,0.0,0.0,0.0,0.0,0.0,0.0,-2.4511,-2.6672,-2.9244,-3.2345,-3.244,-3.2629,-3.2931,-2.9908,-2.7296,0.0,0.0,0.0,0.0,0.0,0.0,0.0,0.0,0.0,0.0,0.0,0.0,0.0,0.0,0.0,0.0,0.0,0.0,0.0,0.0,0.0,0.0,0.0,0.0,0.0,0.0,0.0,0.0,0.0,0.0,0.0,0.0,0.0,0.0,0.0,0.0,0.0,0.0,0.0,0.0,-0.3821,-0.4494,-0.6143,0.0,0.0,0.0,0.0,0.0,0.0,-1.1904,-1.2523,0.0,0.0,0.0,0.0,0.0,0.0,0.0,0.0,0.0,0.0,0.0,0.0,0.0,0.0,0.0,0.0,0.0,0.0,0.0,0.0,0.0,0.0,0.0,0.0,0.0,0.0,0.0,0.0,0.0,0.0,0.0,0.0,0.0,0.0,0.0,0.0,0.0,0.0,0.0,0.0,0.0,0.0,0.0,0.0,0.0,0.0,0.0,0.0,0.0,0.0,0.0,0.0,0.0,0.0,0.0,-2.4454,-2.7317,-3.0234,-3.3115,-3.269,-3.2588,-3.2996,-2.9173,-2.6323,0.0,0.0,0.0,0.0,0.0,0.0,0.0,0.0,0.0,0.0,0.0,0.0,0.0,0.0,0.0,0.0,0.0,0.0,0.0,0.0,0.0,0.0,0.0,0.0,0.0,0.0,0.0,0.0,0.0,0.0,0.0,0.0,0.0,0.0,0.0,0.0,0.0,0.0,0.0,0.0,0.0,-0.5375,-0.6821,-0.722,0.0,0.0,0.0,0.0,-1.2024,-1.2839,0.0,0.0,0.0,0.0,0.0,0.0,0.0,0.0,0.0,0.0,0.0,0.0,0.0,0.0,0.0,0.0,0.0,0.0,0.0,0.0,0.0,0.0,0.0,0.0,0.0,0.0,0.0,0.0,0.0,0.0,0.0,0.0,0.0,0.0,0.0,0.0,0.0,0.0,0.0,0.0,0.0,0.0,0.0,0.0,0.0,0.0,0.0,0.0,0.0,0.0,0.0,0.0,0.0,0.0,0.0,0.0,-2.5126,-2.7315,-3.0016,-3.3181,-3.3031,-3.2691,-3.2368,-2.8791,-2.5763,0.0,0.0,0.0,0.0,0.0,0.0,0.0,0.0,0.0,0.0,0.0,0.0,0.0,0.0,0.0,0.0,0.0,0.0,0.0,0.0,0.0,0.0,0.0,0.0,0.0,0.0,0.0,0.0,0.0,0.0,0.0,0.0,0.0,0.0,0.0,0.0,0.0,0.0,0.0,0.0,0.0,-0.7199,-0.7711,-0.8476,-0.9324,0.0,0.0,-1.3254,-1.3275,-1.4822,0.0,0.0,0.0,0.0,0.0,0.0,0.0,0.0,0.0,0.0,0.0,0.0,0.0,0.0,0.0,0.0,0.0,0.0,0.0,0.0,0.0,0.0,0.0,0.0,0.0,0.0,0.0,0.0,0.0,0.0,0.0,0.0,0.0,0.0,0.0,0.0,0.0,0.0,0.0,0.0,0.0,0.0,0.0,0.0,0.0,0.0,0.0,0.0,0.0,0.0,0.0,0.0,0.0,0.0,0.0,-2.1444,-2.59,-2.8166,-3.0935,-3.4168,-3.3137,-3.2744,-3.3254,-2.8027,-2.4744,0.0,0.0,0.0,0.0,0.0,0.0,0.0,0.0,0.0,0.0,0.0,0.0,0.0,0.0,0.0,0.0,0.0,0.0,0.0,0.0,0.0,0.0,0.0,0.0,0.0,0.0,0.0,0.0,0.0,0.0,0.0,0.0,0.0,0.0,0.0,0.0,0.0,0.0,0.0,0.0,0.0,0.0,-0.8717,-0.9753,0.0,0.0,0.0,-1.4273,-1.4233,0.0,0.0,0.0,0.0,0.0,0.0,0.0,0.0,0.0,0.0,0.0,0.0,0.0,0.0,0.0,0.0,0.0,0.0,0.0,0.0,0.0,0.0,0.0,0.0,0.0,0.0,0.0,0.0,0.0,0.0,0.0,0.0,0.0,0.0,0.0,0.0,0.0,0.0,0.0,0.0,0.0,0.0,0.0,0.0,0.0,0.0,0.0,0.0,0.0,0.0,0.0,0.0,0.0,0.0,0.0,0.0,0.0,-2.6152,-2.8735,-3.1536,-3.4511,-3.3182,-3.2736,-3.3453,-2.7974,0.0,0.0,0.0,0.0,0.0,0.0,0.0,0.0,0.0,0.0,0.0,0.0,0.0,0.0,0.0,0.0,0.0,0.0,0.0,0.0,0.0,0.0,0.0,0.0,0.0,0.0,0.0,-0.3209,0.0,0.0,0.0,0.0,0.0,0.0,0.0,0.0,0.0,0.0,0.0,0.0,0.0,0.0,-0.8683,-0.9872,-1.1075,-1.2184,0.0,0.0,-1.5079,-1.5121,-1.5799,-1.5927,0.0,0.0,0.0,0.0,0.0,0.0,0.0,0.0,0.0,0.0,0.0,0.0,0.0,0.0,0.0,0.0,0.0,0.0,0.0,0.0,0.0,0.0,0.0,0.0,0.0,0.0,0.0,0.0,0.0,0.0,0.0,0.0,0.0,0.0,0.0,0.0,0.0,0.0,0.0,0.0,0.0,0.0,0.0,0.0,0.0,0.0,0.0,0.0,0.0,0.0,0.0,0.0,0.0,0.0,0.0,-2.5429,-2.8501,-3.1203,-3.3388,-3.3088,-3.2696,-3.2377,-2.9319,-2.593,0.0,0.0,0.0,0.0,0.0,0.0,0.0,0.0,0.0,0.0,0.0,0.0,0.0,0.0,0.0,0.0,0.0,0.0,0.0,0.0,0.0,0.0,0.0,0.0,0.0,0.0,0.0,0.0,0.0,0.0,0.0,0.0,0.0,0.0,0.0,0.0,0.0,0.0,0.0,0.0,0.0,-1.1125,-1.1179,-1.263,-1.4089,0.0,0.0,-1.5581,-1.5957,-1.6926,-1.6837,-1.4447,0.0,0.0,0.0,0.0,0.0,0.0,0.0,0.0,0.0,0.0,0.0,0.0,0.0,0.0,0.0,0.0,0.0,0.0,0.0,0.0,0.0,0.0,0.0,0.0,0.0,0.0,0.0,0.0,0.0,0.0,0.0,0.0,0.0,0.0,0.0,0.0,0.0,0.0,0.0,0.0,0.0,0.0,0.0,0.0,0.0,0.0,0.0,0.0,0.0,0.0,0.0,0.0,0.0,-2.1812,-2.5493,-2.8699,-3.1338,-3.3275,-3.2546,-3.2174,-3.2283,-2.8758,-2.5497,0.0,0.0,0.0,0.0,0.0,0.0,0.0,0.0,0.0,0.0,0.0,0.0,0.0,0.0,0.0,0.0,0.0,0.0,0.0,0.0,0.0,0.0,0.0,0.0,0.0,0.0,0.0,0.0,-0.6309,-0.6394,-0.6149,0.0,0.0,0.0,0.0,0.0,0.0,0.0,0.0,0.0,0.0,-1.2358,-1.3321,-1.4636,0.0,0.0,-1.6614,-1.675,-1.6281,-1.6857,-1.6631,-1.4463,-1.4162,0.0,0.0,0.0,0.0,0.0,0.0,0.0,0.0,0.0,0.0,0.0,0.0,0.0,0.0,0.0,0.0,0.0,0.0,0.0,0.0,0.0,0.0,0.0,0.0,0.0,0.0,0.0,0.0,0.0,0.0,0.0,0.0,0.0,0.0,0.0,0.0,0.0,0.0,0.0,0.0,0.0,0.0,0.0,0.0,0.0,0.0,0.0,0.0,0.0,0.0,0.0,0.0,-2.2041,-2.525,-2.8515,-3.0937,-3.2513,-3.1707,-3.1437,-3.1651,-2.8779,-2.5968,0.0,0.0,0.0,0.0,0.0,0.0,0.0,0.0,0.0,0.0,0.0,0.0,0.0,0.0,0.0,0.0,0.0,0.0,0.0,0.0,0.0,0.0,0.0,0.0,0.0,0.0,0.0,0.0,-0.7026,-0.7067,-0.6917,0.0,0.0,0.0,0.0,0.0,0.0,0.0,0.0,0.0,0.0,-1.382,-1.4832,-1.5782,-1.655,-1.6854,-1.7162,-1.7211,-1.6805,-1.7192,-1.6953,-1.5244,0.0,0.0,0.0,0.0,0.0,0.0,0.0,0.0,0.0,0.0,0.0,0.0,0.0,0.0,0.0,0.0,0.0,0.0,0.0,0.0,0.0,0.0,0.0,0.0,0.0,0.0,0.0,0.0,0.0,0.0,-1.3379,0.0,0.0,0.0,0.0,0.0,0.0,0.0,0.0,0.0,0.0,0.0,0.0,0.0,0.0,0.0,0.0,0.0,0.0,0.0,0.0,0.0,0.0,-2.2334,-2.452,-2.7798,-2.9847,-3.0559,-3.0539,-3.0539,-3.0543,-2.9748,-2.7847,-2.4684,0.0,0.0,0.0,0.0,0.0,0.0,0.0,0.0,0.0,0.0,0.0,0.0,0.0,0.0,0.0,0.0,0.0,0.0,0.0,0.0,0.0,0.0,0.0,0.0,0.0,0.0,-0.6015,-0.6387,-0.692,0.0,0.0,0.0,0.0,0.0,0.0,0.0,0.0,0.0,0.0,-1.4171,-1.5658,-1.5382,-1.5903,-1.6667,-1.7467,-1.6968,-1.6815,-1.7693,-1.8217,-1.8134,0.0,0.0,0.0,0.0,0.0,0.0,0.0,0.0,0.0,0.0,0.0,0.0,0.0,0.0,0.0,0.0,0.0,0.0,0.0,0.0,0.0,0.0,0.0,0.0,0.0,0.0,0.0,-1.475,-1.449,0.0,0.0,0.0,0.0,0.0,0.0,0.0,0.0,0.0,0.0,0.0,-2.098,-2.0856,0.0,0.0,0.0,0.0,0.0,0.0,0.0,0.0,0.0,0.0,0.0,0.0,-2.2306,-2.4662,-2.8252,-3.0257,-3.0489,-3.0489,-3.0489,-3.0489,-2.9777,-2.7698,-2.4061,0.0,0.0,0.0,0.0,0.0,0.0,0.0,0.0,0.0,0.0,0.0,0.0,0.0,0.0,0.0,0.0,0.0,0.0,0.0,0.0,0.0,0.0,0.0,0.0,0.0,-0.7617,0.0,0.0,0.0,0.0,0.0,0.0,0.0,0.0,0.0,0.0,0.0,-1.2814,-1.4082,-1.4827,-1.5752,-1.7119,-1.7593,-1.8418,0.0,0.0,0.0,0.0,0.0,0.0,0.0,0.0,0.0,0.0,0.0,0.0,0.0,0.0,-1.6846,-1.6012,-1.5914,-1.617,-1.6795,0.0,0.0,0.0,0.0,0.0,0.0,0.0,0.0,0.0,0.0,0.0,0.0,0.0,0.0,-1.6997,0.0,-1.5666,0.0,0.0,0.0,0.0,0.0,0.0,0.0,0.0,-2.0713,-2.2041,-2.3401,-2.3305,-2.3086,0.0,-2.2751,-2.0702,0.0,0.0,0.0,0.0,0.0,0.0,0.0,0.0,-2.288,-2.5009,-2.86,-3.0489,-3.0489,-3.0489,-3.0489,-3.0489,-2.9247,-2.7218,-2.4324,-2.0578,-1.7639,0.0,0.0,0.0,0.0,0.0,0.0,0.0,0.0,0.0,0.0,0.0,0.0,0.0,0.0,0.0,0.0,0.0,0.0,0.0,0.0,0.0,0.0,0.0,-0.8237,0.0,0.0,0.0,0.0,0.0,0.0,0.0,0.0,0.0,-1.2289,-1.3305,-1.4496,-1.5758,-1.6228,-1.6873,-1.8089,0.0,0.0,0.0,0.0,0.0,0.0,0.0,-1.9465,-1.9015,-1.9138,-1.9306,-1.9458,-1.9544,-1.9525,-1.9233,0.0,0.0,-1.7512,-1.7151,-1.7292,-1.781,-1.8174,-1.85,-1.8791,-1.9377,-1.9865,0.0,0.0,0.0,0.0,0.0,0.0,0.0,0.0,-2.0193,-2.0041,0.0,-1.815,0.0,0.0,0.0,0.0,0.0,-1.9946,0.0,0.0,-2.5226,-2.654,-2.4995,-2.5652,-2.5622,-2.4919,-2.4775,-2.3576,-2.1492,-2.0205,0.0,0.0,0.0,0.0,0.0,0.0,-2.4027,-2.5529,-2.8788,-3.0489,-3.0489,-3.0489,-3.0489,-3.0431,-2.827,-2.6561,-2.541,-2.2526,-1.9779,-1.7301,-1.5207,0.0,0.0,0.0,0.0,0.0,0.0,0.0,0.0,0.0,0.0,0.0,0.0,0.0,0.0,0.0,0.0,0.0,0.0,0.0,0.0,-0.7956,0.0,0.0,0.0,0.0,0.0,0.0,0.0,0.0,0.0,0.0,-1.2976,-1.451,-1.6015,-1.6796,0.0,0.0,0.0,0.0,-1.9841,-1.9388,-1.9212,-1.94,-1.9915,-2.1069,-2.1664,-2.0893,0.0,0.0,-2.147,-2.0798,-2.0324,-1.951,-2.0444,-2.0739,-1.9056,-1.8538,-1.8314,-1.8392,-1.9215,-2.0019,-2.075,-2.1576,-2.2286,-2.5608,0.0,0.0,0.0,0.0,-2.238,-2.2631,-2.334,-2.2823,-2.2241,-2.1593,-2.073,0.0,0.0,0.0,0.0,0.0,0.0,-2.2264,-2.3128,-2.4492,-2.5693,-2.6795,-2.7039,-2.7112,-2.7091,-2.7037,-2.655,-2.5673,-2.528,-2.2663,-1.8021,0.0,0.0,0.0,0.0,-2.4713,-2.6956,-2.9303,-3.0489,-3.0489,-3.0489,-3.0342,-3.0006,-2.7797,-2.6448,-2.6092,-2.3557,-2.1223,-1.9185,-1.7263,0.0,0.0,0.0,0.0,0.0,0.0,0.0,0.0,0.0,0.0,0.0,0.0,0.0,0.0,0.0,0.0,0.0,0.0,0.0,-0.8053,-0.8879,-0.9295,0.0,0.0,0.0,0.0,0.0,0.0,0.0,0.0,0.0,-1.591,-1.5794,-1.61,0.0,0.0,-1.7975,-1.8802,-2.0171,-2.1599,-2.2959,-2.3029,0.0,0.0,-2.349,-2.2912,-2.2744,-2.3254,-2.3469,-2.2714,-2.2898,-2.2992,-2.2513,-2.245,-2.2196,-2.1565,-2.1076,-2.1002,-2.1568,-2.2423,-2.3052,-2.3348,-2.4254,-2.5057,-2.9288,-2.6892,-2.5966,-2.5626,-2.5668,-2.5076,-2.5306,-2.6078,-2.5474,-2.4975,-2.4603,-2.366,-2.2685,-2.1679,-2.0536,0.0,0.0,0.0,-2.3899,-2.5296,-2.5661,-2.6552,-2.787,-2.794,-2.7965,-2.8103,-2.8284,-2.8117,-2.7624,-2.7257,-2.5056,-2.1197,0.0,0.0,-2.17,-2.3582,-2.5443,-2.7303,-2.9044,-2.9941,-2.9946,-2.9941,-2.9705,-2.9171,-2.7375,-2.6289,-2.607,-2.415,-2.222,-2.0442,-1.8783,-1.6403,0.0,0.0,0.0,0.0,0.0,0.0,0.0,0.0,0.0,0.0,0.0,-0.7263,-0.6091,0.0,0.0,0.0,-0.7713,-0.8426,-0.9491,-0.9954,0.0,0.0,0.0,0.0,0.0,0.0,0.0,-1.3425,-1.5642,-1.7347,-1.7742,-1.7673,-1.8038,-1.9263,-1.9617,-2.0083,-2.0979,0.0,-2.3677,-2.4743,-2.4814,-2.4869,-2.5329,-2.4881,-2.4445,-2.4453,-2.4346,-2.4134,-2.3774,-2.4071,-2.4176,-2.3854,-2.3501,-2.316,-2.2807,-2.2549,-2.254,-2.3073,-2.3974,-2.4774,-2.5041,-2.5791,-2.6436,-3.192,-3.1318,-2.888,-2.7694,-2.7409,-2.7424,-2.7641,-2.799,-2.8005,-2.7947,-2.7762,-2.6666,-2.5563,-2.4487,-2.2496,0.0,-2.4141,-2.4735,-2.5753,-2.7166,-2.7976,-2.8324,-2.8327,-2.8302,-2.8247,-2.8122,-2.855,-2.847,-2.7879,-2.708,-2.6192,-2.5249,-2.4916,-2.4453,-2.3983,-2.5091,-2.6094,-2.6928,-2.8252,-2.897,-2.9097,-2.9051,-2.8787,-2.8235,-2.6995,-2.6054,-2.5472,-2.4216,-2.2798,-2.1204,-1.9851,-1.8059,-1.5665,0.0,0.0,0.0,0.0,0.0,0.0,0.0,0.0,0.0,0.0,0.0,0.0,0.0,0.0,0.0,-0.9621,0.0,-1.1217,-1.1208,0.0,0.0,0.0,-1.3052,-1.3822,-1.4802,-1.5463,-1.5519,0.0,0.0,-1.8754,-1.9883,-2.115,-2.2573,-2.3412,-2.3893,-2.4038,-2.4998,-2.5718,-2.5373,-2.5314,-2.5217,-2.517,-2.548,-2.5791,-2.5733,-2.5464,-2.4946,-2.452,-2.4466,-2.4325,-2.3884,-2.3797,-2.3657,-2.3178,-2.3129,-2.3226,-2.332,-2.4243,-2.5256,-2.5712,-2.6054,-2.6416,-3.347,-3.3259,-3.2369,-3.123,-3.0086,-3.0071,-2.993,-2.973,-2.97,-2.9249,-2.848,-2.8155,-2.7355,-2.6228,-2.5993,-2.5991,-2.618,-2.7099,-2.756,-2.7641,-2.7853,-2.783,-2.7649,-2.7662,-2.7556,-2.7382,-2.7479,-2.7403,-2.7199,-2.732,-2.6497,-2.4872,-2.498,-2.4654,-2.3882,-2.4431,-2.5503,-2.7025,-2.7401,-2.806,-2.9065,-2.8709,-2.82,-2.7558,-2.6404,-2.5337,-2.4353,-2.3493,-2.2532,-2.1369,-2.0199,-1.8541,-1.6291,-1.3291,0.0,0.0,0.0,0.0,0.0,0.0,0.0,0.0,0.0,-0.9003,-0.6751,0.0,-0.9839,0.0,-1.0972,-1.2431,-1.3013,-1.3059,0.0,0.0,-1.454,-1.5076,-1.5428,-1.7289,-1.801,-1.6705,-1.8497,-1.9847,-1.9846,-2.0984,-2.2578,-2.4585,-2.4036,-2.3593,-2.4306,-2.5672,-2.6595,-2.6535,-2.6986,-2.7352,-2.7003,-2.6399,-2.5931,-2.5904,-2.5221,-2.4625,-2.454,-2.4507,-2.4315,-2.3884,-2.3797,-2.3624,-2.3178,-2.3647,-2.4094,-2.4187,-2.4303,-2.4397,-2.4566,-2.4935,-2.5263,-3.4015,-3.3984,-3.3928,-3.2918,-3.132,-3.1102,-3.0613,-2.9991,-2.9991,-2.9652,-2.9083,-2.8816,-2.831,-2.7665,-2.7613,-2.7442,-2.7328,-2.8054,-2.8269,-2.8082,-2.8254,-2.8122,-2.7721,-2.7721,-2.7491,-2.7097,-2.7097,-2.7071,-2.6979,-2.7214,-2.6703,-2.5636,-2.5647,-2.512,-2.4048,-2.3691,-2.4098,-2.5256,-2.5599,-2.6361,-2.757,-2.7344,-2.6713,-2.5775,-2.4941,-2.3789,-2.2294,-2.1729,-2.0946,-1.9907,-1.8767,-1.7558,-1.621,-1.3369,-1.1347,0.0,0.0,0.0,0.0,0.0,0.0,0.0,0.0,0.0,0.0,0.0,-1.1211,-1.0804,-1.2386,-1.3532,-1.3759,-1.4057,-1.4511,-1.5226,-1.5955,-1.6619,-1.7273,-1.8535,-1.9162,-1.8764,-1.9992,-2.1009,-2.1312,-2.2526,-2.3938,-2.553,-2.5241,-2.5252,-2.6126,-2.7066,-2.7594,-2.7618,-2.7956,-2.8099,-2.7788,-2.7003,-2.6354,-2.5937,-2.5475,-2.5009,-2.4593,-2.4507,-2.4325,-2.3927,-2.3797,-2.3667,-2.3232,-2.3474,-2.3854,-2.3734,-2.3551,-2.3661,-2.4425,-2.4713,-2.4787,-3.4378,-3.4378,-3.4541,-3.3687,-3.2128,-3.1515,-3.0538,-2.9329,-2.9245,-2.9285,-2.935,-2.8886,-2.8689,-2.8661,-2.8157,-2.7888,-2.7947,-2.8353,-2.857,-2.8555,-2.8927,-2.8746,-2.8174,-2.8159,-2.7822,-2.7205,-2.719,-2.7132,-2.7073,-2.6992,-2.6797,-2.6486,-2.6146,-2.5322,-2.3985,-2.2785,-2.242,-2.2904,-2.3755,-2.4643,-2.5624,-2.5511,-2.4856,-2.3614,-2.307,-2.1914,-2.0135,-1.9706,-1.8986,-1.7888,-1.6856,-1.6205,-1.5998,-1.3276,-1.193,0.0,-1.0726,0.0,0.0,0.0,0.0,0.0,0.0,0.0,0.0,-1.2599,-1.2719,-1.3044,-1.3874,-1.4385,-1.4339,-1.4945,-1.566,-1.6498,-1.716,-1.7954,-1.8919,-1.9315,-1.9811,-2.0753,-2.1221,-2.1799,-2.2362,-2.3764,-2.479,-2.5138,-2.6069,-2.6878,-2.7866,-2.8156,-2.8307,-2.8471,-2.8259,-2.7926,-2.7563,-2.7208,-2.6697,-2.6063,-2.5686,-2.5433,-2.4625,-2.4464,-2.4315,-2.397,-2.3797,-2.3624,-2.3222,-2.3144,-2.3057,-2.2925,-2.2706,-2.295,-2.4178,-2.4542,-2.4542,-3.635,-3.6304,-3.5582,-3.4911,-3.4151,-3.306,-3.0821,-2.7853,-2.7378,-2.7513,-2.8157,-2.8535,-2.8689,-2.8675,-2.8563,-2.8521,-2.8579,-2.9118,-2.9388,-2.9374,-2.9466,-2.9171,-2.859,-2.8576,-2.8265,-2.7683,-2.7669,-2.7386,-2.6847,-2.7164,-2.6281,-2.4364,-2.4322,-2.3644,-2.2242,0.0,0.0,0.0,-2.3827,-2.4696,-2.4873,-2.3995,-2.3149,-2.236,-2.1528,0.0,-1.9156,-1.8982,-1.8355,-1.7112,-1.6804,0.0,0.0,0.0,0.0,0.0,0.0,0.0,0.0,0.0,0.0,0.0,-1.392,-1.3307,-1.1982,-1.2841,-1.3922,-1.5007,-1.5599,-1.6145,-1.6762,-1.7221,-1.7706,-1.8201,-1.8918,-1.9438,-1.9528,-2.0898,-2.1617,-2.074,-2.1484,-2.1943,-2.1668,-2.237,-2.3031,-2.3328,-2.4869,-2.6092,-2.6394,-2.737,-2.807,-2.8191,-2.7926,-2.7644,-2.7522,-2.6757,-2.6229,-2.5812,-2.5221,-2.4754,-2.454,-2.4368,-2.4249,-2.4067,-2.3797,-2.3537,-2.3416,-2.3232,-2.3013,-2.2847,-2.2574,-2.2432,-2.2652,-2.3115,-2.3391,-3.6368,0.0,-3.603,-3.5248,0.0,-3.3336,-3.1264,-2.8482,-2.854,-2.859,-2.8703,-2.9012,-2.9139,-2.9111,-2.8507,-2.8283,-2.8226,-2.7917,-2.8113,-2.8689,-2.8703,-2.8703,-2.8689,-2.8689,-2.841,-2.7819,-2.7805,-2.7636,-2.7313,-2.7173,-2.6453,-2.5241,-2.4853,-2.4224,-2.3345,-2.2711,-2.2366,-2.2291,-2.3144,-2.3839,-2.4351,-2.3854,-2.3045,-2.2034,0.0,0.0,0.0,0.0,0.0,0.0,0.0,0.0,0.0,0.0,0.0,-1.5682,-1.4907,-1.4841,-1.5739,-1.5831,-1.6038,-1.6542,-1.6567,-1.5731,-1.3766,-1.5273,-1.6304,-1.6295,-1.6643,-1.7055,-1.7458,-1.8045,-1.8495,-1.8696,-1.9333,-1.9705,-1.9745,-2.0641,-2.125,-2.1024,-2.1396,-2.1627,-2.1669,-2.231,-2.2737,-2.2854,-2.4148,-2.5398,-2.6036,-2.7117,-2.7869,-2.7846,-2.7684,-2.7482,-2.733,-2.6745,-2.6093,-2.5895,-2.5295,-2.4743,-2.4411,-2.4292,-2.411,-2.3894,-2.3634,-2.345,-2.3319,-2.3101,-2.2891,-2.2662,-2.2397,-2.2185,-2.1963,-2.2167,-2.2422,-3.5975,-3.6148,-3.6211,-3.5461,-3.4228,-3.3547,-3.1975,-2.9892,0.0,0.0,0.0,-2.9504,-2.9602,-2.9532,-2.8549,-2.8099,-2.8029,-2.6889,-2.6916,-2.7893,-2.7817,-2.8008,-2.848,-2.8507,-2.823,-2.7772,-2.7758,-2.7702,-2.7577,-2.6991,-2.6657,-2.6462,-2.5653,-2.5028,-2.4692,-2.4216,-2.3543,-2.2754,-2.2574,-2.2956,-2.3874,-2.373,-2.3066,-2.1906,-2.1917,-2.0951,-1.8877,-1.8999,-1.8374,-1.6846,-1.6426,-1.637,-1.6573,-1.6162,-1.6251,-1.7071,-1.7149,-1.755,-1.8444,-1.8513,-1.8577,-1.8748,-1.8501,-1.7634,-1.604,-1.7723,-1.8307,-1.7003,-1.7366,-1.7641,-1.7614,-1.8376,-1.8863,-1.8825,-1.9236,-1.9576,-1.9687,-2.0031,-2.0553,-2.1123,-2.1271,-2.1434,-2.2003,-2.2639,-2.2979,-2.2955,-2.3766,-2.4787,-2.581,-2.6981,-2.7708,-2.7534,-2.736,-2.7237,-2.7044,-2.6539,-2.6166,-2.577,-2.5327,-2.4828,-2.4368,-2.412,-2.3937,-2.3667,-2.3503,-2.3285,-2.3135,-2.2925,-2.2662,-2.2397,-2.223,-2.2008,-2.1785,-2.1687,-2.182,-3.6646,-3.6753,-3.6352,-3.6166,-3.6029,-3.504,-3.3336,-3.1124,-2.9605,-2.8605,-2.8129,-2.9153,-2.9602,-2.9602,-2.942,-2.935,-2.9305,-2.8508,-2.8225,0.0,-2.7824,-2.7584,-2.765,-2.7663,-2.7624,-2.7544,-2.7564,-2.7235,-2.6709,-2.6482,-2.6099,-2.5483,-2.452,-2.3925,-2.3637,-2.3552,-2.3623,-2.3838,-2.3243,-2.2991,-2.3138,-2.2199,-2.1619,-2.1374,-2.0648,-1.984,-1.9104,-1.9106,-1.845,-1.7047,-1.738,-1.769,-1.7836,-1.7775,-1.8185,-1.9149,-1.9264,-1.9505,-2.0014,-2.006,-1.9767,-1.9014,-1.8402,-1.7687,-1.6875,-1.7591,-1.7808,-1.7031,-1.7703,-1.8212,-1.8119,-1.8857,-1.9367,-1.921,-1.9304,-1.9479,-1.9828,-2.0232,-2.0745,-2.1347,-2.1567,-2.1738,-2.2069,-2.2643,-2.263,-2.1991,-2.3169,-2.4541,-2.4956,-2.634,-2.7371,-2.726,-2.688,-2.6652,-2.6434,-2.5904,-2.5454,-2.5327,-2.4786,-2.4368,-2.4206,-2.3851,-2.3677,-2.3721,-2.3319,-2.3023,-2.3047,-2.274,-2.2441,-2.223,-2.2097,-2.2008,-2.1741,-2.1687,-2.19,-3.6133,-3.6243,-3.6038,-3.5816,-3.5529,-3.423,-3.2682,-3.1071,-3.0115,-2.935,-2.8844,-2.9364,-2.9602,-2.9515,-2.8487,-2.8013,-2.7971,-2.6572,-2.629,-2.6874,-2.6613,-2.685,-2.7432,-2.7404,-2.7324,-2.7324,-2.7211,-2.7002,-2.6698,-2.6335,-2.5987,-2.5614,-2.4425,-2.3741,-2.3595,-2.3172,-2.3083,-2.328,-2.3493,-2.3624,-2.357,-2.3094,-2.2816,-2.2803,-2.2121,-2.149,-2.0996,-2.0744,-2.0065,-1.8897,-1.9083,-1.9269,-1.9367,-1.9338,-1.9581,-2.0135,-2.0388,-2.0522,-2.0509,-2.0331,-1.9867,-1.909,-1.87,-1.808,-1.6978,-1.7569,-1.7696,-1.7031,-1.7714,-1.8193,-1.8146,-1.892,-1.939,-1.9341,-1.9494,-1.9714,-1.9952,-2.062,-2.1077,-2.129,-2.166,-2.1919,-2.1874,-2.2167,-2.2199,-2.1616,-2.2843,-2.3714,-2.3747,-2.4808,-2.5799,-2.603,-2.5904,-2.5726,-2.5579,-2.539,-2.502,-2.4541,-2.4305,-2.411,-2.3894,-2.359,-2.3503,-2.3406,-2.3047,-2.2891,-2.2925,-2.2574,-2.2274,-2.2141,-2.1963,-2.183,-2.1741,-2.1687,-2.1865,-3.5587,-3.5705,-3.5522,-3.5108,-3.4365,-3.2897,-3.1688,-3.0698,-3.0321,-2.9911,-2.9551,-2.9571,-2.9602,-2.9411,-2.7848,-2.7114,-2.6843,-2.5223,-2.4913,-2.5691,-2.5614,-2.6056,-2.6891,-2.682,-2.6718,-2.6718,-2.6535,-2.642,-2.637,-2.5925,-2.5582,-2.5315,-2.4151,-2.3538,-2.3541,-2.2813,-2.25,-2.2622,-2.3352,-2.3776,-2.3763,-2.3878,-2.3936,-2.3907,-2.3599,-2.3138,-2.2634,-2.2156,-2.1482,-2.0638,-2.0584,-2.0584,-2.0584,-2.0584,-2.062,-2.0751,-2.086,-2.0732,-2.0269,-1.9835,-1.9375,-1.8844,-1.861,-1.8046,-1.7072,-1.7492,-1.7643,-1.7224,-1.7825,-1.8312,-1.8385,-1.9121,-1.9571,-1.9494,-1.9815,-2.0067,-2.0246,-2.093,-2.1423,-2.1385,-2.1725,-2.1919,-2.183,-2.1731,-2.1722,-2.1802,-2.2325,-2.2711,-2.2809,-2.3193,-2.3757,-2.4231,-2.4584,-2.4616,-2.4457,-2.4307,-2.4016,-2.34,-2.3517,-2.3396,-2.3222,-2.3276,-2.3319,-2.3101,-2.2882,-2.2706,-2.2618,-2.2318,-2.2052,-2.1963,-2.1785,-2.1607,-2.1508,-2.1508,-2.1553,-3.5587,-3.5582,-3.5085,-3.4199,-3.3163,-3.1886,-3.0968,-3.033,-2.9582,-2.92,-2.9162,-2.9477,-2.9571,-2.9495,-2.867,-2.8243,-2.8115,-2.6786,-2.6147,-2.6201,-2.5644,-2.5391,-2.5534,-2.537,-2.5276,-2.5324,-2.5147,-2.5087,-2.5087,-2.4803,-2.4342,-2.3665,-2.3074,-2.2843,-2.2774,-2.2257,-2.2156,-2.2592,-2.2683,-2.2725,-2.2756,-2.3215,-2.3463,-2.3463,-2.342,-2.3138,-2.2573,-2.2144,-2.1647,-2.1184,-2.1121,-2.1109,-2.1078,-2.1109,-2.1112,-2.1063,-2.0528,-1.9901,-1.921,-1.8543,-1.8196,-1.807,-1.751,-1.7038,-1.6709,-1.7185,-1.7538,-1.7587,-1.8332,-1.8776,-1.8762,-1.9829,-2.0338,-1.9916,-2.0177,-2.0561,-2.0888,-2.1062,-2.1342,-2.1959,-2.1828,-2.1785,-2.1963,-2.182,-2.1696,-2.1642,-2.1831,-2.193,-2.1805,-2.1895,-2.1976,-2.2258,-2.2721,-2.3193,-2.3139,-2.2526,-2.2262,-2.1996,-2.2085,-2.2217,-2.2315,-2.2643,-2.3057,-2.2599,-2.2344,-2.2113,-2.1998,-2.1919,-2.1642,-2.1553,-2.1419,-2.1347,-2.1141,-2.1087,-2.1132,-3.5621,-3.4898,-3.5096,-3.4206,-3.2539,-3.0662,-2.9727,-2.9457,-2.9005,-2.8826,-2.878,-2.8578,-2.8661,-2.8871,-2.8228,-2.769,-2.7204,-2.6195,-2.5734,-2.5721,-2.5347,-2.517,-2.5147,-2.4873,-2.4742,-2.4742,-2.4526,-2.4429,-2.4418,-2.4345,-2.4169,-2.3856,-2.3374,-2.2983,-2.2676,-2.2185,-2.1861,-2.1765,-2.1765,-2.1796,-2.1858,-2.2525,-2.2932,-2.2902,-2.2659,-2.2414,-2.2187,-2.1733,-2.1411,-2.1233,-2.1201,-2.0924,-2.0398,-2.0376,-2.0053,-1.9398,-1.91,-1.8977,-1.8977,-1.8375,-1.7978,-1.7842,-1.7123,-1.6737,-1.6759,-1.7,-1.7315,-1.7864,-1.8656,-1.9132,-1.9146,-1.9984,-2.0531,-2.0356,-2.0631,-2.0934,-2.108,-2.1468,-2.1796,-2.1856,-2.1919,-2.1874,-2.183,-2.1651,-2.1517,-2.1509,-2.1599,-2.1571,-2.1561,-2.1602,-2.1503,-2.1328,-2.1347,-2.14,-2.1589,-2.1784,-2.1284,-2.0737,-2.0827,-2.1221,-2.1632,-2.1275,-2.1284,-2.1774,-2.1186,-2.0647,-2.0286,-2.0059,-1.9877,-2.0393,-2.1087,-2.1096,-2.088,-2.0916,-2.0907,-3.5562,-3.4438,-3.4524,-3.3508,-3.1686,-2.9827,-2.8929,-2.8737,-2.8536,-2.8373,-2.8183,-2.7848,-2.771,-2.7696,-2.7258,-2.6744,-2.6195,-2.5488,-2.5147,-2.5147,-2.5052,-2.5028,-2.4981,-2.467,-2.4502,-2.4418,-2.4043,-2.3751,-2.3618,-2.3787,-2.3787,-2.3514,-2.3208,-2.2853,-2.24,-2.2013,-2.1675,-2.1247,-2.1201,-2.1201,-2.1316,-2.1858,-2.2267,-2.2359,-2.2094,-2.192,-2.1877,-2.1463,-2.1201,-2.1201,-2.0955,-2.0505,-1.9857,-1.9574,-1.898,-1.7993,-1.7969,-1.8148,-1.8341,-1.7901,-1.756,-1.7364,-1.6846,-1.6598,-1.6802,-1.6979,-1.7395,-1.8112,-1.8931,-1.9421,-1.9469,-2.0125,-2.0607,-2.0689,-2.0957,-2.1186,-2.131,-2.1752,-2.1865,-2.1696,-2.1741,-2.1839,-2.1562,-2.1383,-2.132,-2.1446,-2.1523,-2.1624,-2.1611,-2.1604,-2.1379,-2.0925,-2.0404,-2.0116,-2.023,-2.0272,-2.0138,-1.9749,-1.9695,-2.0232,-2.0782,-2.0068,-1.9832,-2.0503,-1.9588,-1.9222,-1.936,-1.8902,-1.9001,-1.984,-2.0538,-2.0817,-2.0645,-2.0736,-2.0645,-3.5461,-3.4138,-3.2798,-3.1599,-3.0323,-2.957,-2.8917,-2.8368,-2.8186,-2.7789,-2.7364,-2.7471,-2.701,-2.6008,-2.5916,-2.5847,-2.572,-2.5159,-2.4861,-2.4861,-2.4778,-2.479,-2.479,-2.461,-2.4429,-2.42,-2.3457,-2.2718,-2.2107,-2.2692,-2.2644,-2.201,-2.2181,-2.204,-2.1662,-2.1778,-2.1653,-2.1209,-2.1192,-2.1201,-2.1201,-2.1253,-2.1526,-2.1846,-2.1908,-2.1889,-2.1827,-2.1431,-2.1201,-2.1201,-2.0376,-1.9825,-1.9694,-1.8957,-1.8128,-1.7507,-1.7594,-1.7398,-1.6881,-1.6769,-1.6726,-1.6647,-1.6544,-1.6431,-1.6671,-1.7151,-1.7661,-1.8337,-1.9144,-1.9653,-1.9632,-2.0388,-2.0952,-2.1014,-2.1236,-2.1391,-2.1596,-2.1587,-2.1607,-2.1482,-2.1392,-2.132,-2.106,-2.0997,-2.1128,-2.1384,-2.1516,-2.1582,-2.1566,-2.1278,-2.0952,-2.0588,-2.0136,-1.9725,-1.9376,-1.9183,-1.8659,-1.835,-1.8597,-1.888,-1.8972,-1.9063,-1.9239,-1.9276,-1.8764,-1.8534,-1.8626,-1.8956,-1.9476,-2.0039,-2.0365,-2.0555,-2.0473,-2.0382,-2.0292,-3.4479,-3.3031,-3.0954,-3.0312,-3.0519,-2.8863,-2.8023,-2.7859,-2.7399,-2.6871,-2.6368,-2.6102,-2.572,-2.5288,-2.4945,-2.4921,-2.5111,-2.4897,-2.4801,-2.4718,-2.4141,-2.3827,-2.3754,-2.3117,-2.2782,-2.2708,-2.2408,-2.2107,-2.188,-2.2107,-2.2107,-2.1859,-2.1912,-2.1697,-2.1316,-2.1503,-2.1396,-2.0941,-2.1062,-2.1201,-2.1169,-2.1201,-2.1178,-2.1071,-2.1293,-2.1463,-2.1474,-2.1063,-2.0645,-2.0312,-1.9781,-1.9046,-1.8109,-1.7251,-1.6707,-1.6603,-1.6647,-1.6612,-1.6473,-1.6643,-1.6626,-1.636,-1.6676,-1.682,-1.6879,-1.7246,-1.7687,-1.821,-1.8901,-1.939,-1.9717,-2.0421,-2.098,-2.1016,-2.1087,-2.1186,-2.123,-2.1266,-2.123,-2.1141,-2.0934,-2.075,-2.0658,-2.0449,-2.0322,-2.057,-2.0676,-2.0744,-2.0859,-2.0866,-2.0584,-2.0045,-1.9603,-1.9062,-1.8163,-1.8213,-1.81,-1.7717,-1.7712,-1.7876,-1.8048,-1.7598,-1.7598,-1.7994,-1.7762,-1.725,-1.7156,-1.7809,-1.8557,-1.8926,-1.9301,-2.0155,-2.0337,-2.0186,-2.007,-3.3171,-3.1694,-2.9909,-2.9428,-2.9698,-2.8307,-2.7473,-2.7199,-2.6775,-2.622,-2.5604,-2.5182,-2.4921,-2.4707,-2.437,-2.4345,-2.4562,-2.4345,-2.4225,-2.4116,-2.3228,-2.2798,-2.2734,-2.2096,-2.1794,-2.1794,-2.1794,-2.1565,-2.1068,-2.126,-2.126,-2.0991,-2.1221,-2.1123,-2.0751,-2.0961,-2.0872,-2.0502,-2.0402,-2.0399,-2.0431,-2.0355,-2.0204,-1.9998,-2.0193,-2.0431,-2.056,-2.0334,-1.9933,-1.941,-1.889,-1.7993,-1.6777,-1.614,-1.5867,-1.6,-1.6061,-1.6193,-1.6378,-1.6563,-1.6571,-1.6481,-1.6722,-1.694,-1.7055,-1.7359,-1.7701,-1.8158,-1.8558,-1.9041,-1.9336,-1.9894,-2.0447,-2.0862,-2.0952,-2.0952,-2.0997,-2.0862,-2.0637,-2.0382,-2.0146,-1.9991,-1.9854,-1.9518,-1.9356,-1.9367,-1.9288,-1.9234,-1.9718,-1.957,-1.9639,-1.9252,-1.882,-1.8331,-1.7728,-1.764,-1.753,-1.7165,-1.7035,-1.7135,-1.7037,-1.6494,-1.6312,-1.6622,-1.6473,-1.5866,-1.5961,-1.6567,-1.7077,-1.7451,-1.8342,-1.9342,-1.9645,-2.0046,-1.9974,-3.1567,-3.0471,-2.9731,-2.8892,-2.8142,-2.7767,-2.7252,-2.6446,-2.6302,-2.5674,-2.4862,-2.4874,-2.4527,-2.4225,-2.4007,-2.408,-2.3922,-2.3213,-2.299,-2.3075,-2.222,-2.1794,-2.1804,-2.1603,-2.1527,-2.1527,-2.168,-2.0875,-1.9608,-2.0148,-2.0148,-1.9648,-2.0196,-2.0275,-1.9789,-2.0182,-2.0133,-1.9665,-1.9232,-1.8965,-1.88,-1.88,-1.8734,-1.86,-1.8667,-1.8834,-1.9233,-1.9276,-1.9044,-1.8465,-1.7677,-1.6751,-1.6079,-1.5805,-1.5805,-1.5832,-1.5964,-1.6244,-1.6461,-1.634,-1.6541,-1.6798,-1.6741,-1.6841,-1.7226,-1.7414,-1.7688,-1.8111,-1.8399,-1.8521,-1.8747,-1.8964,-1.9463,-2.0637,-2.06,-2.0555,-2.0682,-2.051,-2.0027,-1.9391,-1.9098,-1.8885,-1.8341,-1.8125,-1.8059,-1.7773,-1.7294,-1.7205,-1.8024,-1.7608,-1.7427,-1.7825,-1.7725,-1.7274,-1.7148,-1.7092,-1.6835,-1.6592,-1.6557,-1.6534,-1.6393,-1.5987,-1.5798,-1.5967,-1.5818,-1.5302,-1.5439,-1.6103,-1.6852,-1.7369,-1.8117,-1.8855,-1.9483,-1.9944,-1.9916,-3.0662,-2.9922,-2.9095,-2.8333,-2.7634,-2.6806,-2.6042,-2.5394,-2.4886,-2.4228,-2.3706,-2.3607,-2.3545,-2.3287,-2.2979,-2.2745,-2.267,-2.1517,-2.1603,-2.2531,-2.1538,-2.0875,-2.0808,-2.0333,-2.007,-2.007,-2.007,-1.9844,-1.946,-1.9569,-1.949,-1.942,-1.9529,-1.9513,-1.9316,-1.9573,-1.9509,-1.8997,-1.8954,-1.8825,-1.861,-1.8512,-1.8388,-1.8172,-1.8128,-1.7959,-1.7516,-1.8061,-1.8104,-1.756,-1.7044,-1.6473,-1.5938,-1.5805,-1.5805,-1.5797,-1.5867,-1.5937,-1.6074,-1.6409,-1.6573,-1.6707,-1.6907,-1.7033,-1.706,-1.7269,-1.7458,-1.7679,-1.8051,-1.8409,-1.8473,-1.8654,-1.8888,-1.9409,-1.9417,-1.9417,-1.9355,-1.8888,-1.8543,-1.8306,-1.7618,-1.7169,-1.7086,-1.6857,-1.627,-1.6164,-1.5542,-1.538,-1.5569,-1.5469,-1.51,-1.5369,-1.5598,-1.5934,-1.5635,-1.5722,-1.5923,-1.5879,-1.5893,-1.5967,-1.5838,-1.5721,-1.5517,-1.531,-1.5153,-1.5038,-1.5163,-1.566,-1.6457,-1.7289,-1.8043,-1.8852,-1.9582,-1.9813,-1.9698,-3.0226,-2.9288,-2.8585,-2.767,-2.6733,-2.5914,-2.5182,-2.4479,-2.3961,-2.3449,-2.3027,-2.2767,-2.2681,-2.2531,-2.201,-2.1725,-2.1593,-2.043,-2.0595,-2.1527,-2.0576,-1.9962,-1.9893,-1.939,-1.9073,-1.9082,-1.9073,-1.9082,-1.9082,-1.9073,-1.9073,-1.9082,-1.9073,-1.9033,-1.8886,-1.8946,-1.8768,-1.8462,-1.8365,-1.8154,-1.7856,-1.7726,-1.7521,-1.7245,-1.7192,-1.689,-1.6377,-1.6881,-1.701,-1.6638,-1.6403,-1.6061,-1.5647,-1.5584,-1.5505,-1.5363,-1.5371,-1.5386,-1.5588,-1.5934,-1.6321,-1.6383,-1.6727,-1.6911,-1.6798,-1.705,-1.7088,-1.7112,-1.7494,-1.7631,-1.7116,-1.73,-1.7323,-1.675,-1.7941,-1.8234,-1.7816,-1.6908,-1.6428,-1.6222,-1.5767,-1.552,-1.5257,-1.5106,-1.4327,-1.4252,-1.355,-1.3348,-1.3371,-1.3407,-1.3281,-1.333,-1.3843,-1.3957,-1.3792,-1.425,-1.4933,-1.5112,-1.5207,-1.5397,-1.5452,-1.5477,-1.5402,-1.5127,-1.4924,-1.4634,-1.4714,-1.5422,-1.6195,-1.7079,-1.7887,-1.8607,-1.9197,-1.9353,-1.9346,-2.9939,-2.8495,-2.8052,-2.6797,-2.5301,-2.5052,-2.4432,-2.3655,-2.3409,-2.3139,-2.2815,-2.2231,-2.2021,-2.1859,-2.1191,-2.0884,-2.0797,-2.0041,-1.9668,-1.9756,-1.9301,-1.9082,-1.9082,-1.8891,-1.878,-1.874,-1.874,-1.874,-1.878,-1.8772,-1.87,-1.874,-1.878,-1.87,-1.863,-1.8301,-1.8202,-1.803,-1.7585,-1.7186,-1.6807,-1.6581,-1.6272,-1.5962,-1.5972,-1.5884,-1.5761,-1.5788,-1.5823,-1.5761,-1.5788,-1.5603,-1.524,-1.5169,-1.4991,-1.4713,-1.4641,-1.4852,-1.5083,-1.5319,-1.5569,-1.6078,-1.6222,-1.6285,-1.648,-1.6542,-1.655,-1.6425,-1.6618,-1.6286,-1.5293,-1.5167,-1.4788,-1.3978,-1.5966,-1.6847,-1.5859,-1.4823,-1.4364,-1.4045,-1.3925,-1.3846,-1.3265,-1.3236,-1.2791,-1.2169,-1.1466,-1.14,-1.1649,-1.1667,-1.1516,-1.1731,-1.2109,-1.2337,-1.2285,-1.3017,-1.3698,-1.4088,-1.4334,-1.4675,-1.4971,-1.5147,-1.5109,-1.4827,-1.4681,-1.4394,-1.4517,-1.5295,-1.5982,-1.6673,-1.7468,-1.8196,-1.8728,-1.9063,-1.9224,-2.8091,-2.6996,-2.6147,-2.5113,-2.3959,-2.3415,-2.3106,-2.2857,-2.2279,-2.209,-2.1949,-2.1482,-2.1155,-2.1078,-2.0031,-1.9559,-1.9362,-1.8816,-1.8616,-1.8736,-1.8634,-1.8643,-1.8732,-1.874,-1.866,-1.866,-1.858,-1.8709,-1.8709,-1.858,-1.858,-1.8709,-1.858,-1.8531,-1.8447,-1.828,-1.8088,-1.7696,-1.7553,-1.7218,-1.6833,-1.6727,-1.6427,-1.585,-1.5799,-1.5485,-1.5012,-1.4935,-1.507,-1.5355,-1.5346,-1.5169,-1.482,-1.474,-1.4685,-1.4601,-1.4601,-1.4727,-1.5022,-1.5185,-1.5444,-1.5825,-1.5807,-1.5801,-1.5752,-1.5899,-1.5814,-1.5605,-1.5359,-1.494,-1.4411,-1.3946,-1.3502,-1.3349,-1.4184,-1.4692,-1.4148,-1.3507,-1.3017,-1.2988,-1.2644,-1.2382,-1.214,-1.1779,-1.1466,-1.1018,-1.0385,-0.9763,-1.0149,-1.0082,-1.0047,-0.9998,-1.0256,-1.0641,-1.1121,-1.1853,-1.2484,-1.2974,-1.3414,-1.3956,-1.4298,-1.4698,-1.4576,-1.4387,-1.4407,-1.4213,-1.4634,-1.5248,-1.5834,-1.6439,-1.75,-1.8462,-1.8928,-1.9236,-1.9258,-2.732,-2.6465,-2.5457,-2.4315,-2.3279,-2.266,-2.2295,-2.1918,-2.1203,-2.0905,-2.0779,-1.9952,-1.9559,-1.9441,-1.8505,-1.8031,-1.7951,-1.7635,-1.7546,-1.7578,-1.7367,-1.7732,-1.8313,-1.8491,-1.8241,-1.7861,-1.787,-1.7619,-1.7375,-1.7497,-1.7456,-1.7204,-1.7627,-1.7497,-1.6821,-1.7448,-1.7365,-1.6886,-1.6965,-1.6967,-1.6644,-1.6611,-1.6297,-1.5804,-1.5613,-1.5238,-1.4851,-1.4827,-1.4872,-1.4932,-1.4919,-1.4784,-1.4425,-1.4382,-1.438,-1.4358,-1.4242,-1.432,-1.46,-1.4816,-1.4952,-1.5127,-1.5211,-1.5025,-1.4671,-1.4678,-1.4572,-1.3864,-1.3727,-1.3336,-1.2632,-1.1925,-1.1657,-1.1663,-1.189,-1.218,-1.2524,-1.1821,-1.1499,-1.1461,-1.1295,-1.1019,-1.1071,-1.0552,-1.0264,-1.0037,-0.956,-0.9206,-0.9137,-0.8829,-0.8726,-0.892,-0.897,-0.9361,-0.9702,-1.0288,-1.0974,-1.1512,-1.2538,-1.3082,-1.3866,-1.4274,-1.4273,-1.4191,-1.4177,-1.4266,-1.4637,-1.5154,-1.5869,-1.6671,-1.7781,-1.8553,-1.8932,-1.9116,-1.9116,-2.69,-2.6258,-2.5158,-2.3976,-2.2794,-2.2372,-2.169,-2.0992,-2.0274,-1.9894,-1.9541,-1.8318,-1.8055,-1.7651,-1.7335,-1.6771,-1.6771,-1.6722,-1.6517,-1.6345,-1.6124,-1.6404,-1.7489,-1.7408,-1.7033,-1.6568,-1.6494,-1.6124,-1.5842,-1.5925,-1.567,-1.5579,-1.6173,-1.5884,-1.5496,-1.5959,-1.609,-1.588,-1.6275,-1.6443,-1.6261,-1.6285,-1.6166,-1.5653,-1.5124,-1.4984,-1.4892,-1.4869,-1.476,-1.4522,-1.46,-1.4517,-1.4246,-1.415,-1.4096,-1.4035,-1.3881,-1.3889,-1.4066,-1.4184,-1.4123,-1.4172,-1.4255,-1.4048,-1.336,-1.3233,-1.2991,-1.2338,-1.216,-1.1542,-1.0593,-0.9609,-0.9665,-1.0054,-0.9981,-1.031,-1.0736,-1.0271,-0.9799,-1.0042,-0.9953,-0.99,-0.9708,-0.9595,-0.9404,-0.946,-0.8996,-0.8695,-0.8584,-0.8482,-0.8333,-0.8333,-0.8283,-0.8233,-0.8428,-0.8673,-0.9312,-0.9998,-1.1414,-1.2381,-1.352,-1.3933,-1.4021,-1.4043,-1.4016,-1.4112,-1.4318,-1.495,-1.5719,-1.6343,-1.7141,-1.8025,-1.8788,-1.8788,-1.8788,-2.4441,-2.3847,-2.2967,-2.2211,-2.1581,-2.1133,-2.0595,-1.9962,-1.9717,-1.9216,-1.8731,-1.7997,-1.7619,-1.7587,-1.6918,-1.6689,-1.6448,-1.6012,-1.567,-1.513,-1.4998,-1.5032,-1.5489,-1.5365,-1.5323,-1.5157,-1.5164,-1.4998,-1.4873,-1.4838,-1.4914,-1.4789,-1.488,-1.4956,-1.4747,-1.4831,-1.5088,-1.5039,-1.5538,-1.5715,-1.5729,-1.6026,-1.5969,-1.5446,-1.4697,-1.4355,-1.427,-1.4154,-1.4033,-1.4137,-1.4499,-1.4683,-1.4378,-1.4187,-1.4084,-1.4033,-1.3843,-1.3852,-1.4004,-1.3472,-1.3048,-1.3191,-1.279,-1.2163,-1.1875,-1.1955,-1.1826,-1.1402,-1.0855,-1.0121,-0.935,-0.9192,-0.9205,-0.9353,-0.9456,-0.9517,-0.9728,-0.9951,-0.98,-0.9583,-0.9489,-0.9431,-0.9153,-0.9049,-0.8916,-0.8829,-0.8581,-0.8237,-0.8088,-0.8035,-0.7935,-0.7836,-0.7836,-0.7789,-0.7839,-0.7982,-0.8425,-0.9114,-1.0391,-1.157,-1.2703,-1.3595,-1.3657,-1.3778,-1.3861,-1.3959,-1.4051,-1.4606,-1.5364,-1.5921,-1.6393,-1.7199,-1.7825,-1.8042,-1.8684,-2.3578,-2.3069,-2.2197,-2.1601,-2.1077,-2.0316,-1.9617,-1.9024,-1.823,-1.773,-1.7285,-1.6617,-1.6389,-1.6495,-1.6141,-1.5821,-1.5298,-1.4496,-1.3681,-1.3094,-1.2923,-1.2753,-1.2498,-1.2674,-1.293,-1.3818,-1.4119,-1.3915,-1.3584,-1.362,-1.3535,-1.3415,-1.3753,-1.3626,-1.3372,-1.3704,-1.3747,-1.3438,-1.3937,-1.4231,-1.4099,-1.426,-1.4593,-1.4354,-1.3863,-1.37,-1.4153,-1.412,-1.4118,-1.4282,-1.4593,-1.4609,-1.4266,-1.4073,-1.4044,-1.4092,-1.35,-1.3392,-1.3309,-1.2685,-1.2072,-1.2151,-1.1649,-1.1133,-1.0664,-1.0534,-1.0231,-0.9763,-0.9288,-0.8812,-0.8683,-0.8764,-0.8958,-0.9275,-0.9257,-0.9227,-0.9205,-0.9465,-0.9571,-0.9233,-0.916,-0.9068,-0.8855,-0.8634,-0.8482,-0.8382,-0.8137,-0.7793,-0.7637,-0.7537,-0.7537,-0.7437,-0.7437,-0.7388,-0.7391,-0.7537,-0.7779,-0.857,-0.9604,-1.0734,-1.182,-1.2576,-1.3259,-1.3391,-1.3563,-1.3728,-1.3935,-1.4453,-1.4677,-1.4923,-1.5388,-1.6166,-1.6869,-1.7397,-1.8251,-2.3284,-2.2896,-2.1876,-2.1264,-2.0866,-1.9608,-1.8737,-1.813,-1.68,-1.6396,-1.5868,-1.512,-1.534,-1.5267,-1.5128,-1.4584,-1.3607,-1.2777,-1.1975,-1.1299,-1.117,-1.0939,-1.0549,-1.0679,-1.1192,-1.2772,-1.2729,-1.2308,-1.202,-1.202,-1.1972,-1.1693,-1.2332,-1.2192,-1.1645,-1.2112,-1.2357,-1.1746,-1.2254,-1.2462,-1.2206,-1.2279,-1.2632,-1.3134,-1.2816,-1.3263,-1.3851,-1.3954,-1.3994,-1.4461,-1.4356,-1.4035,-1.3716,-1.3686,-1.3761,-1.3967,-1.2928,-1.2433,-1.2276,-1.1621,-1.0999,-1.0977,-1.0621,-1.0173,-0.9542,-0.9222,-0.8922,-0.8496,-0.815,-0.8269,-0.8431,-0.8554,-0.8755,-0.9021,-0.9082,-0.8983,-0.8744,-0.869,-0.8463,-0.8798,-0.8564,-0.8407,-0.8343,-0.8184,-0.8035,-0.7889,-0.7643,-0.7444,-0.7238,-0.7135,-0.7138,-0.7138,-0.7141,-0.7039,-0.6989,-0.7039,-0.7282,-0.8024,-0.8962,-0.9948,-1.0979,-1.1737,-1.2459,-1.3041,-1.3306,-1.3332,-1.331,-1.3461,-1.3614,-1.3799,-1.4139,-1.4761,-1.5612,-1.6639,-1.7679,-2.2434,-2.2353,-2.0492,-1.9991,-2.0162,-1.8727,-1.7689,-1.7196,-1.6776,-1.6315,-1.5688,-1.5446,-1.5306,-1.5256,-1.4544,-1.3453,-1.2268,-1.1483,-1.092,-1.0336,-1.0187,-0.9979,-0.982,-0.9777,-1.0207,-1.0381,-1.0636,-1.0554,-1.0516,-1.0381,-1.0689,-1.0429,-1.0641,-1.0472,-1.0472,-1.0516,-1.0771,-1.0554,-1.0977,-1.1149,-1.1101,-1.1386,-1.2012,-1.2614,-1.1962,-1.2403,-1.3332,-1.3007,-1.2741,-1.3428,-1.2826,-1.2468,-1.2403,-1.2745,-1.2859,-1.2728,-1.1985,-1.1332,-1.1031,-1.0356,-0.9797,-0.9453,-0.8995,-0.8649,-0.8376,-0.8313,-0.8106,-0.8053,-0.7971,-0.8106,-0.789,-0.8029,-0.8143,-0.8111,-0.793,-0.7902,-0.7583,-0.7075,-0.6864,-0.7299,-0.7503,-0.7577,-0.7279,-0.7179,-0.7232,-0.7185,-0.7141,-0.7045,-0.6942,-0.6892,-0.6892,-0.6892,-0.6845,-0.6692,-0.6539,-0.6637,-0.6833,-0.7627,-0.8517,-0.9308,-1.0243,-1.0939,-1.1633,-1.2328,-1.2672,-1.2664,-1.2605,-1.2532,-1.2509,-1.2636,-1.2911,-1.3214,-1.4518,-1.5811,-1.6749,-2.1464,-2.0819,-1.9826,-1.9045,-1.8464,-1.7433,-1.6726,-1.633,-1.5903,-1.5562,-1.516,-1.4623,-1.443,-1.4292,-1.3453,-1.2251,-1.1331,-1.0496,-0.9953,-0.9438,-0.9357,-0.916,-0.9016,-0.9043,-0.899,-0.8947,-0.8947,-0.9384,-0.9951,-1.0038,-0.9951,-1.0038,-0.9994,-0.9994,-1.0038,-1.0081,-0.982,-0.982,-0.9951,-0.9941,-0.9593,-0.9884,-1.0399,-1.0783,-1.074,-1.1042,-1.1778,-1.1783,-1.1483,-1.174,-1.1526,-1.1311,-1.1225,-1.1004,-1.1123,-1.13,-1.0707,-1.0149,-0.9792,-0.9196,-0.8717,-0.8589,-0.7975,-0.7699,-0.7647,-0.7555,-0.7392,-0.7329,-0.7442,-0.7495,-0.7472,-0.7283,-0.7255,-0.7431,-0.6836,-0.6262,-0.612,-0.5333,-0.5278,-0.5434,-0.5375,-0.547,-0.562,-0.5724,-0.6129,-0.6384,-0.6539,-0.6542,-0.6492,-0.6592,-0.6592,-0.6642,-0.6642,-0.6589,-0.6439,-0.6437,-0.6387,-0.7132,-0.8024,-0.8814,-0.9554,-1.0301,-1.1016,-1.1737,-1.1924,-1.1856,-1.1803,-1.1728,-1.1583,-1.1472,-1.1631,-1.2153,-1.365,-1.4959,-1.5886,-2.0574,-1.9428,-1.9126,-1.8153,-1.6854,-1.607,-1.5759,-1.5576,-1.5053,-1.4748,-1.4533,-1.3664,-1.3304,-1.3057,-1.2205,-1.1216,-1.045,-0.956,-0.904,-0.8729,-0.8669,-0.843,-0.8121,-0.8045,-0.8182,-0.8145,-0.808,-0.8472,-0.9209,-0.9384,-0.9515,-0.9428,-0.951,-0.9602,-0.9471,-0.9336,-0.9301,-0.917,-0.8999,-0.864,-0.8157,-0.794,-0.8197,-0.8886,-0.8882,-0.927,-1.0433,-1.0135,-1.013,-1.0216,-1.013,-1.0,-0.9826,-0.9013,-0.8838,-0.9435,-0.91,-0.8842,-0.8548,-0.8207,-0.7789,-0.774,-0.7436,-0.7293,-0.7227,-0.7036,-0.6657,-0.6572,-0.6734,-0.6783,-0.6644,-0.6205,-0.6185,-0.6087,-0.5141,-0.4125,-0.4409,-0.407,-0.3237,-0.327,-0.3215,-0.3566,-0.4019,-0.4372,-0.4826,-0.5079,-0.5281,-0.5737,-0.5787,-0.6239,-0.6342,-0.6439,-0.6439,-0.6439,-0.6387,-0.6289,-0.6239,-0.6389,-0.7381,-0.8322,-0.8966,-0.9657,-1.0372,-1.099,-1.0951,-1.0907,-1.0911,-1.0901,-1.0786,-1.0673,-1.0456,-1.126,-1.3116,-1.4219,-1.4966,-1.9999,-1.9024,-1.7817,-1.6877,-1.6067,-1.514,-1.4931,-1.5085,-1.4924,-1.4493,-1.3595,-1.3391,-1.2715,-1.1874,-1.0967,-1.0009,-0.9286,-0.8908,-0.862,-0.8412,-0.8363,-0.8149,-0.7923,-0.8044,-0.7853,-0.7692,-0.7767,-0.7952,-0.8264,-0.8264,-0.8248,-0.8292,-0.8332,-0.8204,-0.838,-0.8376,-0.812,-0.8072,-0.8072,-0.7893,-0.7625,-0.7536,-0.7878,-0.8049,-0.7837,-0.7921,-0.9126,-0.8786,-0.8567,-0.9126,-0.8524,-0.8221,-0.7962,-0.7217,-0.6823,-0.6956,-0.7092,-0.7275,-0.7248,-0.7179,-0.7096,-0.7027,-0.6867,-0.6854,-0.6792,-0.6755,-0.6571,-0.676,-0.6798,-0.6347,-0.5754,-0.5438,-0.5026,-0.4283,-0.3474,-0.3121,-0.3197,-0.2435,-0.1664,-0.1461,-0.156,-0.2164,-0.2768,-0.3122,-0.3475,-0.3775,-0.4076,-0.458,-0.5033,-0.5384,-0.6039,-0.6137,-0.6187,-0.6187,-0.6137,-0.6087,-0.5992,-0.5894,-0.6736,-0.7779,-0.8326,-0.892,-0.9521,-0.9995,-1.0033,-1.0224,-1.0425,-1.0385,-1.0142,-1.0067,-1.0122,-1.1257,-1.2873,-1.3612,-1.4258,-1.7652,-1.6753,-1.625,-1.5424,-1.4412,-1.4057,-1.3808,-1.3596,-1.3661,-1.321,-1.2323,-1.1546,-1.0618,-0.9641,-0.9114,-0.8825,-0.8418,-0.8259,-0.8133,-0.8028,-0.7934,-0.7767,-0.7399,-0.7436,-0.7403,-0.7293,-0.7244,-0.7177,-0.7292,-0.7631,-0.7852,-0.7672,-0.7672,-0.7713,-0.7628,-0.754,-0.7496,-0.7408,-0.7367,-0.7234,-0.7098,-0.7003,-0.7044,-0.7302,-0.6786,-0.7129,-0.7434,-0.7434,-0.7173,-0.7562,-0.7129,-0.7044,-0.6912,-0.6561,-0.6299,-0.6432,-0.6349,-0.6438,-0.6577,-0.663,-0.6639,-0.6651,-0.6557,-0.6438,-0.6366,-0.6203,-0.6122,-0.6083,-0.5635,-0.5155,-0.4378,-0.357,-0.3267,-0.2637,-0.1795,-0.1732,-0.1516,-0.0707,-0.005,0.005,0.0,-0.0756,-0.1411,-0.1865,-0.2116,-0.2266,-0.2768,-0.3371,-0.3773,-0.4175,-0.4979,-0.5834,-0.5884,-0.5884,-0.5837,-0.5787,-0.5694,-0.5696,-0.6189,-0.7036,-0.7534,-0.8131,-0.8947,-0.9492,-0.9751,-0.995,-1.0104,-1.0008,-0.9862,-0.9869,-0.9884,-1.1194,-1.2506,-1.3209,-1.3985,-1.5188,-1.4512,-1.5091,-1.4448,-1.3174,-1.3377,-1.3039,-1.229,-1.249,-1.1891,-1.0711,-0.9583,-0.8464,-0.7776,-0.7783,-0.7889,-0.7786,-0.7789,-0.7628,-0.7508,-0.7469,-0.7327,-0.7075,-0.6974,-0.6887,-0.6652,-0.6632,-0.6508,-0.6584,-0.6905,-0.7197,-0.7228,-0.7136,-0.718,-0.7136,-0.7051,-0.6966,-0.6922,-0.6833,-0.67,-0.6612,-0.6432,-0.6343,-0.6254,-0.6166,-0.6166,-0.6166,-0.6074,-0.6071,-0.6071,-0.6071,-0.6041,-0.6034,-0.5919,-0.5857,-0.591,-0.578,-0.5742,-0.5964,-0.6124,-0.6239,-0.6273,-0.6266,-0.5971,-0.5858,-0.5625,-0.5289,-0.5138,-0.4312,-0.3791,-0.3089,-0.1854,-0.1546,-0.1077,-0.0305,-0.0202,-0.005,0.0353,0.0555,0.0454,0.0454,0.0555,-0.005,-0.0555,-0.0807,-0.0857,-0.136,-0.2064,-0.2718,-0.3219,-0.4128,-0.5135,-0.5641,-0.5644,-0.5646,-0.5596,-0.54,-0.5416,-0.5914,-0.6575,-0.7252,-0.7999,-0.8849,-0.9237,-0.9528,-0.9722,-0.9871,-0.9722,-0.9632,-0.9701,-0.995,-1.0956,-1.1993,-1.2847,-1.3964,-1.3184,-1.3071,-1.4418,-1.423,-1.308,-1.3383,-1.2894,-1.1804,-1.1901,-1.0721,-0.9,-0.7971,-0.7431,-0.7238,-0.7188,-0.7188,-0.7188,-0.7238,-0.712,-0.7114,-0.7217,-0.6942,-0.6692,-0.6534,-0.644,-0.6236,-0.6184,-0.5926,-0.576,-0.6061,-0.628,-0.6405,-0.6485,-0.6476,-0.6473,-0.6432,-0.6387,-0.6343,-0.6299,-0.6257,-0.6169,-0.6035,-0.5949,-0.573,-0.5594,-0.546,-0.5458,-0.5322,-0.5275,-0.5277,-0.5295,-0.5333,-0.5431,-0.5423,-0.5463,-0.5454,-0.5422,-0.5346,-0.5385,-0.5555,-0.5535,-0.5439,-0.5338,-0.5355,-0.5285,-0.4306,-0.3993,-0.3887,-0.3058,-0.2151,-0.1536,-0.0868,-0.0358,0.0102,0.0608,0.0658,0.0707,0.0808,0.101,0.0859,0.0859,0.096,0.096,0.0404,0.0151,0.0101,-0.0101,-0.0806,-0.1913,-0.2567,-0.3428,-0.4338,-0.5196,-0.5452,-0.556,-0.5429,-0.528,-0.5246,-0.55,-0.6323,-0.7208,-0.7957,-0.8309,-0.9206,-0.9563,-0.96,-0.9663,-0.9562,-0.9515,-0.9565,-1.0031,-1.0842,-1.2511,-1.4051,-1.4967,-1.1878,-1.1878,-1.2452,-1.2785,-1.2864,-1.2124,-1.1272,-1.028,-0.9587,-0.8605,-0.7325,-0.6883,-0.6637,-0.6539,-0.6442,-0.6339,-0.6237,-0.6187,-0.6237,-0.6237,-0.6187,-0.6137,-0.6064,-0.6051,-0.5924,-0.5812,-0.5767,-0.5708,-0.5573,-0.5489,-0.5483,-0.5628,-0.5676,-0.5774,-0.5813,-0.5811,-0.5722,-0.5633,-0.568,-0.5683,-0.5455,-0.5413,-0.5369,-0.528,-0.5235,-0.5146,-0.5144,-0.5055,-0.501,-0.4985,-0.4989,-0.4997,-0.4958,-0.5048,-0.5101,-0.5145,-0.5101,-0.4989,-0.4922,-0.5134,-0.5271,-0.5197,-0.4867,-0.4497,-0.4501,-0.3302,-0.2764,-0.2385,-0.1688,-0.072,-0.0566,0.0204,0.0863,0.1214,0.1313,0.1313,0.1313,0.1364,0.1364,0.1162,0.1212,0.1364,0.1364,0.1263,0.1111,0.101,0.0808,0.0454,-0.0707,-0.1826,-0.2597,-0.3577,-0.4402,-0.515,-0.5315,-0.5242,-0.517,-0.512,-0.507,-0.5818,-0.6615,-0.6769,-0.7281,-0.8446,-0.9469,-0.9508,-0.9449,-0.9449,-0.9439,-0.9523,-0.995,-1.0614,-1.2602,-1.4838,-1.5748,-1.1132,-1.1184,-1.1123,-1.1575,-1.2122,-1.1077,-0.994,-0.8901,-0.7961,-0.6974,-0.6187,-0.6137,-0.6087,-0.5889,-0.5889,-0.5839,-0.5737,-0.5684,-0.5634,-0.5687,-0.5687,-0.5584,-0.5584,-0.5532,-0.5525,-0.5436,-0.5377,-0.5275,-0.5174,-0.4973,-0.4821,-0.4719,-0.4691,-0.4791,-0.5324,-0.5235,-0.5146,-0.5102,-0.5138,-0.5238,-0.506,-0.5099,-0.5115,-0.512,-0.5034,-0.499,-0.4947,-0.4906,-0.4719,-0.4641,-0.4579,-0.4576,-0.4573,-0.4569,-0.4618,-0.468,-0.4624,-0.4562,-0.4492,-0.4621,-0.4856,-0.4924,-0.3957,-0.3676,-0.3279,-0.2293,-0.1433,-0.1326,-0.036,0.0414,0.0412,0.1018,0.1317,0.1465,0.1465,0.1465,0.1465,0.1516,0.1516,0.1465,0.1566,0.1668,0.1523,0.1523,0.1475,0.1375,0.1277,0.1074,0.0563,-0.0515,-0.1555,-0.2601,-0.3652,-0.4414,-0.5033,-0.5084,-0.5031,-0.4686,-0.4744,-0.5089,-0.5634,-0.5906,-0.6642,-0.7936,-0.8776,-0.9159,-0.9324,-0.9365,-0.9417,-0.9458,-1.0247,-1.1217,-1.2465,-1.4533,-1.579,-1.0947,-1.1156,-1.0914,-1.0947,-1.0965,-1.0342,-0.9402,-0.8361,-0.7419,-0.6528,-0.5687,-0.5636,-0.5636,-0.5586,-0.5589,-0.5486,-0.5336,-0.5386,-0.5336,-0.5233,-0.5135,-0.5386,-0.5286,-0.5138,-0.4836,-0.5087,-0.488,-0.4644,-0.4624,-0.4251,-0.3972,-0.3748,-0.3651,-0.3781,-0.4886,-0.4966,-0.4966,-0.4982,-0.4933,-0.4913,-0.4857,-0.4864,-0.4889,-0.4797,-0.4652,-0.4555,-0.4506,-0.4414,-0.4225,-0.395,-0.3927,-0.3779,-0.3541,-0.3464,-0.3503,-0.3498,-0.3406,-0.3287,-0.3233,-0.3621,-0.3932,-0.4108,-0.2945,-0.2347,-0.2522,-0.1501,-0.0052,-0.0051,0.0773,0.1387,0.1529,0.1568,0.1618,0.1667,0.1667,0.1717,0.1717,0.1768,0.1818,0.1869,0.1869,0.1922,0.1781,0.1687,0.169,0.1695,0.1652,0.1502,0.1299,0.0417,-0.0788,-0.2013,-0.3188,-0.4016,-0.4686,-0.4939,-0.4887,-0.4539,-0.437,-0.4524,-0.509,-0.5702,-0.6553,-0.7525,-0.8476,-0.9243,-0.9304,-0.929,-0.9276,-0.9433,-1.1091,-1.2238,-1.3245,-1.4213,-1.5494,-0.9485,-0.9492,-0.9339,-0.8934,-0.8455,-0.8618,-0.8418,-0.7869,-0.6429,-0.5484,-0.5388,-0.534,-0.534,-0.534,-0.524,-0.4987,-0.4585,-0.4535,-0.4435,-0.4083,-0.4133,-0.3982,-0.4033,-0.4085,-0.3934,-0.3883,-0.378,-0.3825,-0.3703,-0.3464,-0.3375,-0.3219,-0.2948,-0.3155,-0.3512,-0.3723,-0.3782,-0.365,-0.3735,-0.3855,-0.3765,-0.3798,-0.3864,-0.3866,-0.382,-0.3774,-0.3776,-0.3736,-0.3542,-0.3355,-0.3325,-0.3219,-0.3054,-0.3019,-0.3106,-0.3128,-0.315,-0.3152,-0.2911,-0.2821,-0.2439,-0.2244,-0.1593,-0.0725,-0.0675,0.0466,0.1083,0.1125,0.1482,0.178,0.1669,0.1769,0.1869,0.1869,0.192,0.202,0.207,0.217,0.222,0.222,0.2221,0.2292,0.2206,0.2079,0.2034,0.1993,0.2006,0.1847,0.1586,0.0635,-0.0479,-0.1667,-0.2816,-0.3708,-0.4327,-0.456,-0.4431,-0.3973,-0.3744,-0.374,-0.4427,-0.525,-0.6181,-0.7028,-0.8255,-0.9363,-0.9249,-0.9083,-0.9038,-0.9583,-1.0847,-1.2001,-1.2763,-1.391,-1.5376,-0.8521,-0.8559,-0.8041,-0.7523,-0.7063,-0.7165,-0.6927,-0.6171,-0.4832,-0.4336,-0.4437,-0.4487,-0.4487,-0.4487,-0.4437,-0.4336,-0.3732,-0.3732,-0.3682,-0.323,-0.323,-0.3331,-0.3281,-0.318,-0.3381,-0.318,-0.318,-0.3229,-0.3275,-0.299,-0.2761,-0.2529,-0.2424,-0.2334,-0.2528,-0.2792,-0.3161,-0.3166,-0.3299,-0.3333,-0.3225,-0.3151,-0.3167,-0.3169,-0.3167,-0.3117,-0.3115,-0.3062,-0.2964,-0.2877,-0.2797,-0.2773,-0.2687,-0.2652,-0.2625,-0.2625,-0.2322,-0.2271,-0.1872,-0.0761,-0.0407,-0.0459,0.0521,0.073,0.0773,0.1435,0.1786,0.1978,0.2071,0.202,0.1969,0.2121,0.2122,0.2121,0.2171,0.2271,0.2322,0.2371,0.2422,0.2422,0.253,0.2556,0.2595,0.2529,0.245,0.2361,0.227,0.2158,0.1995,0.1244,0.0163,-0.1148,-0.2041,-0.2776,-0.3474,-0.4072,-0.3825,-0.3412,-0.3274,-0.319,-0.3656,-0.4438,-0.5524,-0.6702,-0.8097,-0.906,-0.8998,-0.8923,-0.8992,-0.9224,-0.9868,-1.0958,-1.2053,-1.3534,-1.5024,-0.8184,-0.8199,-0.7132,-0.6761,-0.6732,-0.5902,-0.4701,-0.3328,-0.3279,-0.3279,-0.3281,-0.3381,-0.3432,-0.3331,-0.3281,-0.3279,-0.3179,-0.3179,-0.3079,-0.2978,-0.2827,-0.2877,-0.2877,-0.2876,-0.2676,-0.2877,-0.2877,-0.2575,-0.2978,-0.2464,-0.1994,-0.1674,-0.1496,-0.1482,-0.1803,-0.2167,-0.2542,-0.2573,-0.2698,-0.2725,-0.2602,-0.2835,-0.2795,-0.2797,-0.2848,-0.285,-0.2851,-0.2852,-0.2655,-0.251,-0.2364,-0.2066,-0.1817,-0.1616,-0.1617,-0.1364,-0.0909,-0.0758,-0.0353,0.081,0.1417,0.1167,0.1539,0.138,0.1424,0.1926,0.2227,0.2326,0.2322,0.2371,0.2371,0.2371,0.2423,0.2423,0.2423,0.2472,0.2472,0.2522,0.2522,0.2576,0.2735,0.282,0.2938,0.288,0.2819,0.2848,0.2812,0.2825,0.266,0.2448,0.1282,-0.0391,-0.1181,-0.1696,-0.2453,-0.3402,-0.3266,-0.2827,-0.2786,-0.2749,-0.3223,-0.3937,-0.5215,-0.6574,-0.8039,-0.883,-0.9057,-0.912,-0.9055,-0.9349,-0.956,-1.0231,-1.1471,-1.3051,-1.4436,-0.7688,-0.7631,-0.6502,-0.5628,-0.4882,-0.3435,-0.2926,-0.3176,-0.318,-0.318,-0.318,-0.318,-0.3029,-0.318,-0.323,-0.2927,-0.2725,-0.2574,-0.2322,-0.217,-0.202,-0.1869,-0.1767,-0.1716,-0.1565,-0.1565,-0.1565,-0.1667,-0.1515,-0.1313,-0.1312,-0.1,-0.0933,-0.0982,-0.1128,-0.1315,-0.1555,-0.1799,-0.2011,-0.1977,-0.1945,-0.2063,-0.207,-0.2121,-0.2121,-0.2121,-0.2121,-0.2121,-0.1969,-0.1868,-0.1818,-0.1667,-0.1667,-0.1566,-0.1465,-0.0808,-0.0455,-0.0202,0.0504,0.1412,0.2068,0.2269,0.2386,0.2587,0.2475,0.2422,0.2623,0.2623,0.2624,0.2624,0.2623,0.2623,0.2675,0.2675,0.2675,0.2725,0.2778,0.2837,0.2839,0.2913,0.3022,0.3139,0.3206,0.3252,0.3248,0.3286,0.3317,0.3339,0.3239,0.3021,0.2281,0.0627,-0.0401,-0.0921,-0.1971,-0.2927,-0.2608,-0.2337,-0.2349,-0.2422,-0.2795,-0.3639,-0.5065,-0.6551,-0.8023,-0.8855,-0.9397,-0.9361,-0.9087,-0.9259,-0.9472,-1.0104,-1.091,-1.2563,-1.3958,-0.7102,-0.6656,-0.5492,-0.4205,-0.2871,-0.177,-0.1668,-0.2244,-0.2465,-0.2524,-0.2423,-0.2372,-0.2323,-0.2171,-0.212,-0.2018,-0.1766,-0.1716,-0.1565,-0.1363,-0.1111,-0.1162,-0.096,-0.0859,-0.0909,-0.0808,-0.0808,-0.101,-0.0758,-0.0808,-0.0808,-0.0806,-0.0698,-0.0701,-0.0801,-0.0797,-0.0745,-0.0993,-0.1095,-0.115,-0.1157,-0.1214,-0.1263,-0.1316,-0.1315,-0.1315,-0.1315,-0.1316,-0.1315,-0.1263,-0.1263,-0.1263,-0.1212,-0.1061,-0.0859,-0.0202,0.0454,0.0807,0.1361,0.2068,0.2371,0.2573,0.2927,0.2978,0.298,0.2876,0.2876,0.2826,0.2876,0.2927,0.2876,0.2826,0.2876,0.2927,0.2978,0.3029,0.3091,0.3205,0.3231,0.326,0.3313,0.3382,0.3493,0.3537,0.3589,0.3594,0.3637,0.3603,0.3551,0.3491,0.2789,0.1508,0.0582,-0.0234,-0.1357,-0.2376,-0.2282,-0.2123,-0.2137,-0.2271,-0.253,-0.3867,-0.5651,-0.6901,-0.799,-0.8657,-0.9199,-0.9212,-0.9119,-0.9224,-0.9212,-0.9535,-1.0471,-1.216,-1.3355,-0.6473,-0.5583,-0.4285,-0.2709,-0.097,-0.0851,-0.0868,-0.0834,-0.1402,-0.1414,-0.1263,-0.1212,-0.1212,-0.1212,-0.1161,-0.1111,-0.106,-0.106,-0.106,-0.0808,-0.0808,-0.0758,-0.0758,-0.0707,-0.0606,-0.0657,-0.0707,-0.0556,-0.0657,-0.0657,-0.0606,0.0,-0.0504,-0.0454,-0.0554,-0.0453,-0.0402,-0.0452,-0.0604,-0.0707,-0.0761,-0.0812,-0.0812,-0.0814,-0.0866,-0.0865,-0.0814,-0.0813,-0.0812,-0.0812,-0.0813,-0.0866,-0.0711,0.0051,0.0254,0.0661,0.1477,0.2137,0.2491,0.2997,0.3137,0.3236,0.323,0.318,0.313,0.313,0.3029,0.3029,0.3079,0.3079,0.3029,0.3029,0.3079,0.3079,0.313,0.3144,0.3216,0.3298,0.3349,0.3386,0.3447,0.3516,0.3575,0.3619,0.3661,0.3793,0.3836,0.3859,0.3803,0.3737,0.2953,0.2061,0.1188,0.0119,-0.1016,-0.1867,-0.2006,-0.1963,-0.1972,-0.2038,-0.2223,-0.4117,-0.6417,-0.7195,-0.7835,-0.8351,-0.8737,-0.8829,-0.8949,-0.8926,-0.8924,-0.8907,-0.9996,-1.161,-1.2953,-0.6027,-0.5001,-0.3263,-0.1797,-0.0817,-0.0798,-0.0764,-0.0819,-0.0946,-0.0959,-0.0909,-0.0909,-0.0859,-0.0758,-0.0707,-0.0707,-0.0758,-0.0657,-0.0758,-0.0707,-0.0606,-0.0505,-0.0455,-0.0353,0.0,-0.0202,-0.0202,0.0,0.0,0.0,0.0,0.0,0.0,-0.0202,-0.0101,0.0,0.005,0.005,0.0,-0.0255,-0.0516,-0.068,-0.079,-0.0789,-0.0788,-0.0734,-0.0734,-0.0736,-0.0789,-0.079,-0.079,-0.0785,-0.0775,0.1094,0.1821,0.1964,0.2749,0.3464,0.3805,0.389,0.387,0.3691,0.3531,0.3331,0.318,0.318,0.323,0.323,0.318,0.318,0.318,0.318,0.318,0.318,0.3188,0.3267,0.3296,0.3356,0.3413,0.347,0.353,0.3585,0.3643,0.3692,0.3741,0.3841,0.3881,0.3905,0.385,0.3725,0.2868,0.2032,0.1395,0.0366,-0.0669,-0.1581,-0.19,-0.1965,-0.197,-0.1973,-0.2035,-0.3241,-0.4791,-0.6507,-0.7501,-0.7813,-0.8201,-0.8602,-0.8672,-0.8642,-0.8629,-0.8578,-0.945,-1.1028,-1.2361,-0.5581,-0.4154,-0.2192,-0.0986,-0.0451,-0.0418,-0.0425,-0.0431,-0.0443,-0.0451,-0.0505,-0.0556,-0.0556,-0.0455,-0.0455,0.0,0.0,-0.0455,-0.0404,-0.0353,0.0,-0.0252,-0.0101,0.0,0.0,0.0,0.0,0.0,0.0,0.0,0.0,0.0,0.0,0.0354,0.0606,0.0707,0.0758,0.0707,0.0711,0.0412,-0.0052,-0.0317,-0.0425,-0.0425,0.0,0.0,-0.0427,-0.0427,-0.0427,-0.016,0.0106,0.0953,0.1471,0.269,0.3272,0.3411,0.3926,0.4605,0.4826,0.4735,0.4446,0.425,0.4131,0.4033,0.3632,0.3632,0.343,0.338,0.323,0.318,0.318,0.318,0.318,0.318,0.3274,0.3315,0.3369,0.3433,0.3482,0.353,0.3574,0.36,0.3649,0.3676,0.3725,0.3826,0.3873,0.3881,0.3898,0.3977,0.3005,0.2166,0.164,0.1043,0.0245,-0.092,-0.1971,-0.1972,-0.19,-0.225,-0.2356,-0.2293,-0.301,-0.5286,-0.677,-0.7017,-0.7431,-0.8096,-0.8279,-0.83,-0.8234,-0.8174,-0.9271,-1.0276,-1.1499,-0.5003,-0.3132,-0.121,-0.0225,0.0,0.0,0.0,0.0,0.0,0.005,0.0,-0.0151,-0.0101,0.0,0.0,0.0,0.0,0.0,0.0,0.0,0.0,0.0,0.0,0.0,0.0,0.0,0.0,0.0,0.0,0.0,0.0,0.0,0.0708,0.1013,0.1619,0.1872,0.1927,0.188,0.169,0.13,0.0733,0.0,0.0,0.0,0.0,0.0,0.0,0.0161,0.0161,0.086,0.1561,0.2359,0.3267,0.4131,0.4391,0.4697,0.5029,0.5313,0.5356,0.5188,0.4983,0.4891,0.4836,0.4634,0.4234,0.4036,0.3784,0.3635,0.3485,0.3234,0.3234,0.3247,0.3247,0.3263,0.3318,0.3371,0.3437,0.3499,0.3541,0.3583,0.3605,0.3625,0.3704,0.3732,0.3768,0.3809,0.3883,0.3886,0.3953,0.4152,0.3803,0.2978,0.2278,0.1695,0.0793,-0.0427,-0.183,-0.1701,-0.1627,-0.2266,-0.2548,-0.1963,-0.2555,-0.4838,-0.5996,-0.6147,-0.7,-0.7827,-0.791,-0.7942,-0.784,-0.7888,-0.8509,-0.952,-1.0565,-0.358,-0.1704,-0.0539,-0.0045,0.0,0.0,0.0,0.0,0.0249,0.0353,0.0353,0.0505,0.0,0.0,0.0,0.0,0.0,0.0,0.0,0.0,0.0,0.0,0.0,0.0303,0.0455,0.0757,0.121,0.1813,0.1671,0.2472,0.3169,0.2978,0.3176,0.3289,0.3242,0.3342,0.3283,0.3178,0.3002,0.2718,0.2095,0.0,0.0,0.0,0.0,0.0,0.0,0.0,0.1331,0.2107,0.3251,0.3875,0.4564,0.5322,0.5701,0.5542,0.5926,0.6147,0.6071,0.5721,0.5553,0.5438,0.5284,0.4935,0.4688,0.4647,0.4448,0.43,0.405,0.355,0.3456,0.3498,0.3513,0.3445,0.344,0.3436,0.3493,0.3534,0.3572,0.3601,0.3623,0.3696,0.3768,0.3856,0.3947,0.3976,0.4032,0.4091,0.4432,0.4506,0.44,0.3647,0.2775,0.1538,0.0356,-0.0477,-0.1492,-0.1309,-0.1245,-0.1529,-0.1524,-0.1061,-0.2114,-0.4301,-0.4973,-0.5069,-0.6082,-0.7627,-0.7581,-0.7546,-0.7483,-0.7539,-0.8128,-0.8815,-0.9914]},{"header":{"parameterUnit":"m.s-1","parameterCategory":1,"la1":31.0,"la2":29.5877,"lo1":-88.7671,"lo2":-86.6584,"dy":0.0162,"dx":0.0185,"nx":115,"ny":88,"refTime":"2024-06-10T00:00:00:Z","depth":0,"parameterNumber":3,"parameterNumberName":"V-component_of_WINDS"},"data":[0.0,0.0,0.0,0.0,0.0,0.0,0.0,0.0,0.0,0.0,0.0,0.0,0.0,0.0,0.0,0.0,0.0,0.0,0.0,0.0,0.0,0.0,0.0,0.0,0.0,0.0,0.0,0.0,0.0,0.0,0.0,0.0,0.0,0.0,0.0,0.0,0.0,0.0,0.0,0.0,0.0,0.0,0.0,0.0,0.0,0.0,0.0,0.0,0.0,0.0,0.0,0.0,0.0,0.0,0.0,0.0,0.0,0.0,0.0,0.0,0.0,0.0,0.0,0.0,0.0,0.0,0.0,0.0,0.0,0.0,0.0,0.0,0.0,0.0,0.0,0.0,0.0,0.0,0.0,0.0,0.0,0.0,0.0,0.0,0.0,0.0,0.0,0.0,0.0,0.0,0.0,0.0,0.0,0.0,0.0,0.0,0.0,0.0,0.0,0.0,0.0,0.0,0.0,0.0,0.0,0.0,0.0,0.0,0.0,0.0,0.0,0.0,0.0,0.0,0.0,0.0,0.0,0.0,0.0,0.0,0.0,0.0,0.0,0.0,0.0,0.0,0.0,0.0,0.0,0.0,0.0,0.0,0.0,0.0,0.0,0.0,0.0,0.0,0.0,0.0,0.0,0.0,0.0,0.0,0.0,0.0,0.0,0.0,0.0,0.0,0.0,0.0,0.0,0.0,0.0,0.0,0.0,0.0,0.0,0.0,0.0,0.0,0.0,0.0,0.0,0.0,0.0,0.0,0.0,0.0,0.0,0.0,0.0,0.0,0.0,0.0,0.0,0.0,0.0,0.0,0.0,0.0,0.0,0.0,0.0,0.0,0.0,0.0,0.0,0.0,0.0,0.0,0.0,0.0,0.0,0.0,0.0,0.0,0.0,0.0,0.0,0.0,0.0,0.0,0.0,0.0,0.0,0.0,0.0,0.0,0.0,0.0,0.0,0.0,0.0,0.0,0.0,0.0,0.0,0.0,0.0,0.0,0.0,0.0,0.0,0.0,0.0,0.0,0.0,0.0,0.0,0.0,0.0,0.0,0.0,0.0,0.0,0.0,0.0,0.0,0.0,0.0,0.0,0.0,0.0,0.0,0.0,0.0,0.0,0.0,0.0,0.0,0.0,0.0,0.0,0.0,0.0,0.0,0.0,0.0,0.0,0.0,0.0,0.0,0.0,0.0,0.0,0.0,0.0,0.0,0.0,0.0,0.0,0.0,0.0,0.0,0.0,0.0,0.0,0.0,0.0,0.0,0.0,0.0,0.0,0.0,0.0,0.0,0.0,0.0,0.0,0.0,0.0,0.0,0.0,0.0,0.0,0.0,0.0,0.0,0.0,0.0,0.0,0.0,0.0,0.0,0.0,0.0,0.0,0.0,0.0,0.0,0.0,0.0,0.0,0.0,0.0,0.0,0.0,0.0,0.0,0.0,0.0,0.0,0.0,0.0,0.0,0.0,0.0,0.0,0.0,0.0,0.0,0.0,0.0,0.0,0.0,0.0,0.0,0.0,0.0,0.0,0.0,0.0,0.0,0.0,0.0,0.0,0.0,0.0,0.0,0.0,0.0,0.0,0.0,0.0,0.0,0.0,0.0,0.0,0.0,0.0,0.0,0.0,0.0,0.0,0.0,0.0,0.0,0.0,0.0,0.0,0.0,0.0,0.0,0.0,0.0,0.0,0.0,0.0,0.0,0.0,0.0,0.0,0.0,0.0,0.0,0.0,0.0,0.0,0.0,0.0,0.0,0.0,0.0,0.0,0.0,0.0,0.0,0.0,0.0,0.0,0.0,0.0,0.0,0.0,0.0,0.0,0.0,0.0,0.0,0.0,0.0,0.0,0.0,0.0,0.0,0.0,0.0,0.0,0.0,0.0,0.0,0.0,0.0,0.0,0.0,0.0,0.0,0.0,0.0,0.0,0.0,0.0,0.0,0.0,0.0,0.0,0.0,0.0,0.0,0.0,0.0,0.0,0.0,0.0,0.0,0.0,0.0,0.0,0.0,0.0,0.0,0.0,0.0,0.0,0.0,0.0,0.0,0.0,0.0,0.0,0.0,0.0,0.0,0.0,0.0,0.0,0.0,0.0,0.0,0.0,0.0,0.0,0.0,0.0,0.0,0.0,0.0,0.0,0.0,0.0,0.0,0.0,0.0,0.0,0.0,0.0,0.0,0.0,0.0,0.0,0.0,0.0,0.0,0.0,0.0,0.0,0.0,0.0,0.0,0.0,0.0,0.0,0.0,0.0,0.0,0.0,0.0,0.0,0.0,0.0,0.0,0.0,0.0,0.0,0.0,0.0,0.0,0.0,0.0,0.0,0.0,0.0,0.0,0.0,0.0,0.0,0.0,0.0,0.0,0.0,0.0,0.0,0.0,0.0,0.0,0.0,0.0,0.0,0.0,0.0,0.0,0.0,0.0,0.0,0.0,0.0,0.0,0.0,0.0,0.0,0.0,0.0,0.0,0.0,0.0,0.0,0.0,0.0,0.0,0.0,0.0,0.0,0.0,0.0,0.0,0.0,0.0,0.0,0.0,0.0,0.0,0.0,0.0,0.0,0.0,0.0,0.0,0.0,0.0,0.0,0.0,0.0,0.0,0.0,0.0,0.0,0.0,0.0,0.0,0.0,0.0,0.0,0.0,0.0,0.0,0.0,0.0,0.0,0.0,0.0,0.0,0.0,0.0,0.0,0.0,0.0,0.0,0.0,0.0,0.0,0.0,0.0,0.0,0.0,0.0,0.0,0.0,0.0,0.0,0.0,0.0,0.0,0.0,0.0,0.0,0.0,0.0,0.0,0.0,0.0,0.0,0.0,0.0,0.0,0.0,0.0,0.0,0.0,0.0,0.0,0.0,0.0,0.0,0.0,0.0,0.0,0.0,0.0,0.0,0.0,0.0,0.0,0.0,0.0,0.0,0.0,0.0,0.0,0.0,0.0,0.0,0.0,0.0,0.0,0.0,0.0,0.0,0.0,0.0,0.0,0.0,0.0,0.0,0.0,0.0,0.0,0.0,0.0,0.0,0.0,0.0,0.0,0.0,0.0,0.0,0.0,0.0,0.0,0.0,0.0,0.0,0.0,0.0,0.0,0.0,0.0,0.0,0.0,0.0,0.0,0.0,0.0,0.0,0.0,0.0,0.0,0.0,0.0,0.0,0.0,0.0,0.0,0.0,0.0,0.0,0.0,0.0,0.0,0.0,0.0,0.0,0.0,0.0,0.0,0.0,0.0,0.0,0.0,0.0,0.0,0.0,0.0,0.0,0.0,0.0,0.0,0.0,0.0,0.0,0.0,0.0,0.0,0.0,0.0,0.0,0.0,0.0,0.0,0.0,0.0,0.0,0.0,0.0,0.0,0.0,0.0,0.0,0.0,0.0,0.0,0.0,0.0,0.0,0.0,0.0,0.0,0.0,0.0,0.0,0.0,0.0,0.0,0.0,0.0,0.0,0.0,0.0,0.0,0.0,0.0,0.0,0.0,0.0,0.0,0.0,0.0,0.0,0.0,0.0,0.0,0.0,0.0,0.0,0.0,0.0,0.0,0.0,0.0,0.0,0.0,0.0,0.0,0.0,0.0,0.0,0.0,0.0,0.0,0.0,0.0,0.0,0.0,0.0,0.0,0.0,0.0,0.0,0.0,0.0,0.0,0.0,0.0,0.0,0.0,0.0,0.0,0.0,0.0,0.0,0.0,0.0,0.0,0.0,0.0,0.0,0.0,0.0,0.0,0.0,0.0,0.0,0.0,0.0,0.0,0.0,0.0,0.0,0.0,0.0,0.0,0.0,0.0,0.0,0.0,0.0,0.0,0.0,0.0,0.0,0.0,0.0,0.0,0.0,0.0,0.0,0.0,0.0,0.0,0.0,0.0,0.0,0.0,0.0,0.0,0.0,0.0,0.0,0.0,0.0,0.0,0.0,0.0,0.0,0.0,0.0,0.0,0.0,0.0,0.0,0.0,0.0,0.0,0.0,0.0,0.0,0.0,0.0,0.0,0.0,0.0,0.0,0.0,0.0,0.0,0.0,0.0,0.0,0.0,0.0,0.0,0.0,0.0,0.0,0.0,0.0,0.0,0.0,0.0,0.0,0.0,0.0,0.0,0.0,0.0,0.0,0.0,0.0,0.0,0.0,0.0,0.0,0.0,0.0,0.0,0.0,0.0,0.0,0.0,0.0,0.0,0.0,0.0,0.0,0.0,0.0,0.0,0.0,0.0,0.0,0.0,0.0,0.0,0.0,0.0,0.0,0.0,0.0,0.0,0.0,0.0,0.0,0.0,0.0,0.0,1.3051,0.0,0.0,0.0,0.0,0.0,0.0,0.0,0.0,0.0,0.0,0.0,0.0,0.0,0.0,0.0,0.0,0.0,0.0,0.0,0.0,0.0,0.0,0.0,0.0,0.0,0.0,0.0,0.0,0.0,0.0,0.0,0.0,0.0,0.0,0.0,0.0,0.0,0.0,0.0,0.0,0.0,0.0,0.0,0.0,0.0,0.0,0.0,0.0,0.0,0.0,0.0,0.0,0.0,0.0,0.0,0.0,0.0,0.0,0.0,0.0,0.0,0.0,0.0,0.0,0.0,0.0,0.0,0.0,0.0,0.0,0.0,0.0,0.0,0.0,0.0,0.0,0.0,0.0,0.0,0.0,0.0,0.0,0.0,0.0,0.0,0.0,0.0,0.0,0.0,0.0,0.0,0.0,0.0,0.0,0.0,0.0,0.0,0.0,0.0,0.0,0.0,0.0,0.0,0.0,0.0,0.0,0.0,0.0,0.0,0.0,1.253,1.2461,1.2585,1.2614,1.2569,0.0,0.0,0.0,0.0,0.0,0.0,0.0,0.0,0.0,0.0,0.0,0.0,0.0,0.0,0.0,0.0,0.0,0.0,0.0,0.0,0.0,0.0,0.0,0.0,0.0,0.0,0.0,0.0,0.0,0.0,0.0,0.0,0.0,0.0,0.0,0.0,0.0,0.0,0.0,0.0,0.0,0.0,0.0,0.0,0.0,0.0,0.0,0.0,0.0,0.0,0.0,0.0,0.0,0.0,0.0,0.0,0.0,0.0,0.0,0.0,0.0,0.0,0.0,0.0,0.0,0.0,0.0,0.0,0.0,0.0,0.0,0.0,0.0,0.0,0.0,0.0,0.0,0.0,0.0,0.0,0.0,0.0,0.0,0.0,0.0,0.0,0.0,0.0,0.0,0.0,0.0,0.0,0.0,0.0,0.0,0.0,0.0,0.0,0.0,0.0,0.0,0.0,0.0,0.0,0.0,0.0,0.0,0.0,0.0,0.0,0.0,0.0,1.2677,1.2666,1.2752,0.0,0.0,0.0,0.0,0.0,0.0,0.0,0.0,0.0,0.0,0.0,0.0,0.0,0.0,0.0,0.0,0.0,0.0,0.0,0.0,0.0,0.0,0.0,0.0,0.0,0.0,0.0,0.0,0.0,0.0,0.0,0.0,0.0,0.0,0.0,0.0,0.0,0.0,0.0,0.0,0.0,0.0,0.0,0.0,0.0,0.0,0.0,0.0,0.0,0.0,0.0,0.0,0.0,0.0,0.0,0.0,0.0,0.0,0.0,0.0,0.0,0.0,0.0,0.0,0.0,0.0,0.0,0.0,0.0,0.0,0.0,0.0,0.0,0.0,0.0,0.0,0.0,0.0,0.0,0.0,0.0,0.0,0.0,0.0,0.0,0.0,0.0,0.0,0.0,0.0,0.0,0.0,0.0,0.0,0.0,0.0,0.0,0.0,0.0,0.0,0.0,0.0,0.0,0.0,0.0,0.0,0.0,0.0,0.0,0.0,1.2609,1.4472,1.4348,0.0,1.4354,0.0,0.0,0.0,0.0,0.0,0.0,0.0,0.0,0.0,0.0,0.0,0.0,0.0,0.0,0.0,0.0,0.0,0.0,0.0,0.0,0.0,0.0,0.0,0.0,0.0,0.0,0.0,0.0,0.0,0.0,0.0,0.0,0.0,0.0,0.0,0.0,0.0,0.0,0.0,0.0,0.0,0.0,0.0,0.0,0.0,0.0,0.0,0.0,0.0,0.0,0.0,0.0,0.0,0.0,0.0,0.0,0.0,0.0,0.0,0.0,0.0,0.0,0.0,0.0,0.0,0.0,0.0,0.0,0.0,0.0,0.0,0.0,0.0,0.0,0.0,0.0,0.0,0.0,0.0,0.0,0.0,0.0,0.0,0.0,0.0,0.0,0.0,0.0,0.0,0.0,0.0,0.0,0.0,0.0,0.0,0.0,0.0,0.0,0.0,0.0,0.0,0.0,0.0,0.0,0.0,0.0,0.0,0.0,0.0,0.0,0.0,1.4198,1.4212,1.4212,0.0,0.0,0.0,0.0,0.0,0.0,0.0,0.0,0.0,0.0,0.0,0.0,0.0,0.0,0.0,0.0,0.0,0.0,0.0,0.0,0.0,0.0,0.0,0.0,0.0,0.0,0.0,0.0,0.0,0.0,0.0,0.0,0.0,0.0,0.0,0.0,0.0,0.0,0.0,0.0,0.0,0.0,0.0,0.0,0.0,0.0,0.0,0.0,0.0,0.0,0.0,0.0,0.0,0.0,0.0,0.0,0.0,0.0,0.0,0.0,0.0,0.0,0.0,0.0,0.0,0.0,0.0,0.0,0.0,0.0,0.0,0.0,0.0,0.0,0.0,0.0,0.0,0.0,0.0,0.0,0.0,0.0,0.0,0.0,0.0,0.0,0.0,0.0,0.0,0.0,0.0,0.0,0.0,0.0,0.0,0.0,0.0,0.0,0.0,0.0,0.0,0.0,0.0,0.0,0.0,0.0,0.0,0.0,0.0,0.0,1.2601,0.0,1.4271,1.4565,1.4463,1.3896,0.0,0.0,0.0,0.0,0.0,0.0,0.0,0.0,0.0,0.0,0.0,0.0,0.0,0.0,0.0,0.0,0.0,0.0,0.0,0.0,0.0,0.0,0.0,0.0,0.0,0.0,0.0,0.0,0.0,0.0,0.0,0.0,0.0,0.0,0.0,0.0,0.0,0.0,0.0,0.0,0.0,0.0,0.0,0.0,0.0,0.0,0.0,0.0,0.0,0.0,0.0,0.0,0.0,0.0,0.0,0.0,0.0,0.0,0.0,0.0,0.0,0.0,0.0,0.0,0.0,0.0,0.0,0.0,0.0,0.0,0.0,0.0,0.0,0.0,0.0,0.0,0.0,0.0,0.0,0.0,0.0,0.0,0.0,0.0,0.0,0.0,0.0,0.0,0.0,0.0,0.0,0.0,0.0,0.0,0.0,0.0,0.0,0.0,0.0,0.0,0.0,0.0,0.0,0.0,0.0,0.0,0.0,0.0,0.0,1.339,1.3529,1.5561,1.6178,1.558,0.0,0.0,0.0,0.0,0.0,0.0,0.0,0.0,0.0,0.0,0.0,0.0,0.0,0.0,0.0,0.0,0.0,0.0,0.0,0.0,0.0,0.0,0.0,0.0,0.0,0.0,0.0,0.0,0.0,0.0,0.0,0.0,0.0,0.0,0.0,0.0,0.0,0.0,0.0,0.0,0.0,0.0,0.0,0.0,0.0,0.0,0.0,0.0,0.0,0.0,0.0,0.0,0.0,0.0,0.0,0.0,0.0,0.0,0.0,0.0,0.0,0.0,0.0,0.0,0.0,0.0,0.0,0.0,0.0,0.0,0.0,0.0,0.0,0.0,0.0,0.0,0.0,0.0,0.0,0.0,0.0,0.0,0.0,0.0,0.0,0.0,0.0,0.0,0.0,0.0,0.0,0.0,0.0,0.0,0.0,0.0,0.0,0.0,0.0,0.0,0.0,0.0,0.0,0.0,0.0,0.0,0.0,0.0,0.0,1.151,1.23,1.4224,1.725,1.5474,1.4618,0.0,0.0,0.0,0.0,0.0,0.0,0.0,0.0,0.0,0.0,0.0,0.0,0.0,0.0,0.0,0.0,0.0,0.0,0.0,0.0,0.0,0.0,0.0,0.0,0.0,0.0,0.0,0.0,0.0,0.0,0.0,0.0,0.0,0.0,0.0,0.0,0.0,0.0,0.0,0.0,0.0,0.0,0.0,0.0,0.0,0.0,0.0,0.0,0.0,0.0,0.0,0.0,0.0,0.0,0.0,0.0,0.0,0.0,0.0,0.0,0.0,0.0,0.0,0.0,0.0,0.0,0.0,0.0,0.0,0.0,0.0,0.0,0.0,0.0,0.0,0.0,0.0,0.0,0.0,0.0,0.0,0.0,0.0,0.0,0.0,0.0,0.0,0.0,0.0,0.0,0.0,0.0,0.0,0.0,0.0,0.0,0.0,0.0,0.0,0.0,0.0,0.0,0.0,0.0,0.0,0.0,0.0,0.0,0.0,1.0751,0.0,1.4917,0.0,1.4842,1.3832,0.0,0.0,0.0,0.0,0.0,0.0,0.0,0.0,0.0,0.0,0.0,0.0,0.0,0.0,0.0,0.0,0.0,0.0,0.0,0.0,0.0,0.0,0.0,0.0,0.0,0.0,0.0,0.0,0.0,0.0,0.0,0.0,0.0,0.0,0.0,0.0,0.0,0.0,0.0,0.0,0.0,0.0,0.0,0.0,0.0,0.0,0.0,0.0,0.0,0.0,0.0,0.0,0.0,0.0,0.0,0.0,0.0,0.0,0.0,0.0,0.0,0.0,0.0,0.0,0.0,0.0,0.0,0.0,0.0,0.0,0.0,0.0,0.0,0.0,0.0,0.0,0.0,0.0,0.0,0.0,0.0,0.0,0.0,0.0,0.0,0.0,0.0,0.0,0.0,0.0,0.0,0.0,0.0,0.0,0.0,0.0,0.0,0.0,0.0,0.0,0.0,0.0,0.0,0.0,0.0,0.0,0.0,0.0,0.9967,1.3209,1.5001,1.5348,1.4245,1.4423,1.3326,0.0,0.0,0.0,0.0,0.0,0.0,0.0,0.0,0.0,0.0,0.0,0.0,0.0,0.0,0.0,0.0,0.0,0.0,0.0,0.0,0.0,0.0,0.0,0.0,0.0,0.0,0.0,0.0,0.0,0.0,0.0,0.0,0.0,0.0,0.0,0.0,0.0,0.0,0.0,0.0,0.0,0.0,0.0,0.0,0.0,0.0,0.0,0.0,0.0,0.0,0.0,0.0,0.0,0.0,0.0,0.0,0.0,0.0,0.0,0.0,0.0,0.0,0.0,0.0,0.0,0.0,0.0,0.0,0.0,0.0,0.0,0.0,0.0,0.0,0.0,0.0,0.0,0.0,0.0,0.0,0.0,0.0,0.0,0.0,0.0,0.0,0.0,0.0,0.0,0.0,0.0,0.0,0.0,0.0,0.0,0.0,0.0,0.0,0.0,0.0,0.0,0.0,0.0,0.0,0.0,0.0,0.0,0.0,0.0,1.1869,1.3098,1.4394,1.553,1.339,1.2537,0.0,0.0,0.0,0.0,0.0,0.0,0.0,0.0,0.0,0.0,0.0,0.0,0.0,0.0,0.0,0.0,0.0,0.0,0.0,0.0,0.0,0.0,0.0,0.0,0.0,0.0,0.0,0.0,0.0,0.0,0.0,0.0,0.0,0.0,0.0,0.0,0.0,0.0,0.0,0.0,0.0,0.0,0.0,0.0,0.0,0.0,0.0,0.0,0.0,0.0,0.0,0.0,0.0,0.0,0.0,0.0,0.0,0.0,0.0,0.0,0.0,0.0,0.0,0.0,0.0,0.0,0.0,0.0,0.0,0.0,0.0,0.0,0.0,0.0,0.0,0.0,0.0,0.0,0.0,0.0,0.0,0.0,0.0,0.0,0.0,0.0,0.0,0.0,0.0,0.0,0.0,0.0,0.0,0.0,0.0,0.0,0.0,0.0,0.0,0.0,0.0,0.0,0.0,0.0,0.0,0.0,0.0,0.0,0.0,1.3008,1.4233,1.5354,1.6215,1.3879,1.2814,1.3257,0.0,0.0,0.0,0.0,0.0,0.0,0.0,0.0,0.0,0.0,0.0,0.0,0.0,0.0,0.0,0.0,0.0,0.0,0.0,0.0,0.0,0.0,0.0,0.0,0.0,0.0,0.0,0.0,0.0,0.0,0.0,0.0,0.0,0.0,0.0,0.0,0.0,0.0,0.0,0.0,0.0,0.0,0.0,0.0,0.0,0.0,0.0,0.0,0.0,0.0,0.0,0.0,0.0,0.0,0.0,0.0,0.0,0.0,0.0,0.0,0.0,0.0,0.0,0.0,0.0,0.0,0.0,0.0,0.0,0.0,0.0,0.0,0.0,0.0,0.0,0.0,0.0,0.0,0.0,0.0,0.0,0.0,0.0,0.0,0.0,0.0,0.0,0.0,0.0,0.0,0.0,0.0,0.0,0.0,0.0,0.0,0.0,0.0,0.0,0.0,0.0,0.0,0.0,0.0,0.0,0.0,0.0,0.0,1.5941,1.7859,1.798,1.6243,1.5579,1.3999,0.0,0.0,0.0,0.0,0.0,0.0,0.0,0.0,0.0,0.0,0.0,0.0,0.0,0.0,0.0,0.0,0.0,0.0,0.0,0.0,0.0,0.0,0.0,0.0,0.0,0.0,0.0,0.0,0.0,0.0,0.0,0.0,0.0,0.0,0.0,0.0,0.0,0.0,0.0,0.0,0.0,0.0,0.0,0.0,0.0,0.0,0.0,0.0,0.0,0.0,0.0,0.0,0.0,0.0,0.0,0.0,0.0,0.0,0.0,0.0,0.0,0.0,0.0,0.0,0.0,0.0,0.0,0.0,0.0,0.0,0.0,0.0,0.0,0.0,0.0,0.0,0.0,0.0,0.0,0.0,0.0,0.0,0.0,0.0,0.0,0.0,0.0,0.0,0.0,0.0,0.0,0.0,0.0,0.0,0.0,0.0,0.0,0.0,0.0,0.0,0.0,0.0,0.0,0.0,0.0,0.0,0.0,0.0,0.0,1.6769,1.9287,1.9879,1.8311,1.6023,1.4428,0.0,0.0,0.0,0.0,0.0,0.0,0.0,0.0,0.0,0.0,0.0,0.0,0.0,0.0,0.0,0.0,0.0,0.0,0.0,0.0,0.0,0.0,0.0,0.0,0.0,0.0,0.0,0.0,0.0,0.0,0.0,0.0,0.0,0.0,0.0,0.0,0.0,0.0,0.0,0.0,0.0,0.0,0.0,0.0,0.0,0.0,0.0,0.0,0.0,0.0,0.0,0.0,0.0,0.0,0.0,0.0,0.0,0.0,0.0,0.0,0.0,0.0,0.0,0.0,0.0,0.0,0.0,0.0,0.0,0.0,0.0,0.0,0.0,0.0,0.0,0.0,0.0,0.0,0.0,0.0,0.0,0.0,0.0,0.0,0.0,0.0,0.0,0.0,0.0,0.0,0.0,0.0,0.0,0.0,0.0,0.0,0.0,0.0,0.0,0.0,0.0,0.0,0.0,0.0,0.0,0.0,0.0,0.0,1.5782,1.7707,2.0358,2.1125,1.9818,1.7535,1.567,0.0,0.0,0.0,0.0,0.0,0.0,0.0,0.0,0.0,0.0,0.0,0.0,0.0,0.0,0.0,0.0,0.0,0.0,0.0,0.0,0.0,0.0,0.0,0.0,0.0,0.0,0.0,0.0,0.0,0.0,0.0,0.0,0.0,0.0,0.0,0.0,0.0,0.0,0.0,0.0,0.0,0.0,0.0,0.0,0.0,0.0,0.0,0.0,0.0,0.0,0.0,0.0,0.0,0.0,0.0,0.0,0.0,0.0,0.0,0.0,0.0,0.0,0.0,0.0,0.0,0.0,0.0,0.0,0.0,0.0,0.0,0.0,0.0,0.0,0.0,0.0,0.0,0.0,0.0,0.0,0.0,0.0,0.0,0.0,0.0,0.0,0.0,0.0,0.0,0.0,0.0,0.0,0.0,0.0,0.0,0.0,0.0,0.0,0.0,0.0,0.0,0.0,0.0,0.0,0.0,0.0,0.0,0.0,1.6917,1.8606,2.1047,2.1856,2.0803,1.9383,1.7164,0.0,0.0,0.0,0.0,0.0,0.0,0.0,0.0,0.0,0.0,0.0,0.0,0.0,0.0,0.0,0.0,0.0,0.0,0.0,0.0,0.0,0.0,0.0,0.0,0.0,0.0,0.0,0.0,0.0,0.0,0.0,0.0,0.0,0.0,0.0,0.0,0.0,0.0,0.0,0.0,0.0,0.0,0.0,0.0,0.0,0.0,0.0,0.0,0.0,0.0,0.0,0.0,0.0,0.0,0.0,0.0,0.0,0.0,0.0,0.0,0.0,0.0,0.0,0.0,0.0,0.0,0.0,0.0,0.0,0.0,0.0,0.0,0.0,0.0,0.0,0.0,0.0,0.0,0.0,0.0,0.0,0.0,0.0,0.0,0.0,0.0,0.0,0.0,0.0,0.0,0.0,0.0,0.0,0.0,0.0,0.0,0.0,0.0,0.0,0.0,0.0,0.0,0.0,0.0,0.0,0.0,0.0,0.0,1.7337,1.8584,2.0951,2.1876,2.1272,1.9062,1.7082,0.0,0.0,0.0,0.0,0.0,0.0,0.0,0.0,0.0,0.0,0.0,0.0,0.0,0.0,0.0,0.0,0.0,0.0,0.0,0.0,0.0,0.0,0.0,0.0,0.0,0.0,0.0,0.0,0.0,0.0,0.0,0.0,0.0,0.0,0.0,0.0,0.0,0.0,0.0,0.0,0.0,0.0,0.0,0.0,0.0,0.0,0.0,0.0,2.0014,0.0,0.0,0.0,0.0,0.0,0.0,0.0,0.0,0.0,0.0,0.0,0.0,0.0,0.0,0.0,0.0,0.0,0.0,0.0,0.0,0.0,0.0,0.0,0.0,0.0,0.0,0.0,0.0,0.0,0.0,0.0,0.0,0.0,0.0,0.0,0.0,0.0,0.0,0.0,0.0,0.0,0.0,0.0,0.0,0.0,0.0,0.0,0.0,0.0,0.0,0.0,0.0,0.0,0.0,0.0,0.0,0.0,0.0,0.0,1.7575,1.9145,2.0782,2.1407,2.0886,1.9199,1.7453,0.0,0.0,0.0,0.0,0.0,0.0,0.0,0.0,0.0,0.0,0.0,0.0,0.0,0.0,0.0,0.0,0.0,0.0,0.0,0.0,0.0,0.0,0.0,0.0,0.0,0.0,0.0,0.0,0.0,0.0,0.0,0.0,0.0,0.0,0.0,0.0,0.0,0.0,0.0,0.0,0.0,0.0,0.0,0.0,0.0,0.0,0.0,0.0,0.0,0.0,0.0,0.0,0.0,0.0,0.0,0.0,0.0,0.0,0.0,0.0,0.0,0.0,0.0,0.0,0.0,0.0,0.0,0.0,0.0,0.0,0.0,0.0,0.0,0.0,0.0,0.0,0.0,0.0,0.0,0.0,0.0,0.0,0.0,0.0,0.0,0.0,0.0,0.0,0.0,0.0,0.0,0.0,0.0,0.0,0.0,0.0,0.0,0.0,0.0,0.0,0.0,0.0,0.0,0.0,0.0,0.0,0.0,1.5343,1.7604,1.973,2.0576,2.0824,2.0385,1.936,1.7828,1.5759,0.0,0.0,0.0,0.0,0.0,0.0,0.0,0.0,0.0,0.0,0.0,0.0,0.0,0.0,0.0,0.0,0.0,0.0,0.0,0.0,0.0,0.0,0.0,0.0,0.0,0.0,0.0,0.0,0.0,0.0,0.0,0.0,0.0,0.0,0.0,0.0,0.0,0.0,1.8778,2.0662,0.0,0.0,0.0,0.0,0.0,0.0,0.0,0.0,2.1573,0.0,0.0,0.0,0.0,0.0,0.0,0.0,0.0,0.0,0.0,0.0,0.0,0.0,0.0,0.0,0.0,0.0,0.0,0.0,0.0,0.0,0.0,0.0,0.0,0.0,0.0,0.0,0.0,0.0,0.0,0.0,0.0,0.0,0.0,0.0,0.0,0.0,0.0,0.0,0.0,0.0,0.0,0.0,0.0,0.0,0.0,0.0,0.0,0.0,0.0,0.0,0.0,0.0,0.0,0.0,0.0,1.503,1.5723,1.7277,1.973,2.0265,2.0467,2.0354,1.9173,1.7441,1.5315,0.0,0.0,0.0,0.0,0.0,0.0,0.0,0.0,0.0,0.0,0.0,0.0,0.0,0.0,0.0,0.0,0.0,0.0,0.0,0.0,0.0,0.0,0.0,0.0,0.0,0.0,0.0,0.0,0.0,0.0,0.0,0.0,0.0,0.0,0.0,0.0,0.0,0.0,0.0,2.3512,2.4233,0.0,0.0,0.0,0.0,0.0,0.0,0.0,0.0,2.2941,0.0,0.0,0.0,0.0,0.0,0.0,0.0,0.0,0.0,0.0,0.0,0.0,0.0,0.0,0.0,0.0,0.0,0.0,0.0,0.0,0.0,0.0,0.0,0.0,0.0,0.0,0.0,0.0,0.0,0.0,0.0,0.0,0.0,0.0,0.0,0.0,0.0,0.0,0.0,0.0,0.0,0.0,0.0,0.0,0.0,0.0,0.0,0.0,0.0,0.0,0.0,0.0,0.0,0.0,0.0,1.4837,1.5829,1.7312,1.9435,1.954,1.9606,1.9787,1.8553,1.7057,0.0,0.0,0.0,0.0,0.0,0.0,0.0,0.0,0.0,0.0,0.0,0.0,0.0,0.0,0.0,0.0,0.0,0.0,0.0,0.0,0.0,0.0,0.0,0.0,0.0,0.0,0.0,0.0,0.0,0.0,0.0,0.0,0.0,0.0,0.0,0.0,0.0,0.0,0.0,0.0,2.4825,2.5486,2.7286,0.0,0.0,0.0,0.0,0.0,0.0,2.3811,2.3491,0.0,0.0,0.0,0.0,0.0,0.0,0.0,0.0,0.0,0.0,0.0,0.0,0.0,0.0,0.0,0.0,0.0,0.0,0.0,0.0,0.0,0.0,0.0,0.0,0.0,0.0,0.0,0.0,0.0,0.0,0.0,0.0,0.0,0.0,0.0,0.0,0.0,0.0,0.0,0.0,0.0,0.0,0.0,0.0,0.0,0.0,0.0,0.0,0.0,0.0,0.0,0.0,0.0,0.0,0.0,1.4477,1.5692,1.728,1.9167,1.8731,1.8673,1.9098,1.7659,1.6329,0.0,0.0,0.0,0.0,0.0,0.0,0.0,0.0,0.0,0.0,0.0,0.0,0.0,0.0,0.0,0.0,0.0,0.0,0.0,0.0,0.0,0.0,0.0,0.0,0.0,0.0,0.0,0.0,0.0,0.0,0.0,0.0,0.0,0.0,0.0,0.0,0.0,0.0,0.0,0.0,0.0,2.687,2.8411,2.7304,0.0,0.0,0.0,0.0,2.4927,2.5199,0.0,0.0,0.0,0.0,0.0,0.0,0.0,0.0,0.0,0.0,0.0,0.0,0.0,0.0,0.0,0.0,0.0,0.0,0.0,0.0,0.0,0.0,0.0,0.0,0.0,0.0,0.0,0.0,0.0,0.0,0.0,0.0,0.0,0.0,0.0,0.0,0.0,0.0,0.0,0.0,0.0,0.0,0.0,0.0,0.0,0.0,0.0,0.0,0.0,0.0,0.0,0.0,0.0,0.0,0.0,0.0,1.4875,1.518,1.6553,1.9013,1.8122,1.7889,1.8546,1.6539,1.4987,0.0,0.0,0.0,0.0,0.0,0.0,0.0,0.0,0.0,0.0,0.0,0.0,0.0,0.0,0.0,0.0,0.0,0.0,0.0,0.0,0.0,0.0,0.0,0.0,0.0,0.0,0.0,0.0,0.0,0.0,0.0,0.0,0.0,0.0,0.0,0.0,0.0,0.0,0.0,0.0,0.0,2.9144,2.8527,2.7942,2.7175,0.0,0.0,2.7326,2.7294,2.9405,0.0,0.0,0.0,0.0,0.0,0.0,0.0,0.0,0.0,0.0,0.0,0.0,0.0,0.0,0.0,0.0,0.0,0.0,0.0,0.0,0.0,0.0,0.0,0.0,0.0,0.0,0.0,0.0,0.0,0.0,0.0,0.0,0.0,0.0,0.0,0.0,0.0,0.0,0.0,0.0,0.0,0.0,0.0,0.0,0.0,0.0,0.0,0.0,0.0,0.0,0.0,0.0,0.0,0.0,0.0,1.235,1.5332,1.6058,1.7191,1.8891,1.8415,1.8197,1.8244,1.6222,1.4868,0.0,0.0,0.0,0.0,0.0,0.0,0.0,0.0,0.0,0.0,0.0,0.0,0.0,0.0,0.0,0.0,0.0,0.0,0.0,0.0,0.0,0.0,0.0,0.0,0.0,0.0,0.0,0.0,0.0,0.0,0.0,0.0,0.0,0.0,0.0,0.0,0.0,0.0,0.0,0.0,0.0,0.0,3.0274,3.0018,0.0,0.0,0.0,2.8784,2.8237,0.0,0.0,0.0,0.0,0.0,0.0,0.0,0.0,0.0,0.0,0.0,0.0,0.0,0.0,0.0,0.0,0.0,0.0,0.0,0.0,0.0,0.0,0.0,0.0,0.0,0.0,0.0,0.0,0.0,0.0,0.0,0.0,0.0,0.0,0.0,0.0,0.0,0.0,0.0,0.0,0.0,0.0,0.0,0.0,0.0,0.0,0.0,0.0,0.0,0.0,0.0,0.0,0.0,0.0,0.0,0.0,0.0,1.552,1.6674,1.7797,1.8835,1.8535,1.8333,1.8164,1.6273,0.0,0.0,0.0,0.0,0.0,0.0,0.0,0.0,0.0,0.0,0.0,0.0,0.0,0.0,0.0,0.0,0.0,0.0,0.0,0.0,0.0,0.0,0.0,0.0,0.0,0.0,0.0,1.119,0.0,0.0,0.0,0.0,0.0,0.0,0.0,0.0,0.0,0.0,0.0,0.0,0.0,0.0,2.9551,3.119,3.1384,3.1432,0.0,0.0,2.9997,2.9516,3.0924,3.0595,0.0,0.0,0.0,0.0,0.0,0.0,0.0,0.0,0.0,0.0,0.0,0.0,0.0,0.0,0.0,0.0,0.0,0.0,0.0,0.0,0.0,0.0,0.0,0.0,0.0,0.0,0.0,0.0,0.0,0.0,0.0,0.0,0.0,0.0,0.0,0.0,0.0,0.0,0.0,0.0,0.0,0.0,0.0,0.0,0.0,0.0,0.0,0.0,0.0,0.0,0.0,0.0,0.0,0.0,0.0,1.5091,1.6455,1.7789,1.9083,1.8059,1.7799,1.8411,1.6757,1.4971,0.0,0.0,0.0,0.0,0.0,0.0,0.0,0.0,0.0,0.0,0.0,0.0,0.0,0.0,0.0,0.0,0.0,0.0,0.0,0.0,0.0,0.0,0.0,0.0,0.0,0.0,0.0,0.0,0.0,0.0,0.0,0.0,0.0,0.0,0.0,0.0,0.0,0.0,0.0,0.0,0.0,2.9954,3.01,3.1066,3.221,0.0,0.0,3.1166,3.183,3.3856,3.3223,2.6959,0.0,0.0,0.0,0.0,0.0,0.0,0.0,0.0,0.0,0.0,0.0,0.0,0.0,0.0,0.0,0.0,0.0,0.0,0.0,0.0,0.0,0.0,0.0,0.0,0.0,0.0,0.0,0.0,0.0,0.0,0.0,0.0,0.0,0.0,0.0,0.0,0.0,0.0,0.0,0.0,0.0,0.0,0.0,0.0,0.0,0.0,0.0,0.0,0.0,0.0,0.0,0.0,0.0,1.2689,1.483,1.7159,1.8644,1.9163,1.898,1.8764,1.8498,1.6982,1.5472,0.0,0.0,0.0,0.0,0.0,0.0,0.0,0.0,0.0,0.0,0.0,0.0,0.0,0.0,0.0,0.0,0.0,0.0,0.0,0.0,0.0,0.0,0.0,0.0,0.0,0.0,0.0,0.0,1.649,1.6876,1.6447,0.0,0.0,0.0,0.0,0.0,0.0,0.0,0.0,0.0,0.0,3.0396,3.226,3.3164,0.0,0.0,3.3597,3.2785,3.2213,3.273,3.1527,2.6706,2.484,0.0,0.0,0.0,0.0,0.0,0.0,0.0,0.0,0.0,0.0,0.0,0.0,0.0,0.0,0.0,0.0,0.0,0.0,0.0,0.0,0.0,0.0,0.0,0.0,0.0,0.0,0.0,0.0,0.0,0.0,0.0,0.0,0.0,0.0,0.0,0.0,0.0,0.0,0.0,0.0,0.0,0.0,0.0,0.0,0.0,0.0,0.0,0.0,0.0,0.0,0.0,0.0,1.2565,1.4468,1.7388,1.9005,1.9152,1.943,1.9312,1.869,1.7593,1.6345,0.0,0.0,0.0,0.0,0.0,0.0,0.0,0.0,0.0,0.0,0.0,0.0,0.0,0.0,0.0,0.0,0.0,0.0,0.0,0.0,0.0,0.0,0.0,0.0,0.0,0.0,0.0,0.0,1.7173,1.722,1.6648,0.0,0.0,0.0,0.0,0.0,0.0,0.0,0.0,0.0,0.0,3.1133,3.3312,3.3845,3.3933,3.3805,3.3144,3.2369,3.1523,3.1336,3.0195,2.6876,0.0,0.0,0.0,0.0,0.0,0.0,0.0,0.0,0.0,0.0,0.0,0.0,0.0,0.0,0.0,0.0,0.0,0.0,0.0,0.0,0.0,0.0,0.0,0.0,0.0,0.0,0.0,0.0,0.0,0.0,0.7764,0.0,0.0,0.0,0.0,0.0,0.0,0.0,0.0,0.0,0.0,0.0,0.0,0.0,0.0,0.0,0.0,0.0,0.0,0.0,0.0,0.0,0.0,1.2604,1.4014,1.6951,1.8651,1.9096,1.9129,1.9129,1.9085,1.8589,1.7613,1.6068,0.0,0.0,0.0,0.0,0.0,0.0,0.0,0.0,0.0,0.0,0.0,0.0,0.0,0.0,0.0,0.0,0.0,0.0,0.0,0.0,0.0,0.0,0.0,0.0,0.0,0.0,1.4611,1.5809,1.6604,0.0,0.0,0.0,0.0,0.0,0.0,0.0,0.0,0.0,0.0,2.9962,3.2282,3.2522,3.2336,3.2103,3.1675,3.0299,2.942,2.9813,3.0319,2.9958,0.0,0.0,0.0,0.0,0.0,0.0,0.0,0.0,0.0,0.0,0.0,0.0,0.0,0.0,0.0,0.0,0.0,0.0,0.0,0.0,0.0,0.0,0.0,0.0,0.0,0.0,0.0,1.0667,1.0527,0.0,0.0,0.0,0.0,0.0,0.0,0.0,0.0,0.0,0.0,0.0,1.5383,1.6004,0.0,0.0,0.0,0.0,0.0,0.0,0.0,0.0,0.0,0.0,0.0,0.0,1.2652,1.3882,1.7144,1.8953,1.9098,1.9098,1.9098,1.9098,1.8652,1.7519,1.57,0.0,0.0,0.0,0.0,0.0,0.0,0.0,0.0,0.0,0.0,0.0,0.0,0.0,0.0,0.0,0.0,0.0,0.0,0.0,0.0,0.0,0.0,0.0,0.0,0.0,1.6059,0.0,0.0,0.0,0.0,0.0,0.0,0.0,0.0,0.0,0.0,0.0,2.5562,2.8399,2.9337,3.0421,3.2196,3.2318,3.2553,0.0,0.0,0.0,0.0,0.0,0.0,0.0,0.0,0.0,0.0,0.0,0.0,0.0,0.0,2.7289,2.3027,2.3047,2.3582,2.3117,0.0,0.0,0.0,0.0,0.0,0.0,0.0,0.0,0.0,0.0,0.0,0.0,0.0,0.0,1.349,0.0,1.2714,0.0,0.0,0.0,0.0,0.0,0.0,0.0,0.0,1.6661,1.769,1.8078,1.8704,1.8446,0.0,1.7028,1.4801,0.0,0.0,0.0,0.0,0.0,0.0,0.0,0.0,1.3143,1.4221,1.7398,1.9098,1.9098,1.9098,1.9098,1.9098,1.8903,1.8186,1.6953,1.5401,1.4188,0.0,0.0,0.0,0.0,0.0,0.0,0.0,0.0,0.0,0.0,0.0,0.0,0.0,0.0,0.0,0.0,0.0,0.0,0.0,0.0,0.0,0.0,0.0,1.6254,0.0,0.0,0.0,0.0,0.0,0.0,0.0,0.0,0.0,2.293,2.5155,2.7552,3.011,3.0281,3.0597,3.1729,0.0,0.0,0.0,0.0,0.0,0.0,0.0,2.8522,2.819,2.8107,2.8488,2.9678,3.1201,3.2176,3.201,0.0,0.0,2.703,2.6728,2.7078,2.6717,2.6755,2.6792,2.6589,2.6794,2.6969,0.0,0.0,0.0,0.0,0.0,0.0,0.0,0.0,1.7437,1.7344,0.0,1.5708,0.0,0.0,0.0,0.0,0.0,1.5584,0.0,0.0,2.1167,2.2122,2.0558,2.0865,2.0841,2.0405,1.927,1.8009,1.6491,1.4049,0.0,0.0,0.0,0.0,0.0,0.0,1.4047,1.5076,1.7728,1.9098,1.9098,1.9098,1.9098,1.9154,1.9384,1.9564,1.963,1.7958,1.6597,1.5578,1.293,0.0,0.0,0.0,0.0,0.0,0.0,0.0,0.0,0.0,0.0,0.0,0.0,0.0,0.0,0.0,0.0,0.0,0.0,0.0,0.0,1.5081,0.0,0.0,0.0,0.0,0.0,0.0,0.0,0.0,0.0,0.0,2.4024,2.7147,3.0041,3.1506,0.0,0.0,0.0,0.0,3.0408,2.8078,2.7629,2.7641,2.7537,2.9065,3.0442,3.0975,0.0,0.0,3.4027,3.3365,3.2923,3.239,3.4108,3.4773,3.284,3.1083,3.0032,2.9939,3.0161,3.0103,2.9772,3.0671,3.1461,2.0233,0.0,0.0,0.0,0.0,1.8449,1.9244,2.0514,2.0595,2.0336,1.9743,1.9037,0.0,0.0,0.0,0.0,0.0,0.0,1.8313,2.0105,2.1244,2.1944,2.2335,2.2438,2.235,2.2036,2.1699,2.0931,1.9833,1.9093,1.6054,1.0963,0.0,0.0,0.0,0.0,1.5144,1.6077,1.8045,1.9098,1.9098,1.9098,1.933,1.9813,2.0057,2.0203,2.0248,1.9076,1.8126,1.7426,1.5475,0.0,0.0,0.0,0.0,0.0,0.0,0.0,0.0,0.0,0.0,0.0,0.0,0.0,0.0,0.0,0.0,0.0,0.0,0.0,1.6107,1.7615,1.8193,0.0,0.0,0.0,0.0,0.0,0.0,0.0,0.0,0.0,2.7078,2.8493,2.9729,0.0,0.0,2.9621,2.8474,2.9625,3.0775,3.124,3.1407,0.0,0.0,3.2183,3.1974,3.2786,3.4801,3.6226,3.6175,3.6912,3.7519,3.7467,3.7642,3.7588,3.7165,3.623,3.5389,3.5024,3.4693,3.4419,3.429,3.416,3.394,2.3823,2.1972,2.0378,2.043,2.149,2.1464,2.2389,2.3896,2.3859,2.3648,2.3246,2.2452,2.1294,1.9822,1.8289,0.0,0.0,0.0,1.9921,2.2135,2.1772,2.1985,2.272,2.2726,2.2696,2.2555,2.2297,2.2066,2.1777,2.1105,1.8838,1.5015,0.0,0.0,1.3592,1.5682,1.7081,1.7773,1.9178,1.9911,1.9868,1.9911,2.0226,2.0855,2.0629,2.0632,2.0876,1.9863,1.9273,1.9146,1.7287,1.56,0.0,0.0,0.0,0.0,0.0,0.0,0.0,0.0,0.0,0.0,0.0,1.3035,1.096,0.0,0.0,0.0,1.5469,1.6946,1.8881,1.9589,0.0,0.0,0.0,0.0,0.0,0.0,0.0,2.3911,2.6488,2.8517,2.9237,2.978,3.0471,3.1512,3.1016,3.0342,2.9754,0.0,3.1924,3.2687,3.2854,3.3228,3.4152,3.3779,3.3879,3.5332,3.6609,3.761,3.7954,3.8804,3.9451,3.9601,3.9403,3.9219,3.9403,3.9056,3.836,3.7286,3.6829,3.6556,3.635,3.6158,3.6054,2.6313,2.6454,2.3179,2.2627,2.3932,2.3944,2.5052,2.6854,2.6867,2.6871,2.6809,2.5695,2.4418,2.2884,2.0434,0.0,2.1642,2.1172,2.1995,2.3824,2.296,2.253,2.2431,2.2462,2.2469,2.2469,2.1858,2.1994,2.2677,2.1205,2.028,1.9994,1.9119,1.8177,1.7265,1.8398,1.9308,1.979,2.0527,2.1,2.1092,2.1155,2.1447,2.201,2.1091,2.0864,2.1421,2.0455,2.0125,2.0611,1.8633,1.7401,1.717,0.0,0.0,0.0,0.0,0.0,0.0,0.0,0.0,0.0,0.0,0.0,0.0,0.0,0.0,0.0,1.8882,0.0,2.2014,2.1359,0.0,0.0,0.0,2.2324,2.4808,2.6296,2.747,2.8288,0.0,0.0,3.0679,3.0986,3.1955,3.4105,3.3748,3.3266,3.3161,3.34,3.3516,3.2918,3.2915,3.3087,3.3783,3.4671,3.5991,3.7794,3.8655,3.8876,3.9146,3.9249,3.9405,3.9651,3.9703,3.9764,4.0045,3.9961,3.943,3.7593,3.7331,3.7268,3.6978,3.7383,3.7726,2.7164,2.7174,2.5632,2.5459,2.6211,2.6198,2.6713,2.7542,2.7575,2.7514,2.7443,2.7189,2.6359,2.5108,2.4133,2.4078,2.479,2.4777,2.5199,2.6002,2.5804,2.5279,2.4516,2.4473,2.406,2.3335,2.316,2.325,2.3488,2.2772,2.2234,2.1908,2.1335,1.9831,1.7471,1.8369,1.9088,1.959,1.9771,2.0293,2.1069,2.1585,2.1737,2.1482,2.1334,2.1307,2.1404,2.0784,2.0828,2.1746,2.0376,1.9075,1.7974,1.4761,0.0,0.0,0.0,0.0,0.0,0.0,0.0,0.0,0.0,1.5438,1.2024,0.0,1.7435,0.0,2.1591,2.4201,2.5065,2.4953,0.0,0.0,2.5569,2.5982,2.8049,2.8917,2.9462,2.9752,3.0332,3.1078,3.2071,3.239,3.316,3.4787,3.362,3.2398,3.1964,3.3305,3.427,3.4193,3.4931,3.5807,3.5998,3.6924,3.7729,3.8315,3.8838,3.9218,3.9272,3.9315,3.9388,3.9651,3.9703,3.9807,4.0045,3.9747,3.9318,3.8801,3.8798,3.8854,3.8747,3.8674,3.8624,2.7483,2.7459,2.6747,2.6479,2.6573,2.6858,2.7443,2.8151,2.8151,2.8139,2.8085,2.7827,2.7339,2.6657,2.6146,2.6042,2.6275,2.6161,2.6246,2.6474,2.629,2.5713,2.4905,2.4905,2.4429,2.3607,2.3607,2.3636,2.3712,2.3501,2.3315,2.3134,2.3093,2.1981,1.9956,1.9835,1.9865,1.9955,2.0683,2.1634,2.2777,2.3199,2.2765,2.1484,2.1681,2.1186,1.9898,1.9738,1.9921,2.039,1.9265,1.8503,1.8282,1.5345,1.3374,0.0,0.0,0.0,0.0,0.0,0.0,0.0,0.0,0.0,0.0,0.0,2.0069,2.0755,2.4114,2.6204,2.6152,2.679,2.7654,2.8712,2.8784,2.9599,3.1648,3.2104,3.253,3.3165,3.3354,3.3786,3.4609,3.444,3.4667,3.5792,3.4822,3.3893,3.3818,3.472,3.5398,3.5429,3.6106,3.6785,3.7044,3.7596,3.8078,3.8363,3.8672,3.8975,3.9262,3.9315,3.9405,3.9625,3.9703,3.9781,4.0037,3.985,3.9601,3.9696,3.9782,3.9671,3.9183,3.8978,3.8908,2.753,2.753,2.7169,2.6736,2.6367,2.6976,2.7556,2.8138,2.8057,2.8157,2.8343,2.7895,2.7705,2.7678,2.7131,2.6932,2.6871,2.6556,2.641,2.6396,2.5989,2.5488,2.4926,2.4913,2.4615,2.4016,2.4003,2.3952,2.39,2.3933,2.3917,2.3796,2.4169,2.3821,2.2761,2.1812,2.1091,2.0623,2.2152,2.3487,2.4637,2.4529,2.3433,2.1497,2.1654,2.066,1.821,1.8417,1.8576,1.8403,1.7417,1.7416,1.8649,1.5962,1.4667,0.0,1.3852,0.0,0.0,0.0,0.0,0.0,0.0,0.0,0.0,2.2156,2.3364,2.4276,2.6511,2.7632,2.7039,2.8331,2.9765,3.1111,3.1687,3.2811,3.4844,3.5116,3.5557,3.6775,3.6755,3.6824,3.7216,3.6593,3.6238,3.6662,3.6296,3.5994,3.6398,3.6446,3.6477,3.6523,3.6662,3.6892,3.7164,3.7449,3.7863,3.8278,3.8532,3.8699,3.9218,3.9342,3.9388,3.9599,3.9703,3.9807,4.002,4.0087,4.0138,4.0213,4.0337,4.0154,3.9358,3.9086,3.9086,2.7767,2.7731,2.7612,2.7708,2.8027,2.8236,2.7328,2.5747,2.5253,2.5825,2.7131,2.7556,2.7705,2.7691,2.7583,2.7542,2.7538,2.7935,2.8133,2.812,2.8023,2.7682,2.7131,2.7117,2.6764,2.6213,2.62,2.5931,2.5477,2.511,2.4454,2.358,2.3539,2.3032,2.2145,0.0,0.0,0.0,2.2074,2.263,2.2841,2.1891,2.0935,2.0089,1.99,0.0,1.9072,1.9107,1.9174,1.9257,1.9035,0.0,0.0,0.0,0.0,0.0,0.0,0.0,0.0,0.0,0.0,0.0,2.1538,2.1348,2.1451,2.3898,2.5977,2.7143,2.8956,3.0525,3.1524,3.2474,3.3388,3.4231,3.4042,3.4444,3.5779,3.5745,3.5978,3.6939,3.7212,3.7533,3.8007,3.7507,3.7128,3.7242,3.6869,3.6664,3.6663,3.682,3.6831,3.6739,3.6892,3.7104,3.7194,3.7772,3.8164,3.8448,3.8838,3.9137,3.9272,3.9379,3.9475,3.9563,3.9703,3.9858,3.9952,4.0037,4.0163,4.028,4.0412,4.0468,4.0345,4.0037,3.9808,2.8542,0.0,2.8276,2.8163,0.0,2.7787,2.6999,2.5985,2.6556,2.7131,2.7718,2.8017,2.8139,2.8112,2.7528,2.7253,2.7257,2.6959,2.7149,2.7705,2.7718,2.7718,2.7705,2.7705,2.7375,2.6806,2.6793,2.663,2.6318,2.5786,2.5268,2.4696,2.4477,2.4224,2.3912,2.4515,2.4248,2.3083,2.3398,2.3891,2.4511,2.3958,2.2945,2.1606,0.0,0.0,0.0,0.0,0.0,0.0,0.0,0.0,0.0,0.0,0.0,2.0953,2.0191,2.0288,2.1663,2.179,2.2746,2.4933,2.5571,2.5545,2.4772,2.6927,2.8745,2.9778,3.1056,3.2076,3.2835,3.3938,3.4783,3.5163,3.524,3.5548,3.6084,3.639,3.6806,3.7541,3.8206,3.8815,3.9395,3.9035,3.8697,3.8606,3.8272,3.7832,3.7443,3.7152,3.6984,3.6952,3.7074,3.7224,3.7359,3.7756,3.8234,3.8391,3.8766,3.9121,3.9352,3.9448,3.9537,3.9668,3.9824,3.991,3.9986,4.0113,4.0255,4.0362,4.051,4.0648,4.0769,4.0614,4.0451,2.9067,2.8882,2.8803,2.8397,2.7717,2.747,2.737,2.7511,0.0,0.0,0.0,2.8492,2.8587,2.8519,2.7569,2.7135,2.7067,2.6194,2.6335,2.7291,2.7396,2.7704,2.8171,2.8198,2.7923,2.747,2.7456,2.7402,2.7278,2.6815,2.6541,2.6405,2.6162,2.6088,2.6192,2.6659,2.6319,2.5216,2.4852,2.5218,2.6283,2.6124,2.5117,2.3236,2.3918,2.3371,2.1477,2.2147,2.2239,2.1513,2.1024,2.119,2.2043,2.1643,2.2063,2.3496,2.3657,2.4211,2.5444,2.5539,2.6286,2.7993,2.9041,2.9348,2.8714,2.9864,3.0925,3.1727,3.2574,3.3091,3.3128,3.447,3.5383,3.5404,3.5893,3.6242,3.6449,3.7084,3.7756,3.8402,3.9278,4.01,4.0525,4.0218,4.0002,3.9859,3.9358,3.9001,3.8355,3.7565,3.7105,3.721,3.7314,3.7403,3.7567,3.7902,3.816,3.8476,3.8722,3.9067,3.9379,3.9554,3.9642,3.9781,3.9901,4.0028,4.007,4.0213,4.0362,4.051,4.0624,4.0745,4.0864,4.0894,4.0823,2.8183,2.8011,2.8593,2.8639,2.8467,2.9402,2.9819,2.9794,2.8527,2.7623,2.7104,2.8153,2.8587,2.8587,2.841,2.8343,2.8361,2.8695,2.8974,0.0,2.9708,3.0037,3.0109,3.0123,3.008,2.9994,2.9949,2.9721,2.9276,2.9218,2.8985,2.8488,2.8269,2.7828,2.7251,2.7273,2.7056,2.6474,2.5034,2.4387,2.4543,2.3496,2.2781,2.2475,2.2485,2.2425,2.2417,2.2569,2.2531,2.2419,2.2804,2.3475,2.4437,2.4409,2.5029,2.6356,2.6514,2.6846,2.7611,2.7674,2.8361,2.9918,3.055,3.0946,3.1242,3.1091,3.1237,3.1779,3.2947,3.3805,3.3987,3.5187,3.6044,3.6128,3.6211,3.6538,3.7193,3.7952,3.8608,3.9214,4.0139,4.0668,4.0645,4.0328,3.9999,3.9775,3.9531,3.9179,3.8892,3.7969,3.7329,3.7435,3.7685,3.7799,3.7927,3.8315,3.8639,3.8722,3.9094,3.9379,3.9501,3.9694,3.9798,3.9772,3.9986,4.018,4.0121,4.0296,4.0485,4.0624,4.0697,4.0745,4.0888,4.0894,4.0758,2.887,2.87,2.8988,2.9263,2.9549,3.0284,3.0277,2.968,2.8955,2.8343,2.7854,2.8356,2.8587,2.8565,2.8302,2.8196,2.8155,2.8124,2.8441,2.9072,2.9363,2.9886,3.0466,3.0569,3.0615,3.0615,3.0689,3.0587,3.0309,3.0029,2.9763,2.9466,2.8916,2.8419,2.8058,2.78,2.757,2.7378,2.6206,2.5612,2.5609,2.5038,2.4737,2.4722,2.4839,2.5106,2.547,2.5674,2.574,2.5596,2.5848,2.622,2.6656,2.6678,2.72,2.8293,2.8256,2.8376,2.8818,2.8968,2.9453,3.0402,3.0666,3.1081,3.1763,3.1372,3.1278,3.1779,3.3141,3.4037,3.4128,3.5397,3.6276,3.628,3.6663,3.7077,3.7525,3.8475,3.9227,3.9623,4.0311,4.0793,4.0817,4.0614,4.0463,4.0335,3.9968,3.9662,3.962,3.8941,3.8339,3.823,3.8315,3.8411,3.8463,3.8634,3.8898,3.9179,3.9372,3.9537,3.9668,3.9849,3.9901,3.9935,4.0121,4.0255,4.0213,4.0412,4.06,4.0673,4.0769,4.084,4.0888,4.0894,4.0799,2.9663,2.9367,2.9282,2.9656,3.0337,3.0677,3.0335,2.9645,2.9473,2.9138,2.8724,2.8619,2.8587,2.8588,2.8277,2.8201,2.8163,2.8013,2.8471,2.9295,2.9466,3.004,3.0867,3.1057,3.1145,3.1145,3.1275,3.1347,3.1287,3.0896,3.0623,3.0438,2.9626,2.9067,2.8813,2.8297,2.7972,2.7874,2.7342,2.7052,2.7037,2.6989,2.6937,2.6963,2.7207,2.7575,2.7889,2.8295,2.8444,2.834,2.8331,2.8331,2.8331,2.8331,2.8643,2.9293,2.9312,2.9403,2.97,2.9968,3.0267,3.0601,3.0744,3.11,3.169,3.1639,3.1666,3.214,3.3436,3.4349,3.4576,3.5866,3.6711,3.6663,3.7267,3.784,3.8077,3.8952,3.9662,3.9904,4.0431,4.0793,4.084,4.0871,4.0853,4.0789,4.0483,4.0245,4.0212,3.9969,3.9636,3.9348,3.9152,3.9109,3.9139,3.9279,3.948,3.9825,3.9825,3.9918,4.002,4.0011,3.9986,4.0113,4.0238,4.0337,4.0387,4.0576,4.0721,4.0769,4.0864,4.0959,4.0989,4.0989,4.0965,2.9663,2.9332,2.8922,2.9338,3.0388,3.0524,3.0766,3.0931,2.9776,2.9136,2.9035,2.8716,2.8619,2.867,2.9112,2.931,2.9433,3.0543,3.1092,3.1225,3.181,3.2136,3.2173,3.2327,3.2425,3.2413,3.2551,3.2621,3.2621,3.2691,3.2524,3.2054,3.1325,3.0451,2.9546,2.881,2.8295,2.7898,2.7824,2.7815,2.779,2.7484,2.735,2.735,2.7361,2.7575,2.7938,2.828,2.8662,2.8957,2.9004,2.8988,2.9011,2.8988,2.9058,2.919,2.9522,2.9924,3.0372,3.0784,3.0968,3.1064,3.1428,3.1709,3.1927,3.2405,3.2726,3.3076,3.4117,3.4943,3.5194,3.6904,3.7851,3.7456,3.8047,3.8772,3.9284,3.9612,3.9928,4.0549,4.0731,4.0864,4.0769,4.0823,4.0912,4.0918,4.095,4.092,4.1009,4.1071,4.1006,4.0676,4.0262,3.9969,3.9978,4.0326,4.0473,4.0618,4.057,4.0497,4.0466,4.0328,4.0138,4.0353,4.0517,4.0621,4.0728,4.0793,4.0918,4.0965,4.1035,4.1117,4.1157,4.1163,4.114,3.0289,3.0203,2.958,2.9866,3.0744,3.0796,3.0918,3.1041,2.9905,2.9397,2.9415,2.9529,2.9421,2.9188,2.9811,3.0284,3.0748,3.1637,3.2064,3.2048,3.237,3.2508,3.2551,3.2784,3.2908,3.2908,3.3069,3.3165,3.315,3.3203,3.3114,3.2835,3.2171,3.1417,3.0575,2.9845,2.9209,2.8622,2.8622,2.8598,2.855,2.8002,2.7695,2.772,2.7919,2.8116,2.8271,2.8646,2.8936,2.9091,2.9114,2.9266,2.954,2.9579,2.9799,3.023,3.0418,3.0518,3.0518,3.0885,3.114,3.1218,3.1618,3.2067,3.2627,3.292,3.3439,3.4408,3.5272,3.5794,3.6008,3.7486,3.8412,3.8284,3.8801,3.937,3.9646,4.0059,4.0459,4.0782,4.0793,4.0817,4.084,4.0935,4.1006,4.1099,4.1382,4.1771,4.1864,4.2282,4.2661,4.2661,4.2236,4.1551,4.1034,4.0754,4.0995,4.1253,4.1208,4.0984,4.0791,4.0978,4.0995,4.0737,4.1024,4.1298,4.1477,4.1587,4.1674,4.1468,4.1163,4.118,4.1312,4.1272,4.1255,3.0778,3.0872,3.0746,3.0907,3.1206,3.1363,3.1295,3.102,3.0137,2.9834,2.996,3.0192,3.024,3.0225,3.0674,3.1175,3.1637,3.2259,3.2551,3.2551,3.2648,3.2691,3.2703,3.2962,3.3112,3.315,3.3398,3.3607,3.3652,3.3581,3.3581,3.3582,3.2914,3.2112,3.1404,3.0648,2.9832,2.9177,2.9114,2.9114,2.9006,2.855,2.8183,2.811,2.8343,2.8503,2.8511,2.8873,2.9114,2.9114,2.9243,2.9489,2.9859,3.0069,3.0448,3.1086,3.1123,3.1041,3.0905,3.1162,3.1355,3.1487,3.1766,3.2314,3.3066,3.3414,3.4232,3.5643,3.6561,3.7011,3.6809,3.8251,3.9168,3.9014,3.9623,4.0055,4.0077,4.0483,4.0799,4.0912,4.0888,4.0858,4.0982,4.1076,4.1175,4.1528,4.2015,4.2555,4.2759,4.3331,4.3834,4.4117,4.3758,4.3138,4.2176,4.1679,4.1635,4.1756,4.176,4.1481,4.123,4.1604,4.1696,4.1348,4.1768,4.1937,4.1874,4.2083,4.2059,4.1713,4.1418,4.13,4.1408,4.1363,4.1408,3.0894,3.1145,3.2442,3.2367,3.1537,3.2058,3.2046,3.1437,3.0492,3.0326,3.0658,3.051,3.0867,3.169,3.179,3.1847,3.1975,3.2566,3.2843,3.2843,3.2881,3.2897,3.2897,3.3032,3.3165,3.3309,3.3813,3.4243,3.4617,3.4284,3.4292,3.4633,3.3591,3.2676,3.1965,3.0887,2.9872,2.9326,2.9169,2.9114,2.9114,2.9052,2.8826,2.8535,2.8487,2.8527,2.8574,2.8897,2.9114,2.9114,2.9579,2.9881,2.9967,3.0485,3.1007,3.134,3.1336,3.1468,3.1748,3.1873,3.1874,3.1893,3.2123,3.2509,3.3438,3.4027,3.5039,3.6579,3.7878,3.8364,3.7914,3.948,4.0464,3.9836,4.047,4.0874,4.0832,4.0814,4.0959,4.1047,4.1093,4.1175,4.1221,4.1209,4.169,4.2195,4.2457,4.2818,4.3611,4.3991,4.4299,4.4404,4.444,4.4303,4.3518,4.2834,4.2532,4.2582,4.2517,4.2157,4.2115,4.2074,4.1973,4.1934,4.2144,4.2246,4.2206,4.208,4.1885,4.1661,4.1525,4.1453,4.1515,4.156,4.1604,3.1872,3.2037,3.269,3.2649,3.216,3.1567,3.1535,3.1837,3.1174,3.1117,3.1493,3.1664,3.1975,3.2367,3.2656,3.2699,3.2578,3.2816,3.2912,3.2951,3.3303,3.3481,3.3533,3.3951,3.4177,3.4226,3.4423,3.4617,3.4761,3.4617,3.4617,3.4728,3.4394,3.3813,3.306,3.1954,3.0987,3.0257,2.9528,2.9114,2.9137,2.9114,2.9082,2.9136,2.8974,2.8873,2.8889,2.919,2.9416,2.9623,2.9957,3.0406,3.0974,3.1526,3.184,3.1894,3.1893,3.1912,3.2071,3.2489,3.2542,3.2195,3.3085,3.3735,3.4228,3.4875,3.5768,3.6926,3.8327,3.8891,3.9011,4.0187,4.1064,4.0804,4.0943,4.1134,4.1111,4.1071,4.1111,4.1157,4.1307,4.1618,4.2121,4.2396,4.2847,4.3615,4.4213,4.4612,4.4989,4.5524,4.5695,4.5422,4.5083,4.4635,4.4122,4.37,4.343,4.344,4.3294,4.2761,4.2519,4.275,4.275,4.2521,4.2619,4.2829,4.2866,4.2599,4.23,4.2136,4.1987,4.167,4.1582,4.1851,4.1842,3.2954,3.282,3.3071,3.2899,3.2339,3.1438,3.1396,3.1916,3.1558,3.1667,3.2117,3.2449,3.2699,3.2861,3.316,3.3203,3.3043,3.3203,3.3266,3.3346,3.3876,3.4119,3.4185,3.4601,3.4793,3.4793,3.4793,3.4934,3.5237,3.5121,3.5121,3.5283,3.5144,3.4724,3.3945,3.2823,3.1834,3.1049,3.0105,2.9611,2.9589,2.9617,2.9744,2.9859,2.9728,2.9589,2.9499,2.9655,2.9903,3.0175,3.0526,3.1086,3.1803,3.2196,3.2354,3.2267,3.2214,3.2301,3.2492,3.2771,3.2876,3.2965,3.3631,3.4351,3.4969,3.5494,3.6392,3.7646,3.869,3.9476,4.0201,4.1016,4.1463,4.1277,4.1232,4.1232,4.1209,4.1277,4.1391,4.156,4.2,4.2506,4.3066,4.3583,4.4252,4.5078,4.5579,4.5729,4.6033,4.6244,4.6406,4.5912,4.5436,4.5088,4.4719,4.4355,4.3663,4.3577,4.3523,4.3085,4.2976,4.3251,4.334,4.316,4.3196,4.3443,4.3409,4.316,4.294,4.2789,4.2436,4.2076,4.2129,4.2264,4.2471,3.4149,3.3326,3.3753,3.3164,3.216,3.1942,3.1768,3.1657,3.1625,3.2061,3.2695,3.2711,3.2996,3.3266,3.3424,3.3372,3.3461,3.3933,3.4084,3.405,3.4545,3.4793,3.4809,3.4911,3.4958,3.4958,3.4864,3.5351,3.6114,3.5793,3.5793,3.6092,3.5788,3.5294,3.4537,3.3422,3.2376,3.1701,3.1004,3.0572,3.0605,3.0605,3.0645,3.0727,3.0686,3.0584,3.0335,3.033,3.0477,3.0808,3.1244,3.1839,3.2249,3.2406,3.2406,3.2371,3.2284,3.2581,3.3106,3.2773,3.3175,3.3876,3.3948,3.453,3.5515,3.5902,3.6876,3.8728,3.9456,4.0175,4.1617,4.2098,4.1977,4.1391,4.1431,4.1453,4.1368,4.1475,4.1754,4.2182,4.2894,4.3563,4.4007,4.4581,4.5408,4.6149,4.6101,4.5863,4.6198,4.617,4.5696,4.5395,4.5287,4.5148,4.5112,4.4966,4.4145,4.3506,4.3415,4.3214,4.3268,4.3482,4.3551,4.3427,4.3461,4.3666,4.3597,4.3356,4.3196,4.2991,4.2681,4.2724,4.2999,4.3261,4.3575,3.5507,3.465,3.3841,3.3028,3.2212,3.2018,3.2016,3.2284,3.2652,3.3119,3.3543,3.3636,3.3704,3.3882,3.4068,3.4202,3.4251,3.4941,3.4911,3.4366,3.4975,3.5351,3.5413,3.5666,3.5837,3.5837,3.5837,3.5985,3.6216,3.6135,3.6178,3.6237,3.6156,3.6032,3.5761,3.4683,3.3706,3.2987,3.2017,3.1253,3.0744,3.0734,3.0831,3.1004,3.1007,3.1106,3.1357,3.1047,3.1044,3.1355,3.1638,3.1984,3.2319,3.2406,3.2406,3.2388,3.2354,3.2406,3.2774,3.3458,3.3792,3.416,3.5149,3.5911,3.6071,3.6513,3.7438,3.8906,3.938,4.0162,4.1248,4.2022,4.2175,4.198,4.1998,4.1998,4.1984,4.2175,4.2647,4.3258,4.388,4.4728,4.5699,4.6159,4.6265,4.6943,4.6618,4.6301,4.6362,4.6231,4.5962,4.544,4.53,4.4996,4.477,4.4553,4.4046,4.3626,4.3517,4.3427,4.3516,4.3787,4.3818,4.3994,4.4007,4.3985,4.388,4.3767,4.3724,4.3612,4.3559,4.3748,4.4111,4.4371,4.4636,3.6262,3.5136,3.3916,3.2976,3.2358,3.2144,3.2449,3.3007,3.3361,3.3723,3.4059,3.4234,3.4267,3.4366,3.4633,3.4767,3.4894,3.5565,3.5493,3.4958,3.5549,3.592,3.598,3.6276,3.6444,3.6461,3.6444,3.6461,3.6461,3.6444,3.6444,3.6461,3.6444,3.6464,3.6474,3.5539,3.4747,3.4269,3.3388,3.25,3.1884,3.1732,3.169,3.1596,3.1581,3.1765,3.2055,3.1748,3.1657,3.1876,3.202,3.2214,3.2439,3.2491,3.2507,3.2574,3.2592,3.2715,3.3051,3.3881,3.4606,3.4836,3.6076,3.6895,3.6753,3.7197,3.7823,3.8775,3.9524,4.0189,4.1068,4.2155,4.2609,4.2523,4.2395,4.244,4.2617,4.2923,4.3505,4.427,4.4993,4.5884,4.6609,4.7192,4.7046,4.7355,4.6869,4.6359,4.625,4.5996,4.5565,4.5184,4.4927,4.4606,4.4248,4.402,4.3835,4.3732,4.3699,4.3632,4.3634,4.4163,4.4417,4.5047,4.5259,4.5374,4.5287,4.4947,4.4799,4.4637,4.4551,4.4784,4.5087,4.5318,4.5576,3.6725,3.4954,3.403,3.3239,3.2604,3.2574,3.3018,3.3626,3.3822,3.3984,3.4226,3.4561,3.4649,3.4728,3.5094,3.5278,3.5307,3.5786,3.6037,3.6011,3.6301,3.6461,3.6461,3.6582,3.6661,3.6681,3.6681,3.6681,3.6661,3.6643,3.6702,3.6681,3.6661,3.6702,3.6563,3.5919,3.5531,3.529,3.4793,3.4097,3.3435,3.3439,3.3178,3.2546,3.2476,3.2476,3.2405,3.2371,3.2353,3.2405,3.2371,3.2439,3.2589,3.2622,3.2705,3.2852,3.2884,3.326,3.3778,3.4207,3.4865,3.6007,3.6435,3.6791,3.7453,3.7596,3.8061,3.9049,3.9752,4.0437,4.1177,4.2388,4.31,4.302,4.2844,4.2905,4.3279,4.3666,4.4373,4.5233,4.6087,4.6742,4.7032,4.7527,4.7528,4.7267,4.6638,4.6152,4.5868,4.5521,4.4934,4.4757,4.4799,4.4675,4.4487,4.4299,4.4114,4.4011,4.3952,4.386,4.3946,4.4463,4.5156,4.5804,4.6384,4.6536,4.6395,4.5877,4.5766,4.581,4.5805,4.59,4.6065,4.6308,4.641,3.84,3.6902,3.566,3.4407,3.3435,3.3675,3.3935,3.4127,3.4554,3.4675,3.4787,3.5055,3.5207,3.5253,3.5859,3.6118,3.6224,3.6533,3.6635,3.6574,3.667,3.6687,3.6664,3.6681,3.6722,3.6722,3.6763,3.6719,3.6719,3.6763,3.6763,3.6719,3.6763,3.6766,3.6698,3.6564,3.618,3.5785,3.5595,3.5107,3.4512,3.439,3.4058,3.3511,3.3405,3.3208,3.2845,3.2773,3.269,3.2557,3.2539,3.2622,3.2804,3.2818,3.2886,3.2987,3.2987,3.3273,3.404,3.4715,3.5518,3.6396,3.7127,3.768,3.7912,3.7915,3.8415,3.9237,3.9753,4.0225,4.1122,4.2291,4.3152,4.3833,4.3816,4.3751,4.4033,4.4703,4.5397,4.5669,4.6576,4.703,4.7154,4.7024,4.686,4.6566,4.613,4.5687,4.5543,4.5478,4.5085,4.5096,4.5098,4.4969,4.4812,4.4624,4.4452,4.4332,4.4221,4.4094,4.4333,4.4737,4.5536,4.6333,4.694,4.7224,4.6768,4.6242,4.6478,4.691,4.665,4.6571,4.6995,4.7313,4.722,3.9381,3.8239,3.6442,3.5214,3.4431,3.4398,3.4496,3.4738,3.5201,3.5402,3.5453,3.5902,3.6118,3.6182,3.6713,3.697,3.7009,3.7182,3.7203,3.7166,3.7243,3.7071,3.6831,3.6786,3.6888,3.7031,3.7048,3.7147,3.7261,3.7204,3.7223,3.7319,3.7164,3.7204,3.745,3.7206,3.7029,3.6734,3.659,3.618,3.549,3.542,3.5049,3.448,3.416,3.3729,3.3453,3.34,3.3208,3.286,3.2737,3.282,3.2979,3.2977,3.3169,3.3519,3.3653,3.4045,3.4817,3.5658,3.632,3.686,3.7649,3.8143,3.8344,3.8362,3.8716,3.9286,3.9726,4.0148,4.0682,4.1931,4.3504,4.4896,4.516,4.5063,4.4968,4.5299,4.5906,4.6398,4.6821,4.7027,4.7015,4.6633,4.6298,4.5988,4.571,4.5504,4.5418,4.5419,4.5419,4.5362,4.5352,4.5253,4.5161,4.5011,4.4849,4.4714,4.4457,4.4341,4.4655,4.51,4.6144,4.6965,4.7479,4.7779,4.7503,4.7341,4.76,4.7739,4.74,4.725,4.7604,4.7762,4.7762,3.9975,3.9113,3.6862,3.5798,3.5523,3.4865,3.488,3.5373,3.5744,3.589,3.6084,3.6741,3.6915,3.711,3.728,3.7558,3.7558,3.7559,3.7649,3.7703,3.7756,3.7614,3.7186,3.7225,3.7376,3.7542,3.7596,3.7756,3.7896,3.7861,3.7947,3.7963,3.7756,3.7879,3.7997,3.7826,3.7791,3.7753,3.7542,3.7149,3.6631,3.647,3.6096,3.5469,3.4784,3.4461,3.4352,3.4298,3.4048,3.3299,3.318,3.3387,3.3461,3.3438,3.3821,3.4521,3.4794,3.5148,3.5939,3.6711,3.7277,3.753,3.8125,3.8597,3.8799,3.8843,3.8966,3.928,3.9928,4.0253,4.0775,4.2041,4.405,4.5824,4.6459,4.6507,4.6271,4.5856,4.6099,4.7245,4.6825,4.6577,4.6418,4.6381,4.6221,4.5731,4.5486,4.5525,4.5486,4.5485,4.5513,4.5513,4.5522,4.5531,4.5475,4.541,4.5263,4.5096,4.4739,4.4643,4.4923,4.5574,4.6772,4.76,4.7893,4.8415,4.8924,4.8898,4.8739,4.8492,4.807,4.7892,4.785,4.785,4.785,4.1184,3.9787,3.8129,3.7056,3.6454,3.5698,3.5583,3.592,3.6032,3.6236,3.6467,3.69,3.7147,3.7184,3.7557,3.7595,3.7829,3.7952,3.7947,3.8165,3.8196,3.8162,3.7978,3.8029,3.8046,3.8112,3.813,3.8196,3.8245,3.8279,3.8229,3.8277,3.8263,3.8212,3.8293,3.8261,3.8181,3.818,3.798,3.7822,3.7626,3.7415,3.7057,3.6389,3.5812,3.553,3.5543,3.559,3.5511,3.5323,3.5112,3.5015,3.5035,3.5113,3.5302,3.5511,3.5712,3.6085,3.6842,3.7393,3.7895,3.8444,3.8785,3.9171,3.93,3.9255,3.9294,3.9439,3.9816,4.0593,4.1959,4.3712,4.5245,4.649,4.7267,4.7573,4.755,4.7324,4.6857,4.6324,4.6383,4.6355,4.5754,4.5754,4.5601,4.5419,4.5467,4.555,4.5577,4.5566,4.5584,4.5601,4.5601,4.5629,4.562,4.5556,4.5456,4.5303,4.5007,4.4739,4.504,4.535,4.6289,4.7271,4.8142,4.8683,4.9002,4.9308,4.8913,4.8817,4.864,4.8402,4.8154,4.8094,4.7891,4.1886,4.0671,3.9234,3.818,3.7444,3.684,3.6509,3.6447,3.6764,3.6964,3.7174,3.7542,3.7918,3.8277,3.8491,3.8792,3.9211,3.9161,3.9039,3.8993,3.8906,3.8962,3.9044,3.9008,3.8924,3.8618,3.853,3.8624,3.8763,3.873,3.8759,3.8822,3.8703,3.8748,3.8836,3.87,3.8685,3.8752,3.8554,3.8447,3.8475,3.8394,3.7892,3.7273,3.6833,3.6644,3.6513,3.6547,3.6778,3.6966,3.6928,3.6501,3.5986,3.5957,3.6115,3.6474,3.6718,3.7173,3.7845,3.8326,3.8728,3.9133,3.9327,3.9476,3.9625,3.966,3.9739,3.9897,4.0231,4.1017,4.3159,4.4059,4.5553,4.7442,4.7903,4.8028,4.7913,4.7583,4.7044,4.6156,4.6051,4.585,4.5554,4.5477,4.5485,4.5504,4.5568,4.5648,4.5635,4.5651,4.5651,4.5668,4.5668,4.5676,4.5695,4.5651,4.5571,4.5409,4.5182,4.4927,4.4896,4.5156,4.549,4.6509,4.7496,4.7875,4.8202,4.8599,4.8961,4.8621,4.8435,4.8489,4.8477,4.829,4.8015,4.2006,4.1305,3.9771,3.8859,3.8431,3.797,3.758,3.7378,3.7845,3.8277,3.8308,3.8631,3.9195,3.9642,3.98,4.048,4.0963,4.0677,4.0106,3.9896,3.9607,3.9611,3.9717,3.9682,3.952,3.9017,3.9031,3.9187,3.9317,3.9317,3.9311,3.9476,3.9261,3.9264,3.947,3.9309,3.9192,3.9338,3.9163,3.9077,3.9157,3.9093,3.8591,3.8009,3.7891,3.7716,3.7546,3.7571,3.7806,3.8423,3.8525,3.779,3.693,3.6482,3.6683,3.7482,3.7812,3.8265,3.8787,3.9233,3.9493,3.958,3.9637,3.9875,4.0131,4.0346,4.0453,4.0625,4.0975,4.1807,4.3885,4.5054,4.6388,4.8087,4.8413,4.8173,4.7761,4.7175,4.6799,4.634,4.5927,4.5638,4.5571,4.554,4.5566,4.5612,4.5673,4.5706,4.57,4.5696,4.5715,4.5715,4.5735,4.5731,4.5739,4.5731,4.5653,4.5509,4.5314,4.5107,4.4868,4.4978,4.531,4.5857,4.6594,4.7074,4.7791,4.8539,4.8679,4.8322,4.8509,4.8854,4.8773,4.8494,4.8083,4.0891,4.0534,3.8743,3.8608,3.9464,3.8717,3.8815,3.9548,3.9643,4.0004,4.0212,4.0369,4.0401,4.067,4.093,4.1404,4.175,4.1406,4.0932,4.07,4.0295,4.0025,3.9943,3.9954,3.9826,3.9781,3.9693,3.9735,3.9766,3.9781,3.972,3.9789,3.9712,3.9777,3.9777,3.9766,3.9677,3.9735,3.958,3.9532,3.9525,3.9383,3.9136,3.8679,3.8824,3.8747,3.8582,3.8734,3.8925,3.8859,3.9041,3.8951,3.8603,3.8368,3.8433,3.86,3.8898,3.9196,3.9443,3.9687,3.9848,3.9951,4.0157,4.0692,4.1168,4.132,4.1222,4.1431,4.1984,4.2953,4.4184,4.5825,4.7391,4.8467,4.8694,4.8521,4.7543,4.699,4.6626,4.6086,4.5756,4.5585,4.5634,4.565,4.5661,4.5688,4.5735,4.577,4.5765,4.5773,4.5773,4.5773,4.58,4.5803,4.5805,4.5771,4.5723,4.5577,4.5399,4.5244,4.5041,4.4917,4.5187,4.5609,4.6082,4.6651,4.7456,4.8242,4.8369,4.7993,4.8607,4.9315,4.8621,4.7949,4.7795,4.1122,4.0422,3.9983,3.9929,4.005,4.0212,4.0257,4.0419,4.0631,4.0805,4.0956,4.1151,4.1467,4.1804,4.2184,4.2549,4.2661,4.2693,4.2061,4.1499,4.0936,4.048,4.0253,4.0166,4.0138,4.0148,4.0148,4.0048,3.9911,3.9889,3.9911,3.9889,3.99,3.99,3.9889,3.9878,3.9943,3.9943,3.9911,3.9873,3.9958,3.9827,3.9675,3.9552,3.9564,3.9481,3.9288,3.9307,3.9396,3.932,3.9383,3.9445,3.947,3.9512,3.9438,3.9408,3.9614,3.978,3.9829,4.0031,4.0358,4.0845,4.1029,4.1539,4.2025,4.2041,4.1654,4.1566,4.2478,4.3618,4.495,4.6642,4.7832,4.8635,4.8643,4.7972,4.7281,4.6806,4.6321,4.591,4.5838,4.5788,4.5769,4.5796,4.5783,4.5787,4.5805,4.5824,4.5831,4.5817,4.5817,4.581,4.581,4.5798,4.5819,4.58,4.5807,4.5677,4.5509,4.5343,4.5192,4.5068,4.5019,4.518,4.5696,4.6259,4.6474,4.7036,4.7334,4.7783,4.8447,4.8742,4.7999,4.7444,4.7306,4.1378,4.0503,4.125,4.1133,4.069,4.1593,4.1733,4.1384,4.164,4.179,4.1762,4.2054,4.2518,4.3044,4.3455,4.3761,4.395,4.4033,4.3225,4.2432,4.1906,4.1436,4.106,4.0677,4.0669,4.0717,4.0391,4.0291,4.0089,4.0048,4.0017,4.0038,3.9998,3.9996,4.0027,4.0039,4.0087,4.0118,4.0176,4.0215,4.0316,4.0379,4.0288,4.0081,4.0062,3.9954,3.9626,3.9724,3.9705,3.9682,3.9705,3.9738,3.9781,4.0033,4.0072,3.9875,4.0013,4.0091,4.0215,4.0565,4.1025,4.1511,4.1904,4.2444,4.2614,4.2329,4.1738,4.1494,4.2517,4.4071,4.5474,4.6738,4.7785,4.827,4.7908,4.7144,4.6863,4.6521,4.6293,4.6036,4.5981,4.5955,4.5938,4.5925,4.5919,4.5911,4.5908,4.5893,4.5886,4.5847,4.5852,4.5819,4.5819,4.5819,4.5807,4.584,4.5847,4.5826,4.5637,4.5455,4.5333,4.5191,4.5152,4.5126,4.5397,4.587,4.5889,4.6071,4.672,4.7407,4.8155,4.8054,4.7094,4.6875,4.6929,4.0442,4.0565,4.0492,4.0871,4.172,4.2314,4.2906,4.3349,4.3342,4.3632,4.3614,4.3799,4.398,4.4316,4.4609,4.4914,4.4889,4.4528,4.4087,4.353,4.3023,4.2666,4.249,4.1871,4.1609,4.15,4.091,4.0436,4.0394,4.0394,4.0317,4.0308,4.028,4.0326,4.029,4.0271,4.0363,4.0353,4.0353,4.0368,4.04,4.0417,4.0292,4.0238,4.0319,4.0283,3.9927,4.0043,4.0091,3.9927,4.01,4.0183,4.0255,4.0415,4.0503,4.0481,4.0477,4.0484,4.0588,4.0977,4.1567,4.1994,4.2456,4.2972,4.2883,4.2652,4.2384,4.2987,4.3851,4.4806,4.6028,4.7266,4.7822,4.7757,4.7451,4.683,4.6452,4.646,4.62,4.6168,4.6126,4.6101,4.6089,4.6086,4.608,4.6037,4.6011,4.5983,4.5956,4.5916,4.5874,4.5841,4.5834,4.5834,4.5841,4.5848,4.59,4.5932,4.5757,4.5571,4.5475,4.5362,4.5279,4.5317,4.5489,4.5646,4.5841,4.613,4.6465,4.686,4.7368,4.689,4.6027,4.6139,4.6455,4.1712,4.1597,4.1922,4.2233,4.2609,4.3262,4.3793,4.4125,4.4166,4.4242,4.4436,4.4644,4.4874,4.5114,4.5303,4.54,4.5418,4.5109,4.4696,4.4397,4.3878,4.3492,4.306,4.2717,4.2524,4.2444,4.2156,4.1771,4.1354,4.0677,4.0396,4.0411,4.0411,4.0383,4.0419,4.0436,4.0444,4.046,4.0487,4.0511,4.0516,4.0492,4.0466,4.038,4.0549,4.0431,4.0356,4.0356,4.0423,4.0312,4.0431,4.0466,4.0488,4.0566,4.0628,4.0607,4.066,4.0646,4.0663,4.0991,4.1622,4.2293,4.2604,4.2444,4.2593,4.3111,4.3221,4.3285,4.5079,4.6139,4.6533,4.7346,4.7466,4.7348,4.6997,4.6667,4.6323,4.6303,4.625,4.6269,4.6269,4.6224,4.6189,4.6173,4.6143,4.6136,4.6089,4.6049,4.6017,4.5983,4.5922,4.5861,4.5854,4.5854,4.588,4.5886,4.5957,4.5977,4.5854,4.5712,4.5632,4.553,4.5496,4.5385,4.539,4.5587,4.5813,4.5854,4.5906,4.6184,4.65,4.5961,4.548,4.5687,4.5742,4.3188,4.2905,4.3367,4.3339,4.309,4.3926,4.4374,4.4506,4.4471,4.4574,4.4832,4.5086,4.5389,4.5552,4.559,4.5612,4.561,4.5629,4.528,4.4864,4.4633,4.438,4.4045,4.3725,4.3481,4.3538,4.3086,4.2592,4.1868,4.1262,4.0816,4.0473,4.0469,4.0462,4.0469,4.0504,4.0539,4.0546,4.0561,4.0583,4.0598,4.0607,4.0621,4.0635,4.0648,4.0648,4.0648,4.0642,4.0623,4.0623,4.0623,4.0726,4.0984,4.1139,4.1345,4.1397,4.1454,4.1184,4.1132,4.1286,4.1743,4.2291,4.2884,4.2828,4.3395,4.4214,4.4688,4.4234,4.5833,4.6859,4.7125,4.719,4.7221,4.6999,4.664,4.6406,4.625,4.6268,4.6286,4.6287,4.6287,4.6286,4.625,4.6227,4.6223,4.6203,4.6171,4.6126,4.6092,4.604,4.6026,4.5964,4.5944,4.5963,4.5983,4.5989,4.6052,4.6187,4.6087,4.6056,4.6113,4.595,4.5793,4.5657,4.5557,4.5496,4.5704,4.5496,4.5316,4.564,4.5827,4.5416,4.5153,4.5364,4.5319,4.4331,4.4303,4.3884,4.3472,4.3118,4.3945,4.4416,4.4637,4.4612,4.487,4.5246,4.5498,4.5629,4.57,4.5708,4.5708,4.5708,4.57,4.56,4.5561,4.5565,4.543,4.5112,4.472,4.4418,4.4369,4.4001,4.3189,4.2325,4.2125,4.1401,4.073,4.0658,4.06,4.0581,4.0607,4.0614,4.0621,4.0628,4.0654,4.0668,4.0688,4.072,4.0771,4.077,4.0788,4.0769,4.0767,4.0754,4.0773,4.0909,4.1199,4.16,4.1897,4.2206,4.2503,4.2251,4.2024,4.1961,4.184,4.2039,4.2387,4.3088,4.4011,4.4649,4.4715,4.5077,4.5577,4.6658,4.6923,4.6908,4.6808,4.6913,4.6719,4.6441,4.6382,4.6264,4.6282,4.6297,4.6301,4.6301,4.6299,4.6299,4.6268,4.6269,4.625,4.623,4.6184,4.6132,4.61,4.6123,4.6105,4.6055,4.6065,4.6111,4.6304,4.6793,4.6954,4.6905,4.6841,4.6831,4.6611,4.6529,4.6281,4.6228,4.5901,4.5708,4.5969,4.5999,4.5489,4.5249,4.5162,4.5114,4.5251,4.5224,4.4719,4.4719,4.4522,4.4224,4.3957,4.4471,4.4795,4.4973,4.5105,4.5323,4.5607,4.5715,4.5771,4.5805,4.5838,4.5833,4.5827,4.5834,4.5827,4.5827,4.5834,4.5841,4.5673,4.5577,4.5377,4.5293,4.4944,4.4479,4.3807,4.3148,4.2361,4.1692,4.1035,4.0765,4.072,4.07,4.0713,4.0725,4.0739,4.0758,4.075,4.0775,4.0781,4.0792,4.0798,4.0809,4.079,4.0801,4.0807,4.0967,4.138,4.1831,4.2288,4.2651,4.3098,4.3466,4.3098,4.2953,4.2784,4.2582,4.2546,4.3912,4.4893,4.5658,4.5697,4.5779,4.6011,4.6482,4.6884,4.7143,4.7164,4.6835,4.6554,4.6371,4.629,4.629,4.629,4.6288,4.6288,4.6294,4.6293,4.6288,4.6288,4.6291,4.6295,4.6297,4.6262,4.6267,4.6303,4.6468,4.6627,4.6758,4.6785,4.7023,4.7103,4.7387,4.7689,4.7714,4.7739,4.7811,4.7826,4.7785,4.765,4.7299,4.7065,4.6997,4.6969,4.6969,4.6652,4.6037,4.5587,4.5296,4.525,4.5329,4.5413,4.4649,4.4857,4.4611,4.4556,4.4653,4.4843,4.5069,4.5266,4.5441,4.5642,4.5834,4.5841,4.5848,4.5893,4.5893,4.5899,4.5893,4.588,4.5886,4.5899,4.5899,4.5892,4.5892,4.5879,4.582,4.5929,4.5858,4.5417,4.4544,4.4076,4.3149,4.2237,4.1572,4.1246,4.0787,4.0798,4.0809,4.0815,4.1106,4.1172,4.1214,4.1524,4.166,4.1698,4.1748,4.1773,4.1798,4.1842,4.1824,4.1951,4.2233,4.2646,4.3059,4.3471,4.3938,4.4068,4.3996,4.3865,4.3656,4.3505,4.346,4.4514,4.5806,4.6064,4.6173,4.6682,4.6912,4.6739,4.7186,4.7439,4.7264,4.6649,4.6407,4.6305,4.6305,4.6305,4.6305,4.6303,4.6303,4.6305,4.6302,4.6318,4.6518,4.6537,4.6598,4.6659,4.6799,4.6863,4.695,4.7165,4.7514,4.7644,4.7731,4.804,4.8391,4.8366,4.8372,4.8662,4.8715,4.8935,4.8974,4.8981,4.8808,4.8396,4.8231,4.824,4.7969,4.7623,4.7075,4.6489,4.6221,4.6056,4.6118,4.6267,4.6349,4.4111,4.4743,4.3978,4.4111,4.4811,4.5019,4.5204,4.5389,4.5552,4.5728,4.5899,4.5905,4.5905,4.5911,4.5931,4.5923,4.5941,4.5935,4.5941,4.5933,4.5964,4.5935,4.5947,4.5983,4.6016,4.5989,4.5952,4.5623,4.4938,4.4661,4.3746,4.2844,4.2264,4.1645,4.09,4.0812,4.0812,4.0948,4.1682,4.19,4.2221,4.2692,4.2906,4.2936,4.2913,4.2884,4.2869,4.2898,4.2898,4.2983,4.3259,4.3743,4.4371,4.4631,4.5138,4.5726,4.5165,4.4899,4.4825,4.4756,4.4945,4.5244,4.6489,4.6738,4.714,4.7437,4.7344,4.6933,4.7259,4.7089,4.6713,4.6341,4.6319,4.6298,4.6298,4.6277,4.6277,4.6275,4.6273,4.6271,4.629,4.6347,4.6626,4.6845,4.6923,4.7059,4.7295,4.7457,4.7619,4.783,4.8177,4.8532,4.8646,4.8976,4.923,4.9049,4.9074,4.9401,4.9946,5.0442,5.0545,5.0539,5.0199,4.9608,4.9653,4.9873,4.9007,4.8075,4.7999,4.7968,4.7331,4.7108,4.716,4.7224,4.7333,4.3229,4.3488,4.3241,4.3666,4.4536,4.5122,4.5418,4.5496,4.5742,4.5904,4.5955,4.598,4.598,4.598,4.5991,4.6,4.6042,4.6047,4.6056,4.6089,4.6084,4.6098,4.6093,4.6108,4.6122,4.6126,4.6095,4.6033,4.5768,4.5278,4.4756,4.3964,4.2828,4.1834,4.1179,4.1003,4.1155,4.1716,4.2159,4.2462,4.3039,4.3408,4.3618,4.3638,4.3661,4.3685,4.3704,4.3806,4.3783,4.3856,4.4093,4.463,4.5092,4.531,4.5852,4.6183,4.5771,4.579,4.5943,4.6125,4.6538,4.6723,4.7082,4.7475,4.7573,4.7498,4.7253,4.6881,4.6832,4.6587,4.6357,4.6314,4.629,4.629,4.6288,4.6264,4.6243,4.6219,4.6216,4.6216,4.6236,4.6662,4.6999,4.7611,4.7789,4.8064,4.8376,4.8344,4.845,4.8531,4.8767,4.9269,4.9588,4.9901,5.0087,5.0223,5.0646,5.1194,5.1916,5.266,5.2587,5.2139,5.1741,5.1219,5.1392,5.146,5.021,4.9307,4.9673,4.959,4.8929,4.8357,4.8263,4.8311,4.8397,4.2593,4.2785,4.2607,4.3217,4.4284,4.492,4.5333,4.5718,4.5977,4.6085,4.6076,4.6071,4.6071,4.6071,4.6076,4.6085,4.6138,4.6138,4.6142,4.6196,4.6196,4.6189,4.6192,4.6199,4.6185,4.6199,4.6199,4.6176,4.6114,4.5625,4.515,4.4538,4.3526,4.2749,4.2092,4.1899,4.1912,4.2597,4.3116,4.3564,4.4042,4.4361,4.4595,4.4614,4.4595,4.4579,4.454,4.4484,4.4472,4.4634,4.4932,4.5345,4.5565,4.5822,4.6234,4.6234,4.6231,4.6233,4.6368,4.6478,4.6658,4.6775,4.779,4.7807,4.7259,4.697,4.6763,4.6462,4.6282,4.6264,4.6267,4.626,4.6279,4.626,4.6258,4.6233,4.6231,4.6209,4.6206,4.6206,4.6337,4.6825,4.7527,4.8254,4.8786,4.9162,4.9518,4.9425,4.9393,4.9555,4.9687,5.0104,5.0545,5.0842,5.1289,5.1734,5.2243,5.2937,5.3533,5.4086,5.3978,5.341,5.3112,5.2681,5.2228,5.1712,5.1029,5.0606,5.0673,5.0691,5.047,4.9945,4.9491,4.9431,4.9529,4.2103,4.2676,4.2056,4.269,4.4059,4.4454,4.5205,4.615,4.6173,4.6173,4.6192,4.6185,4.6181,4.6189,4.6192,4.6173,4.618,4.618,4.6206,4.6213,4.6222,4.6219,4.6219,4.62,4.6231,4.6219,4.6219,4.6237,4.6213,4.6047,4.566,4.5106,4.4213,4.3803,4.3478,4.3149,4.3109,4.3635,4.4117,4.4546,4.4964,4.5537,4.5696,4.5735,4.5751,4.5771,4.579,4.581,4.588,4.5967,4.6072,4.6165,4.6234,4.628,4.63,4.6288,4.63,4.6302,4.6288,4.638,4.6365,4.6509,4.7006,4.6835,4.6619,4.6444,4.6372,4.6309,4.6231,4.6209,4.6209,4.6209,4.6226,4.6226,4.6226,4.6203,4.6203,4.6201,4.6201,4.6256,4.6384,4.6947,4.8035,4.8841,4.9646,5.0153,5.0488,5.0722,5.0751,5.0957,5.1078,5.1151,5.1529,5.1808,5.2267,5.2781,5.3396,5.3949,5.4284,5.4736,5.4651,5.4585,5.4163,5.3543,5.2612,5.2069,5.203,5.1722,5.1356,5.1383,5.1582,5.1434,5.0951,5.0691,5.0761,4.0984,4.1174,4.1051,4.1692,4.2848,4.4261,4.5394,4.6141,4.6199,4.6199,4.6199,4.6199,4.6209,4.6199,4.6196,4.6196,4.6209,4.6217,4.6231,4.6238,4.6264,4.6271,4.6255,4.6257,4.6262,4.6262,4.6262,4.6278,4.6264,4.627,4.6231,4.5829,4.501,4.5009,4.4947,4.4648,4.4524,4.4553,4.4935,4.5289,4.5681,4.6087,4.6262,4.626,4.626,4.626,4.626,4.626,4.6247,4.6251,4.6273,4.6278,4.6298,4.6302,4.6305,4.6301,4.6306,4.6289,4.6247,4.6209,4.6204,4.6194,4.6501,4.6451,4.6262,4.6206,4.6195,4.6195,4.6215,4.6215,4.6195,4.6195,4.6212,4.6212,4.6212,4.6209,4.6245,4.6378,4.6417,4.6784,4.6895,4.7885,4.8918,4.962,5.0403,5.0988,5.1475,5.1806,5.2028,5.2198,5.2235,5.2281,5.2498,5.2746,5.3127,5.3611,5.4293,5.4892,5.5184,5.5474,5.5652,5.5525,5.5119,5.4333,5.3286,5.3273,5.3636,5.3087,5.2203,5.251,5.271,5.2593,5.2451,5.208,5.1865,4.0535,4.0591,4.0686,4.131,4.2383,4.3831,4.4949,4.5687,4.6067,4.624,4.6226,4.6228,4.625,4.6258,4.624,4.6225,4.6236,4.6238,4.6262,4.6269,4.6295,4.6294,4.6299,4.6301,4.63,4.6301,4.6301,4.6297,4.6302,4.6301,4.6262,4.6204,4.5678,4.5873,4.5911,4.5677,4.5521,4.5497,4.5612,4.5845,4.6118,4.6351,4.6311,4.6387,4.6368,4.6368,4.6368,4.6387,4.6348,4.6311,4.6291,4.6291,4.6293,4.6296,4.6301,4.6289,4.6267,4.6243,4.621,4.6204,4.6209,4.6198,4.6196,4.6213,4.6232,4.62,4.62,4.6203,4.62,4.6196,4.62,4.6203,4.62,4.6196,4.6213,4.6209,4.6381,4.6569,4.694,4.7368,4.8128,4.9141,4.9956,5.0579,5.132,5.222,5.2844,5.3198,5.328,5.3264,5.3208,5.3143,5.3395,5.3691,5.4065,5.4421,5.5011,5.5584,5.5955,5.6243,5.6525,5.6176,5.5514,5.4723,5.3864,5.3899,5.3888,5.3609,5.307,5.3329,5.3609,5.3731,5.3556,5.3198,5.3072,4.0581,4.0693,4.0771,4.1337,4.2333,4.3312,4.4191,4.4992,4.5877,4.6287,4.6291,4.6293,4.6293,4.6293,4.6274,4.6276,4.6277,4.6277,4.6277,4.6301,4.6301,4.6302,4.6302,4.6303,4.6305,4.6304,4.6303,4.6305,4.6304,4.6304,4.6305,4.6289,4.6228,4.6248,4.6208,4.6189,4.6053,4.6033,4.6109,4.6264,4.6478,4.6516,4.6497,4.6633,4.6672,4.6652,4.6653,4.6575,4.6497,4.6536,4.6575,4.6691,4.6537,4.6699,4.6659,4.6597,4.6676,4.6611,4.6554,4.6505,4.632,4.6274,4.6196,4.6199,4.6203,4.6203,4.6209,4.6209,4.6206,4.6206,4.6209,4.6209,4.6206,4.6206,4.6203,4.6417,4.6725,4.717,4.7891,4.8417,4.9294,5.0287,5.1125,5.1749,5.2353,5.3401,5.4004,5.4336,5.4379,5.4285,5.4079,5.3964,5.446,5.4726,5.4795,5.5183,5.5706,5.6216,5.6469,5.6584,5.6577,5.6236,5.5784,5.5118,5.4459,5.3868,5.3649,5.3475,5.3475,5.3697,5.4053,5.4689,5.46,5.404,5.3955,4.063,4.0729,4.0886,4.1152,4.1593,4.3039,4.3782,4.4152,4.5654,4.6279,4.63,4.63,4.6301,4.6302,4.6303,4.6303,4.6302,4.6304,4.6302,4.6303,4.6305,4.6306,4.6306,4.6288,4.6289,4.6289,4.6289,4.6289,4.6289,4.6289,4.6289,4.6289,4.6289,4.6289,4.6289,4.6289,4.6289,4.6289,4.6445,4.6796,4.7263,4.7925,4.8275,4.8216,4.8158,4.8061,4.808,4.8158,4.8216,4.8294,4.8275,4.7962,4.7376,4.7761,4.766,4.7362,4.7499,4.7315,4.7034,4.6811,4.6578,4.6259,4.6154,4.6189,4.6199,4.6199,4.6196,4.6196,4.6199,4.6199,4.6199,4.6199,4.6199,4.6199,4.6316,4.6722,4.7131,4.7988,4.8806,4.9625,5.0482,5.1261,5.2099,5.2801,5.3502,5.4082,5.4647,5.4979,5.5061,5.4991,5.4729,5.4767,5.5588,5.5878,5.5758,5.5739,5.6159,5.6274,5.6411,5.6508,5.6506,5.6,5.5457,5.5499,5.5117,5.4304,5.3674,5.3552,5.3619,5.3802,5.4101,5.4544,5.4638,5.4202,5.4354,4.0674,4.0805,4.0976,4.1082,4.1384,4.2576,4.3338,4.3924,4.5154,4.5935,4.6267,4.6305,4.6305,4.6306,4.6306,4.6289,4.6289,4.6306,4.6287,4.6288,4.6289,4.6288,4.6289,4.6289,4.6289,4.6289,4.6289,4.6289,4.6289,4.6289,4.6289,4.6289,4.6289,4.6327,4.6285,4.6264,4.6302,4.6284,4.6557,4.7205,4.789,4.8358,4.867,4.8689,4.8906,4.8945,4.8885,4.8885,4.8885,4.8847,4.873,4.8545,4.8161,4.8304,4.8307,4.8023,4.7886,4.7826,4.7411,4.7028,4.6703,4.625,4.6065,4.6093,4.6146,4.6146,4.6162,4.6165,4.6196,4.6199,4.6199,4.6199,4.6199,4.6199,4.6819,4.7404,4.8183,4.9099,4.98,5.0482,5.1106,5.1476,5.2177,5.2567,5.3268,5.3868,5.453,5.4647,5.4881,5.515,5.5035,5.5133,5.5679,5.624,5.6171,5.6203,5.645,5.6469,5.6179,5.5716,5.534,5.5284,5.5133,5.4902,5.4641,5.4216,5.3727,5.3374,5.3405,5.354,5.3886,5.429,5.4312,5.4449,5.4683,4.0749,4.0935,4.1076,4.121,4.1465,4.2246,4.3125,4.3984,4.4824,4.5625,4.625,4.6289,4.6289,4.6289,4.6289,4.6289,4.6289,4.6289,4.6289,4.6289,4.6289,4.6289,4.6289,4.6289,4.6289,4.6269,4.625,4.625,4.625,4.6211,4.6191,4.6269,4.6362,4.6415,4.6358,4.6368,4.6464,4.6564,4.6923,4.7658,4.8022,4.8301,4.8789,4.9062,4.9199,4.9219,4.9238,4.9218,4.9238,4.927,4.9331,4.9103,4.9032,4.9065,4.8964,4.8778,4.8352,4.8027,4.7472,4.6901,4.6433,4.6049,4.6016,4.6017,4.6075,4.6132,4.6154,4.6185,4.6216,4.6254,4.6254,4.6429,4.6429,4.6663,4.7443,4.8202,4.9157,5.0034,5.0638,5.1242,5.1554,5.1846,5.2154,5.2543,5.305,5.3634,5.3844,5.3883,5.3996,5.4275,5.4379,5.4548,5.4933,5.5482,5.5893,5.5975,5.5907,5.5677,5.523,5.464,5.4276,5.4496,5.4432,5.3944,5.367,5.3437,5.3174,5.2762,5.2928,5.314,5.3254,5.3582,5.4496,5.4685,5.499,4.0918,4.1078,4.1149,4.1543,4.2207,4.3066,4.3945,4.4824,4.5644,4.619,4.6249,4.6306,4.6289,4.6289,4.6289,4.6289,4.6289,4.6289,4.6289,4.6289,4.6289,4.6289,4.6289,4.6288,4.6306,4.6263,4.6215,4.6156,4.6396,4.6203,4.6043,4.6213,4.6885,4.7033,4.7095,4.7049,4.6956,4.6924,4.6583,4.6953,4.7982,4.8711,5.0156,5.0586,5.0918,5.0937,5.0918,5.0859,5.0842,5.0796,5.0442,4.9928,4.9673,4.9598,4.9556,4.9122,4.8703,4.8321,4.7721,4.7016,4.6486,4.5949,4.5927,4.5986,4.6051,4.6153,4.6192,4.6246,4.6288,4.6407,4.6512,4.7077,4.7272,4.7766,4.8433,4.9138,4.9956,5.0541,5.1086,5.1495,5.1807,5.2037,5.2247,5.2671,5.3115,5.3505,5.3461,5.3476,5.3332,5.3521,5.3667,5.3841,5.4069,5.4216,5.4413,5.4705,5.4706,5.4535,5.4361,5.3884,5.3728,5.4013,5.3806,5.3166,5.2852,5.2647,5.2363,5.22,5.2285,5.2448,5.2418,5.2804,5.3981,5.4882,5.5171]}]]